<?xml version="1.0" encoding="UTF-8" standalone="no" ?>
<gpx xmlns="http://www.topografix.com/GPX/1/1" xmlns:xsi="http://www.w3.org/2001/XMLSchema-instance" xsi:schemaLocation="http://www.topografix.com/GPX/1/1 http://www.topografix.com/GPX/1/1/gpx.xsd" version="1.1" creator="VisuGPX - https://www.visugpx.com">
  <metadata>
    <name>Les étangs de Hollande et Table du Roi</name>
    <desc><![CDATA[Pour éviter l\'autre côté trop gadoue en ce moment, nous passons de l\'autre côté.
Plus une petite boucle proche du retour]]></desc>
  </metadata>
  <trk>
    <name><![CDATA[Untitled]]></name>
    <trkseg>
      <trkpt lat="48.70609" lon="1.75761">
        <ele>177.80000305176</ele>
        <time>2014-07-29T07:30:05.000Z</time>
      </trkpt>
      <trkpt lat="48.70604" lon="1.75768">
        <ele>177.39999389648</ele>
        <time>2014-07-29T07:30:11.000Z</time>
      </trkpt>
      <trkpt lat="48.70604" lon="1.75769">
        <ele>177.39999389648</ele>
        <time>2014-07-29T07:30:12.000Z</time>
      </trkpt>
      <trkpt lat="48.70601" lon="1.75773">
        <ele>177.39999389648</ele>
        <time>2014-07-29T07:30:16.000Z</time>
      </trkpt>
      <trkpt lat="48.70598" lon="1.75778">
        <ele>177.39999389648</ele>
        <time>2014-07-29T07:30:20.000Z</time>
      </trkpt>
      <trkpt lat="48.70593" lon="1.7578">
        <ele>177.80000305176</ele>
        <time>2014-07-29T07:30:29.000Z</time>
      </trkpt>
      <trkpt lat="48.70593" lon="1.7578">
        <ele>177.80000305176</ele>
        <time>2014-07-29T07:30:30.000Z</time>
      </trkpt>
      <trkpt lat="48.70592" lon="1.75787">
        <ele>177.39999389648</ele>
        <time>2014-07-29T07:30:56.000Z</time>
      </trkpt>
      <trkpt lat="48.70591" lon="1.75792">
        <ele>177.19999694824</ele>
        <time>2014-07-29T07:31:00.000Z</time>
      </trkpt>
      <trkpt lat="48.70589" lon="1.75798">
        <ele>177.19999694824</ele>
        <time>2014-07-29T07:31:06.000Z</time>
      </trkpt>
      <trkpt lat="48.70584" lon="1.75807">
        <ele>177.39999389648</ele>
        <time>2014-07-29T07:31:14.000Z</time>
      </trkpt>
      <trkpt lat="48.70576" lon="1.75818">
        <ele>178</ele>
        <time>2014-07-29T07:31:22.000Z</time>
      </trkpt>
      <trkpt lat="48.70574" lon="1.75826">
        <ele>178.19999694824</ele>
        <time>2014-07-29T07:31:28.000Z</time>
      </trkpt>
      <trkpt lat="48.70571" lon="1.75833">
        <ele>178.60000610352</ele>
        <time>2014-07-29T07:31:33.000Z</time>
      </trkpt>
      <trkpt lat="48.70569" lon="1.75842">
        <ele>179</ele>
        <time>2014-07-29T07:31:39.000Z</time>
      </trkpt>
      <trkpt lat="48.70565" lon="1.75854">
        <ele>179.60000610352</ele>
        <time>2014-07-29T07:31:47.000Z</time>
      </trkpt>
      <trkpt lat="48.7056" lon="1.75864">
        <ele>180.19999694824</ele>
        <time>2014-07-29T07:31:55.000Z</time>
      </trkpt>
      <trkpt lat="48.70559" lon="1.75865">
        <ele>180.19999694824</ele>
        <time>2014-07-29T07:31:56.000Z</time>
      </trkpt>
      <trkpt lat="48.70557" lon="1.7587">
        <ele>180.19999694824</ele>
        <time>2014-07-29T07:32:01.000Z</time>
      </trkpt>
      <trkpt lat="48.70554" lon="1.75878">
        <ele>180.19999694824</ele>
        <time>2014-07-29T07:32:08.000Z</time>
      </trkpt>
      <trkpt lat="48.70552" lon="1.75885">
        <ele>180.19999694824</ele>
        <time>2014-07-29T07:32:14.000Z</time>
      </trkpt>
      <trkpt lat="48.70551" lon="1.75886">
        <ele>180.19999694824</ele>
        <time>2014-07-29T07:32:15.000Z</time>
      </trkpt>
      <trkpt lat="48.70548" lon="1.75892">
        <ele>180.39999389648</ele>
        <time>2014-07-29T07:32:19.000Z</time>
      </trkpt>
      <trkpt lat="48.70547" lon="1.75899">
        <ele>180.19999694824</ele>
        <time>2014-07-29T07:32:25.000Z</time>
      </trkpt>
      <trkpt lat="48.70542" lon="1.75905">
        <ele>180.39999389648</ele>
        <time>2014-07-29T07:32:30.000Z</time>
      </trkpt>
      <trkpt lat="48.70536" lon="1.75915">
        <ele>180.39999389648</ele>
        <time>2014-07-29T07:32:36.000Z</time>
      </trkpt>
      <trkpt lat="48.70532" lon="1.75922">
        <ele>180.39999389648</ele>
        <time>2014-07-29T07:32:42.000Z</time>
      </trkpt>
      <trkpt lat="48.70527" lon="1.75929">
        <ele>180.39999389648</ele>
        <time>2014-07-29T07:32:48.000Z</time>
      </trkpt>
      <trkpt lat="48.7052" lon="1.75937">
        <ele>180.39999389648</ele>
        <time>2014-07-29T07:32:55.000Z</time>
      </trkpt>
      <trkpt lat="48.70518" lon="1.75943">
        <ele>180.19999694824</ele>
        <time>2014-07-29T07:33:00.000Z</time>
      </trkpt>
      <trkpt lat="48.70513" lon="1.75951">
        <ele>179.80000305176</ele>
        <time>2014-07-29T07:33:07.000Z</time>
      </trkpt>
      <trkpt lat="48.70509" lon="1.75957">
        <ele>179.39999389648</ele>
        <time>2014-07-29T07:33:11.000Z</time>
      </trkpt>
      <trkpt lat="48.70508" lon="1.7596">
        <ele>179.39999389648</ele>
        <time>2014-07-29T07:33:14.000Z</time>
      </trkpt>
      <trkpt lat="48.70502" lon="1.75971">
        <ele>178.80000305176</ele>
        <time>2014-07-29T07:33:22.000Z</time>
      </trkpt>
      <trkpt lat="48.70501" lon="1.75972">
        <ele>178.80000305176</ele>
        <time>2014-07-29T07:33:23.000Z</time>
      </trkpt>
      <trkpt lat="48.70496" lon="1.75983">
        <ele>179</ele>
        <time>2014-07-29T07:33:30.000Z</time>
      </trkpt>
      <trkpt lat="48.70495" lon="1.75985">
        <ele>179</ele>
        <time>2014-07-29T07:33:32.000Z</time>
      </trkpt>
      <trkpt lat="48.70493" lon="1.75987">
        <ele>179</ele>
        <time>2014-07-29T07:33:35.000Z</time>
      </trkpt>
      <trkpt lat="48.70491" lon="1.75993">
        <ele>178.80000305176</ele>
        <time>2014-07-29T07:33:39.000Z</time>
      </trkpt>
      <trkpt lat="48.70488" lon="1.76001">
        <ele>178.39999389648</ele>
        <time>2014-07-29T07:33:44.000Z</time>
      </trkpt>
      <trkpt lat="48.70488" lon="1.76005">
        <ele>178.19999694824</ele>
        <time>2014-07-29T07:33:46.000Z</time>
      </trkpt>
      <trkpt lat="48.70487" lon="1.76011">
        <ele>177.80000305176</ele>
        <time>2014-07-29T07:33:50.000Z</time>
      </trkpt>
      <trkpt lat="48.70487" lon="1.76024">
        <ele>177</ele>
        <time>2014-07-29T07:33:58.000Z</time>
      </trkpt>
      <trkpt lat="48.70486" lon="1.76027">
        <ele>176.80000305176</ele>
        <time>2014-07-29T07:34:00.000Z</time>
      </trkpt>
      <trkpt lat="48.70484" lon="1.76039">
        <ele>176.19999694824</ele>
        <time>2014-07-29T07:34:08.000Z</time>
      </trkpt>
      <trkpt lat="48.70482" lon="1.76044">
        <ele>176</ele>
        <time>2014-07-29T07:34:11.000Z</time>
      </trkpt>
      <trkpt lat="48.70479" lon="1.76055">
        <ele>175.80000305176</ele>
        <time>2014-07-29T07:34:16.000Z</time>
      </trkpt>
      <trkpt lat="48.70476" lon="1.76068">
        <ele>175.19999694824</ele>
        <time>2014-07-29T07:34:22.000Z</time>
      </trkpt>
      <trkpt lat="48.70471" lon="1.76083">
        <ele>175.19999694824</ele>
        <time>2014-07-29T07:34:29.000Z</time>
      </trkpt>
      <trkpt lat="48.70468" lon="1.76092">
        <ele>175.19999694824</ele>
        <time>2014-07-29T07:34:34.000Z</time>
      </trkpt>
      <trkpt lat="48.70468" lon="1.76104">
        <ele>175.19999694824</ele>
        <time>2014-07-29T07:34:42.000Z</time>
      </trkpt>
      <trkpt lat="48.70467" lon="1.76109">
        <ele>175</ele>
        <time>2014-07-29T07:34:46.000Z</time>
      </trkpt>
      <trkpt lat="48.70463" lon="1.76119">
        <ele>175.19999694824</ele>
        <time>2014-07-29T07:34:53.000Z</time>
      </trkpt>
      <trkpt lat="48.70463" lon="1.7612">
        <ele>175.19999694824</ele>
        <time>2014-07-29T07:34:54.000Z</time>
      </trkpt>
      <trkpt lat="48.7046" lon="1.76137">
        <ele>175</ele>
        <time>2014-07-29T07:35:04.000Z</time>
      </trkpt>
      <trkpt lat="48.7046" lon="1.76138">
        <ele>175</ele>
        <time>2014-07-29T07:35:05.000Z</time>
      </trkpt>
      <trkpt lat="48.70459" lon="1.76149">
        <ele>175</ele>
        <time>2014-07-29T07:35:13.000Z</time>
      </trkpt>
      <trkpt lat="48.70458" lon="1.76159">
        <ele>174.80000305176</ele>
        <time>2014-07-29T07:35:19.000Z</time>
      </trkpt>
      <trkpt lat="48.70458" lon="1.76161">
        <ele>174.80000305176</ele>
        <time>2014-07-29T07:35:20.000Z</time>
      </trkpt>
      <trkpt lat="48.70459" lon="1.76171">
        <ele>174.39999389648</ele>
        <time>2014-07-29T07:35:26.000Z</time>
      </trkpt>
      <trkpt lat="48.7046" lon="1.76173">
        <ele>174.19999694824</ele>
        <time>2014-07-29T07:35:28.000Z</time>
      </trkpt>
      <trkpt lat="48.70463" lon="1.76182">
        <ele>173.80000305176</ele>
        <time>2014-07-29T07:35:35.000Z</time>
      </trkpt>
      <trkpt lat="48.70464" lon="1.76189">
        <ele>173.60000610352</ele>
        <time>2014-07-29T07:35:42.000Z</time>
      </trkpt>
      <trkpt lat="48.70466" lon="1.76198">
        <ele>173.19999694824</ele>
        <time>2014-07-29T07:35:48.000Z</time>
      </trkpt>
      <trkpt lat="48.70467" lon="1.76201">
        <ele>173</ele>
        <time>2014-07-29T07:35:50.000Z</time>
      </trkpt>
      <trkpt lat="48.70468" lon="1.76205">
        <ele>173</ele>
        <time>2014-07-29T07:35:53.000Z</time>
      </trkpt>
      <trkpt lat="48.70468" lon="1.76216">
        <ele>172.60000610352</ele>
        <time>2014-07-29T07:35:59.000Z</time>
      </trkpt>
      <trkpt lat="48.70464" lon="1.76234">
        <ele>172.39999389648</ele>
        <time>2014-07-29T07:36:06.000Z</time>
      </trkpt>
      <trkpt lat="48.70462" lon="1.76247">
        <ele>172.60000610352</ele>
        <time>2014-07-29T07:36:12.000Z</time>
      </trkpt>
      <trkpt lat="48.70462" lon="1.76253">
        <ele>172.80000305176</ele>
        <time>2014-07-29T07:36:15.000Z</time>
      </trkpt>
      <trkpt lat="48.7046" lon="1.76264">
        <ele>173.19999694824</ele>
        <time>2014-07-29T07:36:22.000Z</time>
      </trkpt>
      <trkpt lat="48.70455" lon="1.76275">
        <ele>173.39999389648</ele>
        <time>2014-07-29T07:36:27.000Z</time>
      </trkpt>
      <trkpt lat="48.70455" lon="1.76276">
        <ele>173.39999389648</ele>
        <time>2014-07-29T07:36:28.000Z</time>
      </trkpt>
      <trkpt lat="48.70454" lon="1.76284">
        <ele>173.39999389648</ele>
        <time>2014-07-29T07:36:34.000Z</time>
      </trkpt>
      <trkpt lat="48.70454" lon="1.76291">
        <ele>173.39999389648</ele>
        <time>2014-07-29T07:36:38.000Z</time>
      </trkpt>
      <trkpt lat="48.70453" lon="1.76305">
        <ele>173.39999389648</ele>
        <time>2014-07-29T07:36:47.000Z</time>
      </trkpt>
      <trkpt lat="48.70452" lon="1.76306">
        <ele>173.39999389648</ele>
        <time>2014-07-29T07:36:48.000Z</time>
      </trkpt>
      <trkpt lat="48.70451" lon="1.76309">
        <ele>173.60000610352</ele>
        <time>2014-07-29T07:36:55.000Z</time>
      </trkpt>
      <trkpt lat="48.70451" lon="1.76315">
        <ele>173.39999389648</ele>
        <time>2014-07-29T07:37:00.000Z</time>
      </trkpt>
      <trkpt lat="48.7045" lon="1.76321">
        <ele>173.60000610352</ele>
        <time>2014-07-29T07:37:04.000Z</time>
      </trkpt>
      <trkpt lat="48.70453" lon="1.7633">
        <ele>173.80000305176</ele>
        <time>2014-07-29T07:37:11.000Z</time>
      </trkpt>
      <trkpt lat="48.70453" lon="1.76335">
        <ele>174.19999694824</ele>
        <time>2014-07-29T07:37:15.000Z</time>
      </trkpt>
      <trkpt lat="48.70453" lon="1.76338">
        <ele>174.19999694824</ele>
        <time>2014-07-29T07:37:17.000Z</time>
      </trkpt>
      <trkpt lat="48.70456" lon="1.76347">
        <ele>174.60000610352</ele>
        <time>2014-07-29T07:37:23.000Z</time>
      </trkpt>
      <trkpt lat="48.70457" lon="1.76356">
        <ele>175</ele>
        <time>2014-07-29T07:37:28.000Z</time>
      </trkpt>
      <trkpt lat="48.70458" lon="1.7636">
        <ele>175</ele>
        <time>2014-07-29T07:37:30.000Z</time>
      </trkpt>
      <trkpt lat="48.70461" lon="1.76367">
        <ele>175.39999389648</ele>
        <time>2014-07-29T07:37:33.000Z</time>
      </trkpt>
      <trkpt lat="48.70461" lon="1.76369">
        <ele>175.39999389648</ele>
        <time>2014-07-29T07:37:35.000Z</time>
      </trkpt>
      <trkpt lat="48.70463" lon="1.76375">
        <ele>175.60000610352</ele>
        <time>2014-07-29T07:37:40.000Z</time>
      </trkpt>
      <trkpt lat="48.70466" lon="1.76385">
        <ele>176</ele>
        <time>2014-07-29T07:37:46.000Z</time>
      </trkpt>
      <trkpt lat="48.70466" lon="1.76386">
        <ele>176</ele>
        <time>2014-07-29T07:37:47.000Z</time>
      </trkpt>
      <trkpt lat="48.70469" lon="1.76399">
        <ele>176.60000610352</ele>
        <time>2014-07-29T07:37:54.000Z</time>
      </trkpt>
      <trkpt lat="48.7047" lon="1.76406">
        <ele>176.80000305176</ele>
        <time>2014-07-29T07:37:58.000Z</time>
      </trkpt>
      <trkpt lat="48.70473" lon="1.76419">
        <ele>176.80000305176</ele>
        <time>2014-07-29T07:38:05.000Z</time>
      </trkpt>
      <trkpt lat="48.70472" lon="1.76429">
        <ele>177</ele>
        <time>2014-07-29T07:38:12.000Z</time>
      </trkpt>
      <trkpt lat="48.70468" lon="1.76436">
        <ele>177.19999694824</ele>
        <time>2014-07-29T07:38:17.000Z</time>
      </trkpt>
      <trkpt lat="48.70465" lon="1.76443">
        <ele>177.80000305176</ele>
        <time>2014-07-29T07:38:21.000Z</time>
      </trkpt>
      <trkpt lat="48.70459" lon="1.76455">
        <ele>178.80000305176</ele>
        <time>2014-07-29T07:38:29.000Z</time>
      </trkpt>
      <trkpt lat="48.70458" lon="1.76462">
        <ele>179.19999694824</ele>
        <time>2014-07-29T07:38:32.000Z</time>
      </trkpt>
      <trkpt lat="48.70459" lon="1.76473">
        <ele>179.80000305176</ele>
        <time>2014-07-29T07:38:40.000Z</time>
      </trkpt>
      <trkpt lat="48.70457" lon="1.76476">
        <ele>180</ele>
        <time>2014-07-29T07:38:46.000Z</time>
      </trkpt>
      <trkpt lat="48.70457" lon="1.76478">
        <ele>180</ele>
        <time>2014-07-29T07:38:47.000Z</time>
      </trkpt>
      <trkpt lat="48.70456" lon="1.76489">
        <ele>180.60000610352</ele>
        <time>2014-07-29T07:38:55.000Z</time>
      </trkpt>
      <trkpt lat="48.70456" lon="1.76493">
        <ele>180.60000610352</ele>
        <time>2014-07-29T07:38:57.000Z</time>
      </trkpt>
      <trkpt lat="48.70457" lon="1.76496">
        <ele>180.60000610352</ele>
        <time>2014-07-29T07:38:59.000Z</time>
      </trkpt>
      <trkpt lat="48.70457" lon="1.76498">
        <ele>180.60000610352</ele>
        <time>2014-07-29T07:39:01.000Z</time>
      </trkpt>
      <trkpt lat="48.70456" lon="1.76511">
        <ele>180.80000305176</ele>
        <time>2014-07-29T07:39:07.000Z</time>
      </trkpt>
      <trkpt lat="48.70457" lon="1.76519">
        <ele>180.60000610352</ele>
        <time>2014-07-29T07:39:13.000Z</time>
      </trkpt>
      <trkpt lat="48.70453" lon="1.76528">
        <ele>180.80000305176</ele>
        <time>2014-07-29T07:39:19.000Z</time>
      </trkpt>
      <trkpt lat="48.70451" lon="1.76542">
        <ele>180.60000610352</ele>
        <time>2014-07-29T07:39:26.000Z</time>
      </trkpt>
      <trkpt lat="48.70446" lon="1.76549">
        <ele>180.80000305176</ele>
        <time>2014-07-29T07:39:32.000Z</time>
      </trkpt>
      <trkpt lat="48.70446" lon="1.76562">
        <ele>180.60000610352</ele>
        <time>2014-07-29T07:39:39.000Z</time>
      </trkpt>
      <trkpt lat="48.70445" lon="1.76568">
        <ele>180.60000610352</ele>
        <time>2014-07-29T07:39:43.000Z</time>
      </trkpt>
      <trkpt lat="48.70442" lon="1.76578">
        <ele>180.80000305176</ele>
        <time>2014-07-29T07:39:50.000Z</time>
      </trkpt>
      <trkpt lat="48.7044" lon="1.76582">
        <ele>180.80000305176</ele>
        <time>2014-07-29T07:39:55.000Z</time>
      </trkpt>
      <trkpt lat="48.70439" lon="1.76587">
        <ele>180.80000305176</ele>
        <time>2014-07-29T07:39:59.000Z</time>
      </trkpt>
      <trkpt lat="48.70436" lon="1.76588">
        <ele>180.80000305176</ele>
        <time>2014-07-29T07:40:02.000Z</time>
      </trkpt>
      <trkpt lat="48.7043" lon="1.76587">
        <ele>180.60000610352</ele>
        <time>2014-07-29T07:40:05.000Z</time>
      </trkpt>
      <trkpt lat="48.70427" lon="1.76591">
        <ele>180.39999389648</ele>
        <time>2014-07-29T07:40:08.000Z</time>
      </trkpt>
      <trkpt lat="48.70426" lon="1.76591">
        <ele>180.39999389648</ele>
        <time>2014-07-29T07:40:10.000Z</time>
      </trkpt>
      <trkpt lat="48.70423" lon="1.76592">
        <ele>180.19999694824</ele>
        <time>2014-07-29T07:40:12.000Z</time>
      </trkpt>
      <trkpt lat="48.70417" lon="1.76592">
        <ele>180</ele>
        <time>2014-07-29T07:40:17.000Z</time>
      </trkpt>
      <trkpt lat="48.70413" lon="1.76595">
        <ele>179.80000305176</ele>
        <time>2014-07-29T07:40:22.000Z</time>
      </trkpt>
      <trkpt lat="48.70408" lon="1.76597">
        <ele>179.60000610352</ele>
        <time>2014-07-29T07:40:26.000Z</time>
      </trkpt>
      <trkpt lat="48.70401" lon="1.76601">
        <ele>179.39999389648</ele>
        <time>2014-07-29T07:40:33.000Z</time>
      </trkpt>
      <trkpt lat="48.704" lon="1.76601">
        <ele>179.39999389648</ele>
        <time>2014-07-29T07:40:34.000Z</time>
      </trkpt>
      <trkpt lat="48.70395" lon="1.76602">
        <ele>179.19999694824</ele>
        <time>2014-07-29T07:40:39.000Z</time>
      </trkpt>
      <trkpt lat="48.70394" lon="1.76602">
        <ele>179</ele>
        <time>2014-07-29T07:40:42.000Z</time>
      </trkpt>
      <trkpt lat="48.7039" lon="1.76608">
        <ele>178.80000305176</ele>
        <time>2014-07-29T07:40:48.000Z</time>
      </trkpt>
      <trkpt lat="48.70389" lon="1.76607">
        <ele>178.80000305176</ele>
        <time>2014-07-29T07:40:49.000Z</time>
      </trkpt>
      <trkpt lat="48.70379" lon="1.76613">
        <ele>178.60000610352</ele>
        <time>2014-07-29T07:40:55.000Z</time>
      </trkpt>
      <trkpt lat="48.70371" lon="1.76616">
        <ele>178.39999389648</ele>
        <time>2014-07-29T07:41:00.000Z</time>
      </trkpt>
      <trkpt lat="48.7036" lon="1.7662">
        <ele>178.19999694824</ele>
        <time>2014-07-29T07:41:07.000Z</time>
      </trkpt>
      <trkpt lat="48.70359" lon="1.76621">
        <ele>178.19999694824</ele>
        <time>2014-07-29T07:41:08.000Z</time>
      </trkpt>
      <trkpt lat="48.70353" lon="1.76625">
        <ele>178</ele>
        <time>2014-07-29T07:41:14.000Z</time>
      </trkpt>
      <trkpt lat="48.70352" lon="1.76625">
        <ele>178</ele>
        <time>2014-07-29T07:41:17.000Z</time>
      </trkpt>
      <trkpt lat="48.70348" lon="1.76629">
        <ele>178.19999694824</ele>
        <time>2014-07-29T07:41:23.000Z</time>
      </trkpt>
      <trkpt lat="48.70348" lon="1.7663">
        <ele>178.19999694824</ele>
        <time>2014-07-29T07:41:24.000Z</time>
      </trkpt>
      <trkpt lat="48.70346" lon="1.76633">
        <ele>178.19999694824</ele>
        <time>2014-07-29T07:41:28.000Z</time>
      </trkpt>
      <trkpt lat="48.70342" lon="1.76636">
        <ele>178.19999694824</ele>
        <time>2014-07-29T07:41:32.000Z</time>
      </trkpt>
      <trkpt lat="48.70338" lon="1.76632">
        <ele>178.39999389648</ele>
        <time>2014-07-29T07:41:38.000Z</time>
      </trkpt>
      <trkpt lat="48.70338" lon="1.76632">
        <ele>178.39999389648</ele>
        <time>2014-07-29T07:41:42.000Z</time>
      </trkpt>
      <trkpt lat="48.70339" lon="1.76638">
        <ele>178.39999389648</ele>
        <time>2014-07-29T07:43:26.000Z</time>
      </trkpt>
      <trkpt lat="48.7033" lon="1.76643">
        <ele>178.60000610352</ele>
        <time>2014-07-29T07:43:31.000Z</time>
      </trkpt>
      <trkpt lat="48.70323" lon="1.76647">
        <ele>178.80000305176</ele>
        <time>2014-07-29T07:43:38.000Z</time>
      </trkpt>
      <trkpt lat="48.70321" lon="1.76657">
        <ele>178.80000305176</ele>
        <time>2014-07-29T07:43:44.000Z</time>
      </trkpt>
      <trkpt lat="48.70323" lon="1.76667">
        <ele>178.80000305176</ele>
        <time>2014-07-29T07:43:49.000Z</time>
      </trkpt>
      <trkpt lat="48.70324" lon="1.7668">
        <ele>178.80000305176</ele>
        <time>2014-07-29T07:43:56.000Z</time>
      </trkpt>
      <trkpt lat="48.70325" lon="1.76686">
        <ele>178.60000610352</ele>
        <time>2014-07-29T07:44:00.000Z</time>
      </trkpt>
      <trkpt lat="48.70328" lon="1.76703">
        <ele>178.60000610352</ele>
        <time>2014-07-29T07:44:09.000Z</time>
      </trkpt>
      <trkpt lat="48.70329" lon="1.76712">
        <ele>178.60000610352</ele>
        <time>2014-07-29T07:44:13.000Z</time>
      </trkpt>
      <trkpt lat="48.7033" lon="1.76727">
        <ele>178.60000610352</ele>
        <time>2014-07-29T07:44:21.000Z</time>
      </trkpt>
      <trkpt lat="48.7033" lon="1.76739">
        <ele>178.60000610352</ele>
        <time>2014-07-29T07:44:27.000Z</time>
      </trkpt>
      <trkpt lat="48.70329" lon="1.76746">
        <ele>178.60000610352</ele>
        <time>2014-07-29T07:44:33.000Z</time>
      </trkpt>
      <trkpt lat="48.70328" lon="1.76747">
        <ele>178.80000305176</ele>
        <time>2014-07-29T07:44:36.000Z</time>
      </trkpt>
      <trkpt lat="48.70331" lon="1.76822">
        <ele>179</ele>
        <time>2014-07-29T07:45:31.000Z</time>
      </trkpt>
      <trkpt lat="48.70332" lon="1.76842">
        <ele>179.19999694824</ele>
        <time>2014-07-29T07:45:41.000Z</time>
      </trkpt>
      <trkpt lat="48.70331" lon="1.76856">
        <ele>179.39999389648</ele>
        <time>2014-07-29T07:45:49.000Z</time>
      </trkpt>
      <trkpt lat="48.70332" lon="1.76866">
        <ele>179.60000610352</ele>
        <time>2014-07-29T07:45:54.000Z</time>
      </trkpt>
      <trkpt lat="48.70333" lon="1.76879">
        <ele>179.60000610352</ele>
        <time>2014-07-29T07:46:00.000Z</time>
      </trkpt>
      <trkpt lat="48.70333" lon="1.76882">
        <ele>179.80000305176</ele>
        <time>2014-07-29T07:46:02.000Z</time>
      </trkpt>
      <trkpt lat="48.70333" lon="1.76892">
        <ele>180</ele>
        <time>2014-07-29T07:46:07.000Z</time>
      </trkpt>
      <trkpt lat="48.70332" lon="1.76899">
        <ele>180.19999694824</ele>
        <time>2014-07-29T07:46:13.000Z</time>
      </trkpt>
      <trkpt lat="48.70333" lon="1.76899">
        <ele>180.19999694824</ele>
        <time>2014-07-29T07:46:14.000Z</time>
      </trkpt>
      <trkpt lat="48.70334" lon="1.76911">
        <ele>180.39999389648</ele>
        <time>2014-07-29T07:46:25.000Z</time>
      </trkpt>
      <trkpt lat="48.70334" lon="1.76924">
        <ele>180.80000305176</ele>
        <time>2014-07-29T07:46:31.000Z</time>
      </trkpt>
      <trkpt lat="48.70334" lon="1.76925">
        <ele>180.80000305176</ele>
        <time>2014-07-29T07:46:32.000Z</time>
      </trkpt>
      <trkpt lat="48.70336" lon="1.76934">
        <ele>181</ele>
        <time>2014-07-29T07:46:38.000Z</time>
      </trkpt>
      <trkpt lat="48.70335" lon="1.76945">
        <ele>181.19999694824</ele>
        <time>2014-07-29T07:46:44.000Z</time>
      </trkpt>
      <trkpt lat="48.70335" lon="1.76948">
        <ele>181.19999694824</ele>
        <time>2014-07-29T07:46:46.000Z</time>
      </trkpt>
      <trkpt lat="48.70335" lon="1.76951">
        <ele>181.39999389648</ele>
        <time>2014-07-29T07:46:50.000Z</time>
      </trkpt>
      <trkpt lat="48.70338" lon="1.76978">
        <ele>182</ele>
        <time>2014-07-29T07:47:17.000Z</time>
      </trkpt>
      <trkpt lat="48.70339" lon="1.76985">
        <ele>182.19999694824</ele>
        <time>2014-07-29T07:47:21.000Z</time>
      </trkpt>
      <trkpt lat="48.7034" lon="1.76996">
        <ele>182.19999694824</ele>
        <time>2014-07-29T07:47:28.000Z</time>
      </trkpt>
      <trkpt lat="48.70341" lon="1.77008">
        <ele>182.19999694824</ele>
        <time>2014-07-29T07:47:35.000Z</time>
      </trkpt>
      <trkpt lat="48.70342" lon="1.77023">
        <ele>182.19999694824</ele>
        <time>2014-07-29T07:47:42.000Z</time>
      </trkpt>
      <trkpt lat="48.70343" lon="1.77034">
        <ele>182.19999694824</ele>
        <time>2014-07-29T07:47:48.000Z</time>
      </trkpt>
      <trkpt lat="48.70346" lon="1.77043">
        <ele>182</ele>
        <time>2014-07-29T07:47:55.000Z</time>
      </trkpt>
      <trkpt lat="48.70346" lon="1.77045">
        <ele>182</ele>
        <time>2014-07-29T07:47:56.000Z</time>
      </trkpt>
      <trkpt lat="48.70345" lon="1.77055">
        <ele>182.19999694824</ele>
        <time>2014-07-29T07:48:02.000Z</time>
      </trkpt>
      <trkpt lat="48.70347" lon="1.77075">
        <ele>182.19999694824</ele>
        <time>2014-07-29T07:48:13.000Z</time>
      </trkpt>
      <trkpt lat="48.70346" lon="1.77093">
        <ele>182.19999694824</ele>
        <time>2014-07-29T07:48:22.000Z</time>
      </trkpt>
      <trkpt lat="48.70346" lon="1.77112">
        <ele>182.19999694824</ele>
        <time>2014-07-29T07:48:30.000Z</time>
      </trkpt>
      <trkpt lat="48.70347" lon="1.77121">
        <ele>182.19999694824</ele>
        <time>2014-07-29T07:48:36.000Z</time>
      </trkpt>
      <trkpt lat="48.70348" lon="1.77122">
        <ele>182.19999694824</ele>
        <time>2014-07-29T07:48:39.000Z</time>
      </trkpt>
      <trkpt lat="48.70348" lon="1.77126">
        <ele>182.19999694824</ele>
        <time>2014-07-29T07:48:42.000Z</time>
      </trkpt>
      <trkpt lat="48.7035" lon="1.77143">
        <ele>182</ele>
        <time>2014-07-29T07:48:49.000Z</time>
      </trkpt>
      <trkpt lat="48.70352" lon="1.77159">
        <ele>182</ele>
        <time>2014-07-29T07:48:58.000Z</time>
      </trkpt>
      <trkpt lat="48.70352" lon="1.77161">
        <ele>181.80000305176</ele>
        <time>2014-07-29T07:49:02.000Z</time>
      </trkpt>
      <trkpt lat="48.70356" lon="1.7718">
        <ele>181.39999389648</ele>
        <time>2014-07-29T07:49:19.000Z</time>
      </trkpt>
      <trkpt lat="48.70358" lon="1.77191">
        <ele>181.19999694824</ele>
        <time>2014-07-29T07:49:25.000Z</time>
      </trkpt>
      <trkpt lat="48.7036" lon="1.77202">
        <ele>181</ele>
        <time>2014-07-29T07:49:32.000Z</time>
      </trkpt>
      <trkpt lat="48.70362" lon="1.77213">
        <ele>180.60000610352</ele>
        <time>2014-07-29T07:49:38.000Z</time>
      </trkpt>
      <trkpt lat="48.70364" lon="1.77229">
        <ele>180.39999389648</ele>
        <time>2014-07-29T07:49:46.000Z</time>
      </trkpt>
      <trkpt lat="48.70365" lon="1.77242">
        <ele>180.19999694824</ele>
        <time>2014-07-29T07:49:53.000Z</time>
      </trkpt>
      <trkpt lat="48.70366" lon="1.77255">
        <ele>180.60000610352</ele>
        <time>2014-07-29T07:50:00.000Z</time>
      </trkpt>
      <trkpt lat="48.70368" lon="1.77267">
        <ele>180.60000610352</ele>
        <time>2014-07-29T07:50:07.000Z</time>
      </trkpt>
      <trkpt lat="48.70371" lon="1.77276">
        <ele>180.80000305176</ele>
        <time>2014-07-29T07:50:13.000Z</time>
      </trkpt>
      <trkpt lat="48.70372" lon="1.77282">
        <ele>181</ele>
        <time>2014-07-29T07:50:17.000Z</time>
      </trkpt>
      <trkpt lat="48.70375" lon="1.77286">
        <ele>181.19999694824</ele>
        <time>2014-07-29T07:50:20.000Z</time>
      </trkpt>
      <trkpt lat="48.70378" lon="1.77287">
        <ele>181.19999694824</ele>
        <time>2014-07-29T07:50:22.000Z</time>
      </trkpt>
      <trkpt lat="48.70383" lon="1.77281">
        <ele>181.19999694824</ele>
        <time>2014-07-29T07:50:28.000Z</time>
      </trkpt>
      <trkpt lat="48.70387" lon="1.77276">
        <ele>181.19999694824</ele>
        <time>2014-07-29T07:50:32.000Z</time>
      </trkpt>
      <trkpt lat="48.70393" lon="1.77271">
        <ele>181.19999694824</ele>
        <time>2014-07-29T07:50:38.000Z</time>
      </trkpt>
      <trkpt lat="48.70396" lon="1.77268">
        <ele>181.19999694824</ele>
        <time>2014-07-29T07:50:41.000Z</time>
      </trkpt>
      <trkpt lat="48.70402" lon="1.77263">
        <ele>181.19999694824</ele>
        <time>2014-07-29T07:50:48.000Z</time>
      </trkpt>
      <trkpt lat="48.70409" lon="1.77257">
        <ele>181.19999694824</ele>
        <time>2014-07-29T07:50:54.000Z</time>
      </trkpt>
      <trkpt lat="48.70418" lon="1.77251">
        <ele>181</ele>
        <time>2014-07-29T07:51:02.000Z</time>
      </trkpt>
      <trkpt lat="48.70422" lon="1.77248">
        <ele>181</ele>
        <time>2014-07-29T07:51:05.000Z</time>
      </trkpt>
      <trkpt lat="48.70427" lon="1.77243">
        <ele>181</ele>
        <time>2014-07-29T07:51:10.000Z</time>
      </trkpt>
      <trkpt lat="48.70435" lon="1.7724">
        <ele>181</ele>
        <time>2014-07-29T07:51:16.000Z</time>
      </trkpt>
      <trkpt lat="48.70444" lon="1.77236">
        <ele>181</ele>
        <time>2014-07-29T07:51:23.000Z</time>
      </trkpt>
      <trkpt lat="48.70456" lon="1.77233">
        <ele>181.19999694824</ele>
        <time>2014-07-29T07:51:32.000Z</time>
      </trkpt>
      <trkpt lat="48.70465" lon="1.77233">
        <ele>181.19999694824</ele>
        <time>2014-07-29T07:51:38.000Z</time>
      </trkpt>
      <trkpt lat="48.70474" lon="1.77235">
        <ele>181.39999389648</ele>
        <time>2014-07-29T07:51:46.000Z</time>
      </trkpt>
      <trkpt lat="48.70478" lon="1.77236">
        <ele>181.39999389648</ele>
        <time>2014-07-29T07:51:49.000Z</time>
      </trkpt>
      <trkpt lat="48.70486" lon="1.77238">
        <ele>181.60000610352</ele>
        <time>2014-07-29T07:51:57.000Z</time>
      </trkpt>
      <trkpt lat="48.70492" lon="1.7724">
        <ele>181.80000305176</ele>
        <time>2014-07-29T07:52:03.000Z</time>
      </trkpt>
      <trkpt lat="48.70495" lon="1.77241">
        <ele>181.80000305176</ele>
        <time>2014-07-29T07:52:05.000Z</time>
      </trkpt>
      <trkpt lat="48.70501" lon="1.77239">
        <ele>181.80000305176</ele>
        <time>2014-07-29T07:52:11.000Z</time>
      </trkpt>
      <trkpt lat="48.70511" lon="1.7724">
        <ele>182</ele>
        <time>2014-07-29T07:52:19.000Z</time>
      </trkpt>
      <trkpt lat="48.70518" lon="1.77241">
        <ele>182</ele>
        <time>2014-07-29T07:52:24.000Z</time>
      </trkpt>
      <trkpt lat="48.70523" lon="1.77241">
        <ele>182</ele>
        <time>2014-07-29T07:52:28.000Z</time>
      </trkpt>
      <trkpt lat="48.70526" lon="1.77241">
        <ele>182</ele>
        <time>2014-07-29T07:52:30.000Z</time>
      </trkpt>
      <trkpt lat="48.70533" lon="1.77243">
        <ele>181.80000305176</ele>
        <time>2014-07-29T07:52:37.000Z</time>
      </trkpt>
      <trkpt lat="48.70544" lon="1.7724">
        <ele>181.80000305176</ele>
        <time>2014-07-29T07:52:44.000Z</time>
      </trkpt>
      <trkpt lat="48.70549" lon="1.7724">
        <ele>181.60000610352</ele>
        <time>2014-07-29T07:52:47.000Z</time>
      </trkpt>
      <trkpt lat="48.70552" lon="1.7724">
        <ele>181.60000610352</ele>
        <time>2014-07-29T07:52:50.000Z</time>
      </trkpt>
      <trkpt lat="48.70561" lon="1.77241">
        <ele>181.60000610352</ele>
        <time>2014-07-29T07:52:57.000Z</time>
      </trkpt>
      <trkpt lat="48.70569" lon="1.7724">
        <ele>181.39999389648</ele>
        <time>2014-07-29T07:53:04.000Z</time>
      </trkpt>
      <trkpt lat="48.70577" lon="1.7724">
        <ele>181.39999389648</ele>
        <time>2014-07-29T07:53:10.000Z</time>
      </trkpt>
      <trkpt lat="48.70587" lon="1.77244">
        <ele>181.19999694824</ele>
        <time>2014-07-29T07:53:18.000Z</time>
      </trkpt>
      <trkpt lat="48.70595" lon="1.77242">
        <ele>181.19999694824</ele>
        <time>2014-07-29T07:53:24.000Z</time>
      </trkpt>
      <trkpt lat="48.70602" lon="1.77245">
        <ele>181</ele>
        <time>2014-07-29T07:53:30.000Z</time>
      </trkpt>
      <trkpt lat="48.70612" lon="1.77247">
        <ele>180.80000305176</ele>
        <time>2014-07-29T07:53:38.000Z</time>
      </trkpt>
      <trkpt lat="48.70612" lon="1.77247">
        <ele>180.80000305176</ele>
        <time>2014-07-29T07:53:39.000Z</time>
      </trkpt>
      <trkpt lat="48.70623" lon="1.7725">
        <ele>180.39999389648</ele>
        <time>2014-07-29T07:53:48.000Z</time>
      </trkpt>
      <trkpt lat="48.70634" lon="1.77254">
        <ele>180</ele>
        <time>2014-07-29T07:53:57.000Z</time>
      </trkpt>
      <trkpt lat="48.70636" lon="1.77254">
        <ele>179.80000305176</ele>
        <time>2014-07-29T07:53:59.000Z</time>
      </trkpt>
      <trkpt lat="48.70643" lon="1.77255">
        <ele>179.60000610352</ele>
        <time>2014-07-29T07:54:05.000Z</time>
      </trkpt>
      <trkpt lat="48.70648" lon="1.77255">
        <ele>179.19999694824</ele>
        <time>2014-07-29T07:54:09.000Z</time>
      </trkpt>
      <trkpt lat="48.70656" lon="1.77256">
        <ele>179</ele>
        <time>2014-07-29T07:54:15.000Z</time>
      </trkpt>
      <trkpt lat="48.70665" lon="1.77259">
        <ele>178.60000610352</ele>
        <time>2014-07-29T07:54:22.000Z</time>
      </trkpt>
      <trkpt lat="48.70671" lon="1.7726">
        <ele>178.19999694824</ele>
        <time>2014-07-29T07:54:27.000Z</time>
      </trkpt>
      <trkpt lat="48.70677" lon="1.77263">
        <ele>178</ele>
        <time>2014-07-29T07:54:32.000Z</time>
      </trkpt>
      <trkpt lat="48.70688" lon="1.7726">
        <ele>177.39999389648</ele>
        <time>2014-07-29T07:54:41.000Z</time>
      </trkpt>
      <trkpt lat="48.70696" lon="1.77262">
        <ele>177.19999694824</ele>
        <time>2014-07-29T07:54:48.000Z</time>
      </trkpt>
      <trkpt lat="48.70697" lon="1.77262">
        <ele>177.19999694824</ele>
        <time>2014-07-29T07:54:50.000Z</time>
      </trkpt>
      <trkpt lat="48.70703" lon="1.77261">
        <ele>177</ele>
        <time>2014-07-29T07:54:54.000Z</time>
      </trkpt>
      <trkpt lat="48.70707" lon="1.77261">
        <ele>176.80000305176</ele>
        <time>2014-07-29T07:54:57.000Z</time>
      </trkpt>
      <trkpt lat="48.70713" lon="1.77261">
        <ele>176.60000610352</ele>
        <time>2014-07-29T07:55:03.000Z</time>
      </trkpt>
      <trkpt lat="48.70716" lon="1.77261">
        <ele>176.60000610352</ele>
        <time>2014-07-29T07:55:05.000Z</time>
      </trkpt>
      <trkpt lat="48.70726" lon="1.77261">
        <ele>176.60000610352</ele>
        <time>2014-07-29T07:55:13.000Z</time>
      </trkpt>
      <trkpt lat="48.70734" lon="1.77261">
        <ele>176.39999389648</ele>
        <time>2014-07-29T07:55:19.000Z</time>
      </trkpt>
      <trkpt lat="48.70736" lon="1.77261">
        <ele>176.39999389648</ele>
        <time>2014-07-29T07:55:20.000Z</time>
      </trkpt>
      <trkpt lat="48.70742" lon="1.77259">
        <ele>176.39999389648</ele>
        <time>2014-07-29T07:55:25.000Z</time>
      </trkpt>
      <trkpt lat="48.70749" lon="1.77257">
        <ele>176.19999694824</ele>
        <time>2014-07-29T07:55:31.000Z</time>
      </trkpt>
      <trkpt lat="48.70756" lon="1.77255">
        <ele>176.19999694824</ele>
        <time>2014-07-29T07:55:37.000Z</time>
      </trkpt>
      <trkpt lat="48.70763" lon="1.77256">
        <ele>176</ele>
        <time>2014-07-29T07:55:43.000Z</time>
      </trkpt>
      <trkpt lat="48.7077" lon="1.77255">
        <ele>176</ele>
        <time>2014-07-29T07:55:49.000Z</time>
      </trkpt>
      <trkpt lat="48.70779" lon="1.77254">
        <ele>176.19999694824</ele>
        <time>2014-07-29T07:55:56.000Z</time>
      </trkpt>
      <trkpt lat="48.70785" lon="1.77253">
        <ele>176.19999694824</ele>
        <time>2014-07-29T07:56:00.000Z</time>
      </trkpt>
      <trkpt lat="48.70792" lon="1.77252">
        <ele>176.19999694824</ele>
        <time>2014-07-29T07:56:05.000Z</time>
      </trkpt>
      <trkpt lat="48.70796" lon="1.77252">
        <ele>176.19999694824</ele>
        <time>2014-07-29T07:56:10.000Z</time>
      </trkpt>
      <trkpt lat="48.70802" lon="1.77254">
        <ele>176.19999694824</ele>
        <time>2014-07-29T07:56:15.000Z</time>
      </trkpt>
      <trkpt lat="48.70803" lon="1.77254">
        <ele>176.19999694824</ele>
        <time>2014-07-29T07:56:16.000Z</time>
      </trkpt>
      <trkpt lat="48.70814" lon="1.77252">
        <ele>176.19999694824</ele>
        <time>2014-07-29T07:56:24.000Z</time>
      </trkpt>
      <trkpt lat="48.70821" lon="1.77253">
        <ele>176.19999694824</ele>
        <time>2014-07-29T07:56:29.000Z</time>
      </trkpt>
      <trkpt lat="48.70826" lon="1.7725">
        <ele>176.19999694824</ele>
        <time>2014-07-29T07:56:34.000Z</time>
      </trkpt>
      <trkpt lat="48.70838" lon="1.77249">
        <ele>176.19999694824</ele>
        <time>2014-07-29T07:56:42.000Z</time>
      </trkpt>
      <trkpt lat="48.7085" lon="1.77251">
        <ele>176.19999694824</ele>
        <time>2014-07-29T07:56:51.000Z</time>
      </trkpt>
      <trkpt lat="48.70855" lon="1.77251">
        <ele>176.19999694824</ele>
        <time>2014-07-29T07:56:55.000Z</time>
      </trkpt>
      <trkpt lat="48.70861" lon="1.77249">
        <ele>176.19999694824</ele>
        <time>2014-07-29T07:57:00.000Z</time>
      </trkpt>
      <trkpt lat="48.70868" lon="1.77251">
        <ele>176.39999389648</ele>
        <time>2014-07-29T07:57:06.000Z</time>
      </trkpt>
      <trkpt lat="48.70874" lon="1.77253">
        <ele>176.39999389648</ele>
        <time>2014-07-29T07:57:12.000Z</time>
      </trkpt>
      <trkpt lat="48.7088" lon="1.77262">
        <ele>176.60000610352</ele>
        <time>2014-07-29T07:57:18.000Z</time>
      </trkpt>
      <trkpt lat="48.70886" lon="1.77276">
        <ele>176.80000305176</ele>
        <time>2014-07-29T07:57:25.000Z</time>
      </trkpt>
      <trkpt lat="48.70889" lon="1.77284">
        <ele>177</ele>
        <time>2014-07-29T07:57:29.000Z</time>
      </trkpt>
      <trkpt lat="48.70893" lon="1.77293">
        <ele>177.19999694824</ele>
        <time>2014-07-29T07:57:34.000Z</time>
      </trkpt>
      <trkpt lat="48.70898" lon="1.77309">
        <ele>177.39999389648</ele>
        <time>2014-07-29T07:57:42.000Z</time>
      </trkpt>
      <trkpt lat="48.70898" lon="1.7731">
        <ele>177.39999389648</ele>
        <time>2014-07-29T07:57:43.000Z</time>
      </trkpt>
      <trkpt lat="48.70901" lon="1.77318">
        <ele>177.60000610352</ele>
        <time>2014-07-29T07:57:48.000Z</time>
      </trkpt>
      <trkpt lat="48.70904" lon="1.77326">
        <ele>177.39999389648</ele>
        <time>2014-07-29T07:57:52.000Z</time>
      </trkpt>
      <trkpt lat="48.70906" lon="1.7733">
        <ele>177.19999694824</ele>
        <time>2014-07-29T07:57:58.000Z</time>
      </trkpt>
      <trkpt lat="48.70923" lon="1.7737">
        <ele>176</ele>
        <time>2014-07-29T08:00:08.000Z</time>
      </trkpt>
      <trkpt lat="48.70929" lon="1.77381">
        <ele>175.80000305176</ele>
        <time>2014-07-29T08:00:14.000Z</time>
      </trkpt>
      <trkpt lat="48.70931" lon="1.77384">
        <ele>175.60000610352</ele>
        <time>2014-07-29T08:00:16.000Z</time>
      </trkpt>
      <trkpt lat="48.70932" lon="1.77387">
        <ele>175.60000610352</ele>
        <time>2014-07-29T08:00:18.000Z</time>
      </trkpt>
      <trkpt lat="48.70936" lon="1.77394">
        <ele>175.39999389648</ele>
        <time>2014-07-29T08:00:23.000Z</time>
      </trkpt>
      <trkpt lat="48.70942" lon="1.77402">
        <ele>175.19999694824</ele>
        <time>2014-07-29T08:00:30.000Z</time>
      </trkpt>
      <trkpt lat="48.70947" lon="1.77411">
        <ele>175</ele>
        <time>2014-07-29T08:00:35.000Z</time>
      </trkpt>
      <trkpt lat="48.70951" lon="1.7742">
        <ele>174.80000305176</ele>
        <time>2014-07-29T08:00:40.000Z</time>
      </trkpt>
      <trkpt lat="48.70956" lon="1.77428">
        <ele>174.80000305176</ele>
        <time>2014-07-29T08:00:47.000Z</time>
      </trkpt>
      <trkpt lat="48.70958" lon="1.77433">
        <ele>174.60000610352</ele>
        <time>2014-07-29T08:00:50.000Z</time>
      </trkpt>
      <trkpt lat="48.70965" lon="1.77448">
        <ele>174.39999389648</ele>
        <time>2014-07-29T08:00:59.000Z</time>
      </trkpt>
      <trkpt lat="48.70969" lon="1.77457">
        <ele>174.39999389648</ele>
        <time>2014-07-29T08:01:05.000Z</time>
      </trkpt>
      <trkpt lat="48.70976" lon="1.77469">
        <ele>174.19999694824</ele>
        <time>2014-07-29T08:01:13.000Z</time>
      </trkpt>
      <trkpt lat="48.70978" lon="1.77477">
        <ele>174.19999694824</ele>
        <time>2014-07-29T08:01:18.000Z</time>
      </trkpt>
      <trkpt lat="48.70984" lon="1.7749">
        <ele>174</ele>
        <time>2014-07-29T08:01:26.000Z</time>
      </trkpt>
      <trkpt lat="48.70986" lon="1.77493">
        <ele>173.80000305176</ele>
        <time>2014-07-29T08:01:28.000Z</time>
      </trkpt>
      <trkpt lat="48.70992" lon="1.77501">
        <ele>173.60000610352</ele>
        <time>2014-07-29T08:01:34.000Z</time>
      </trkpt>
      <trkpt lat="48.70996" lon="1.77507">
        <ele>173.60000610352</ele>
        <time>2014-07-29T08:01:38.000Z</time>
      </trkpt>
      <trkpt lat="48.71001" lon="1.77519">
        <ele>173.19999694824</ele>
        <time>2014-07-29T08:01:45.000Z</time>
      </trkpt>
      <trkpt lat="48.71003" lon="1.77528">
        <ele>173</ele>
        <time>2014-07-29T08:01:49.000Z</time>
      </trkpt>
      <trkpt lat="48.7101" lon="1.77539">
        <ele>172.80000305176</ele>
        <time>2014-07-29T08:01:58.000Z</time>
      </trkpt>
      <trkpt lat="48.71013" lon="1.77553">
        <ele>172.39999389648</ele>
        <time>2014-07-29T08:02:05.000Z</time>
      </trkpt>
      <trkpt lat="48.71018" lon="1.77559">
        <ele>172.19999694824</ele>
        <time>2014-07-29T08:02:10.000Z</time>
      </trkpt>
      <trkpt lat="48.71021" lon="1.7757">
        <ele>172</ele>
        <time>2014-07-29T08:02:16.000Z</time>
      </trkpt>
      <trkpt lat="48.71026" lon="1.77584">
        <ele>171.80000305176</ele>
        <time>2014-07-29T08:02:25.000Z</time>
      </trkpt>
      <trkpt lat="48.71031" lon="1.77597">
        <ele>171.80000305176</ele>
        <time>2014-07-29T08:02:32.000Z</time>
      </trkpt>
      <trkpt lat="48.71034" lon="1.77606">
        <ele>171.60000610352</ele>
        <time>2014-07-29T08:02:37.000Z</time>
      </trkpt>
      <trkpt lat="48.71039" lon="1.77618">
        <ele>171.60000610352</ele>
        <time>2014-07-29T08:02:44.000Z</time>
      </trkpt>
      <trkpt lat="48.71039" lon="1.7762">
        <ele>171.60000610352</ele>
        <time>2014-07-29T08:02:45.000Z</time>
      </trkpt>
      <trkpt lat="48.71044" lon="1.77632">
        <ele>171.39999389648</ele>
        <time>2014-07-29T08:02:51.000Z</time>
      </trkpt>
      <trkpt lat="48.71049" lon="1.77643">
        <ele>171.39999389648</ele>
        <time>2014-07-29T08:02:58.000Z</time>
      </trkpt>
      <trkpt lat="48.71055" lon="1.77657">
        <ele>171.19999694824</ele>
        <time>2014-07-29T08:03:07.000Z</time>
      </trkpt>
      <trkpt lat="48.71059" lon="1.77667">
        <ele>171</ele>
        <time>2014-07-29T08:03:13.000Z</time>
      </trkpt>
      <trkpt lat="48.71065" lon="1.77679">
        <ele>170.60000610352</ele>
        <time>2014-07-29T08:03:20.000Z</time>
      </trkpt>
      <trkpt lat="48.71069" lon="1.77693">
        <ele>170.39999389648</ele>
        <time>2014-07-29T08:03:27.000Z</time>
      </trkpt>
      <trkpt lat="48.71074" lon="1.77704">
        <ele>170</ele>
        <time>2014-07-29T08:03:34.000Z</time>
      </trkpt>
      <trkpt lat="48.71081" lon="1.77713">
        <ele>169.80000305176</ele>
        <time>2014-07-29T08:03:40.000Z</time>
      </trkpt>
      <trkpt lat="48.71085" lon="1.77722">
        <ele>169.60000610352</ele>
        <time>2014-07-29T08:03:46.000Z</time>
      </trkpt>
      <trkpt lat="48.71087" lon="1.77729">
        <ele>169.60000610352</ele>
        <time>2014-07-29T08:03:50.000Z</time>
      </trkpt>
      <trkpt lat="48.71089" lon="1.77741">
        <ele>169.39999389648</ele>
        <time>2014-07-29T08:03:58.000Z</time>
      </trkpt>
      <trkpt lat="48.71094" lon="1.77751">
        <ele>169.39999389648</ele>
        <time>2014-07-29T08:04:05.000Z</time>
      </trkpt>
      <trkpt lat="48.71099" lon="1.7777">
        <ele>169.60000610352</ele>
        <time>2014-07-29T08:04:13.000Z</time>
      </trkpt>
      <trkpt lat="48.711" lon="1.77774">
        <ele>169.60000610352</ele>
        <time>2014-07-29T08:04:15.000Z</time>
      </trkpt>
      <trkpt lat="48.71104" lon="1.77784">
        <ele>169.60000610352</ele>
        <time>2014-07-29T08:04:21.000Z</time>
      </trkpt>
      <trkpt lat="48.71105" lon="1.77794">
        <ele>169.60000610352</ele>
        <time>2014-07-29T08:04:28.000Z</time>
      </trkpt>
      <trkpt lat="48.71105" lon="1.77807">
        <ele>169.80000305176</ele>
        <time>2014-07-29T08:04:35.000Z</time>
      </trkpt>
      <trkpt lat="48.71108" lon="1.77815">
        <ele>170</ele>
        <time>2014-07-29T08:04:40.000Z</time>
      </trkpt>
      <trkpt lat="48.7111" lon="1.77827">
        <ele>170.19999694824</ele>
        <time>2014-07-29T08:04:47.000Z</time>
      </trkpt>
      <trkpt lat="48.71113" lon="1.77834">
        <ele>170.19999694824</ele>
        <time>2014-07-29T08:04:51.000Z</time>
      </trkpt>
      <trkpt lat="48.71119" lon="1.77844">
        <ele>170.19999694824</ele>
        <time>2014-07-29T08:04:56.000Z</time>
      </trkpt>
      <trkpt lat="48.71121" lon="1.77857">
        <ele>170.19999694824</ele>
        <time>2014-07-29T08:05:03.000Z</time>
      </trkpt>
      <trkpt lat="48.71121" lon="1.77862">
        <ele>170.19999694824</ele>
        <time>2014-07-29T08:05:05.000Z</time>
      </trkpt>
      <trkpt lat="48.71123" lon="1.77875">
        <ele>170</ele>
        <time>2014-07-29T08:05:12.000Z</time>
      </trkpt>
      <trkpt lat="48.71129" lon="1.77892">
        <ele>170</ele>
        <time>2014-07-29T08:05:21.000Z</time>
      </trkpt>
      <trkpt lat="48.71131" lon="1.77902">
        <ele>170</ele>
        <time>2014-07-29T08:05:27.000Z</time>
      </trkpt>
      <trkpt lat="48.71132" lon="1.77915">
        <ele>170</ele>
        <time>2014-07-29T08:05:35.000Z</time>
      </trkpt>
      <trkpt lat="48.71135" lon="1.77929">
        <ele>169.80000305176</ele>
        <time>2014-07-29T08:05:41.000Z</time>
      </trkpt>
      <trkpt lat="48.71138" lon="1.7794">
        <ele>169.80000305176</ele>
        <time>2014-07-29T08:05:47.000Z</time>
      </trkpt>
      <trkpt lat="48.71142" lon="1.77947">
        <ele>170</ele>
        <time>2014-07-29T08:05:52.000Z</time>
      </trkpt>
      <trkpt lat="48.71143" lon="1.77954">
        <ele>170.39999389648</ele>
        <time>2014-07-29T08:05:57.000Z</time>
      </trkpt>
      <trkpt lat="48.71139" lon="1.77961">
        <ele>170.60000610352</ele>
        <time>2014-07-29T08:06:03.000Z</time>
      </trkpt>
      <trkpt lat="48.7114" lon="1.77962">
        <ele>170.60000610352</ele>
        <time>2014-07-29T08:06:05.000Z</time>
      </trkpt>
      <trkpt lat="48.71139" lon="1.77975">
        <ele>171</ele>
        <time>2014-07-29T08:06:11.000Z</time>
      </trkpt>
      <trkpt lat="48.71139" lon="1.77976">
        <ele>171.19999694824</ele>
        <time>2014-07-29T08:06:12.000Z</time>
      </trkpt>
      <trkpt lat="48.71139" lon="1.77992">
        <ele>171.80000305176</ele>
        <time>2014-07-29T08:06:20.000Z</time>
      </trkpt>
      <trkpt lat="48.7114" lon="1.77995">
        <ele>171.80000305176</ele>
        <time>2014-07-29T08:06:22.000Z</time>
      </trkpt>
      <trkpt lat="48.71144" lon="1.78003">
        <ele>172</ele>
        <time>2014-07-29T08:06:27.000Z</time>
      </trkpt>
      <trkpt lat="48.71148" lon="1.78014">
        <ele>172.39999389648</ele>
        <time>2014-07-29T08:06:34.000Z</time>
      </trkpt>
      <trkpt lat="48.71146" lon="1.78018">
        <ele>172.60000610352</ele>
        <time>2014-07-29T08:06:36.000Z</time>
      </trkpt>
      <trkpt lat="48.71148" lon="1.78025">
        <ele>172.80000305176</ele>
        <time>2014-07-29T08:06:41.000Z</time>
      </trkpt>
      <trkpt lat="48.71152" lon="1.78039">
        <ele>173.19999694824</ele>
        <time>2014-07-29T08:06:51.000Z</time>
      </trkpt>
      <trkpt lat="48.71154" lon="1.78045">
        <ele>173.39999389648</ele>
        <time>2014-07-29T08:06:54.000Z</time>
      </trkpt>
      <trkpt lat="48.71157" lon="1.78056">
        <ele>173.60000610352</ele>
        <time>2014-07-29T08:07:00.000Z</time>
      </trkpt>
      <trkpt lat="48.71158" lon="1.78059">
        <ele>173.60000610352</ele>
        <time>2014-07-29T08:07:01.000Z</time>
      </trkpt>
      <trkpt lat="48.71161" lon="1.78064">
        <ele>173.80000305176</ele>
        <time>2014-07-29T08:07:04.000Z</time>
      </trkpt>
      <trkpt lat="48.71166" lon="1.78076">
        <ele>174.19999694824</ele>
        <time>2014-07-29T08:07:12.000Z</time>
      </trkpt>
      <trkpt lat="48.71173" lon="1.78082">
        <ele>174.19999694824</ele>
        <time>2014-07-29T08:07:18.000Z</time>
      </trkpt>
      <trkpt lat="48.71177" lon="1.78081">
        <ele>174.19999694824</ele>
        <time>2014-07-29T08:07:20.000Z</time>
      </trkpt>
      <trkpt lat="48.71182" lon="1.78082">
        <ele>174.19999694824</ele>
        <time>2014-07-29T08:07:23.000Z</time>
      </trkpt>
      <trkpt lat="48.7119" lon="1.78085">
        <ele>174.19999694824</ele>
        <time>2014-07-29T08:07:28.000Z</time>
      </trkpt>
      <trkpt lat="48.71194" lon="1.78088">
        <ele>174.39999389648</ele>
        <time>2014-07-29T08:07:32.000Z</time>
      </trkpt>
      <trkpt lat="48.71197" lon="1.78096">
        <ele>174.39999389648</ele>
        <time>2014-07-29T08:07:38.000Z</time>
      </trkpt>
      <trkpt lat="48.71201" lon="1.78102">
        <ele>174.60000610352</ele>
        <time>2014-07-29T08:07:42.000Z</time>
      </trkpt>
      <trkpt lat="48.71203" lon="1.78104">
        <ele>174.60000610352</ele>
        <time>2014-07-29T08:07:44.000Z</time>
      </trkpt>
      <trkpt lat="48.71209" lon="1.78109">
        <ele>174.60000610352</ele>
        <time>2014-07-29T08:07:50.000Z</time>
      </trkpt>
      <trkpt lat="48.71213" lon="1.78121">
        <ele>174.80000305176</ele>
        <time>2014-07-29T08:07:56.000Z</time>
      </trkpt>
      <trkpt lat="48.71214" lon="1.78124">
        <ele>175</ele>
        <time>2014-07-29T08:07:58.000Z</time>
      </trkpt>
      <trkpt lat="48.71216" lon="1.78128">
        <ele>175</ele>
        <time>2014-07-29T08:08:01.000Z</time>
      </trkpt>
      <trkpt lat="48.7122" lon="1.78132">
        <ele>175</ele>
        <time>2014-07-29T08:08:05.000Z</time>
      </trkpt>
      <trkpt lat="48.71222" lon="1.7813">
        <ele>175</ele>
        <time>2014-07-29T08:08:10.000Z</time>
      </trkpt>
      <trkpt lat="48.71232" lon="1.78144">
        <ele>175.19999694824</ele>
        <time>2014-07-29T08:08:22.000Z</time>
      </trkpt>
      <trkpt lat="48.71238" lon="1.78153">
        <ele>175.39999389648</ele>
        <time>2014-07-29T08:08:26.000Z</time>
      </trkpt>
      <trkpt lat="48.71242" lon="1.78161">
        <ele>175.60000610352</ele>
        <time>2014-07-29T08:08:31.000Z</time>
      </trkpt>
      <trkpt lat="48.71245" lon="1.78166">
        <ele>175.60000610352</ele>
        <time>2014-07-29T08:08:34.000Z</time>
      </trkpt>
      <trkpt lat="48.71247" lon="1.78168">
        <ele>175.60000610352</ele>
        <time>2014-07-29T08:08:36.000Z</time>
      </trkpt>
      <trkpt lat="48.71252" lon="1.78178">
        <ele>175.80000305176</ele>
        <time>2014-07-29T08:08:43.000Z</time>
      </trkpt>
      <trkpt lat="48.71254" lon="1.78178">
        <ele>175.80000305176</ele>
        <time>2014-07-29T08:08:44.000Z</time>
      </trkpt>
      <trkpt lat="48.7126" lon="1.78184">
        <ele>175.80000305176</ele>
        <time>2014-07-29T08:08:48.000Z</time>
      </trkpt>
      <trkpt lat="48.71264" lon="1.78189">
        <ele>175.80000305176</ele>
        <time>2014-07-29T08:08:52.000Z</time>
      </trkpt>
      <trkpt lat="48.7127" lon="1.78195">
        <ele>176</ele>
        <time>2014-07-29T08:08:57.000Z</time>
      </trkpt>
      <trkpt lat="48.71271" lon="1.78197">
        <ele>176</ele>
        <time>2014-07-29T08:08:58.000Z</time>
      </trkpt>
      <trkpt lat="48.71279" lon="1.78198">
        <ele>176.39999389648</ele>
        <time>2014-07-29T08:09:05.000Z</time>
      </trkpt>
      <trkpt lat="48.71284" lon="1.78202">
        <ele>176.60000610352</ele>
        <time>2014-07-29T08:09:09.000Z</time>
      </trkpt>
      <trkpt lat="48.71288" lon="1.78205">
        <ele>176.80000305176</ele>
        <time>2014-07-29T08:09:12.000Z</time>
      </trkpt>
      <trkpt lat="48.71299" lon="1.78208">
        <ele>177.39999389648</ele>
        <time>2014-07-29T08:09:21.000Z</time>
      </trkpt>
      <trkpt lat="48.71304" lon="1.78211">
        <ele>177.60000610352</ele>
        <time>2014-07-29T08:09:27.000Z</time>
      </trkpt>
      <trkpt lat="48.71308" lon="1.78214">
        <ele>177.80000305176</ele>
        <time>2014-07-29T08:09:32.000Z</time>
      </trkpt>
      <trkpt lat="48.71314" lon="1.78217">
        <ele>178</ele>
        <time>2014-07-29T08:09:38.000Z</time>
      </trkpt>
      <trkpt lat="48.71318" lon="1.78218">
        <ele>178.19999694824</ele>
        <time>2014-07-29T08:09:41.000Z</time>
      </trkpt>
      <trkpt lat="48.71323" lon="1.78218">
        <ele>178.39999389648</ele>
        <time>2014-07-29T08:09:45.000Z</time>
      </trkpt>
      <trkpt lat="48.71331" lon="1.78223">
        <ele>178.80000305176</ele>
        <time>2014-07-29T08:09:52.000Z</time>
      </trkpt>
      <trkpt lat="48.71333" lon="1.78225">
        <ele>179</ele>
        <time>2014-07-29T08:09:54.000Z</time>
      </trkpt>
      <trkpt lat="48.71337" lon="1.78224">
        <ele>179</ele>
        <time>2014-07-29T08:09:57.000Z</time>
      </trkpt>
      <trkpt lat="48.71347" lon="1.78227">
        <ele>179.39999389648</ele>
        <time>2014-07-29T08:10:04.000Z</time>
      </trkpt>
      <trkpt lat="48.71354" lon="1.78229">
        <ele>179.80000305176</ele>
        <time>2014-07-29T08:10:10.000Z</time>
      </trkpt>
      <trkpt lat="48.71359" lon="1.78232">
        <ele>179.60000610352</ele>
        <time>2014-07-29T08:10:15.000Z</time>
      </trkpt>
      <trkpt lat="48.71369" lon="1.78237">
        <ele>179.39999389648</ele>
        <time>2014-07-29T08:10:21.000Z</time>
      </trkpt>
      <trkpt lat="48.71378" lon="1.7824">
        <ele>179.19999694824</ele>
        <time>2014-07-29T08:10:27.000Z</time>
      </trkpt>
      <trkpt lat="48.71386" lon="1.78242">
        <ele>179</ele>
        <time>2014-07-29T08:10:33.000Z</time>
      </trkpt>
      <trkpt lat="48.71388" lon="1.78243">
        <ele>179</ele>
        <time>2014-07-29T08:10:35.000Z</time>
      </trkpt>
      <trkpt lat="48.7139" lon="1.78244">
        <ele>179</ele>
        <time>2014-07-29T08:10:37.000Z</time>
      </trkpt>
      <trkpt lat="48.71395" lon="1.78246">
        <ele>178.80000305176</ele>
        <time>2014-07-29T08:10:42.000Z</time>
      </trkpt>
      <trkpt lat="48.71403" lon="1.78248">
        <ele>178.60000610352</ele>
        <time>2014-07-29T08:10:48.000Z</time>
      </trkpt>
      <trkpt lat="48.71408" lon="1.78256">
        <ele>178.60000610352</ele>
        <time>2014-07-29T08:10:53.000Z</time>
      </trkpt>
      <trkpt lat="48.71409" lon="1.78257">
        <ele>178.60000610352</ele>
        <time>2014-07-29T08:10:56.000Z</time>
      </trkpt>
      <trkpt lat="48.7142" lon="1.78267">
        <ele>178.60000610352</ele>
        <time>2014-07-29T08:11:27.000Z</time>
      </trkpt>
      <trkpt lat="48.71426" lon="1.78269">
        <ele>178.39999389648</ele>
        <time>2014-07-29T08:11:31.000Z</time>
      </trkpt>
      <trkpt lat="48.71431" lon="1.7827">
        <ele>178.39999389648</ele>
        <time>2014-07-29T08:11:35.000Z</time>
      </trkpt>
      <trkpt lat="48.71438" lon="1.78272">
        <ele>178.19999694824</ele>
        <time>2014-07-29T08:11:40.000Z</time>
      </trkpt>
      <trkpt lat="48.71449" lon="1.78275">
        <ele>178.39999389648</ele>
        <time>2014-07-29T08:11:49.000Z</time>
      </trkpt>
      <trkpt lat="48.71458" lon="1.78278">
        <ele>178.39999389648</ele>
        <time>2014-07-29T08:11:57.000Z</time>
      </trkpt>
      <trkpt lat="48.7147" lon="1.78282">
        <ele>178.60000610352</ele>
        <time>2014-07-29T08:12:05.000Z</time>
      </trkpt>
      <trkpt lat="48.7148" lon="1.78287">
        <ele>178.80000305176</ele>
        <time>2014-07-29T08:12:13.000Z</time>
      </trkpt>
      <trkpt lat="48.7149" lon="1.78292">
        <ele>179</ele>
        <time>2014-07-29T08:12:22.000Z</time>
      </trkpt>
      <trkpt lat="48.715" lon="1.78293">
        <ele>178.80000305176</ele>
        <time>2014-07-29T08:12:30.000Z</time>
      </trkpt>
      <trkpt lat="48.7151" lon="1.78295">
        <ele>178.80000305176</ele>
        <time>2014-07-29T08:12:38.000Z</time>
      </trkpt>
      <trkpt lat="48.71519" lon="1.78299">
        <ele>179</ele>
        <time>2014-07-29T08:12:45.000Z</time>
      </trkpt>
      <trkpt lat="48.71528" lon="1.78303">
        <ele>179</ele>
        <time>2014-07-29T08:12:52.000Z</time>
      </trkpt>
      <trkpt lat="48.71531" lon="1.78305">
        <ele>179.19999694824</ele>
        <time>2014-07-29T08:12:55.000Z</time>
      </trkpt>
      <trkpt lat="48.71533" lon="1.78306">
        <ele>179</ele>
        <time>2014-07-29T08:12:59.000Z</time>
      </trkpt>
      <trkpt lat="48.71541" lon="1.78309">
        <ele>179.19999694824</ele>
        <time>2014-07-29T08:13:08.000Z</time>
      </trkpt>
      <trkpt lat="48.71548" lon="1.78313">
        <ele>179.19999694824</ele>
        <time>2014-07-29T08:13:12.000Z</time>
      </trkpt>
      <trkpt lat="48.71556" lon="1.78313">
        <ele>179.19999694824</ele>
        <time>2014-07-29T08:13:18.000Z</time>
      </trkpt>
      <trkpt lat="48.71562" lon="1.78321">
        <ele>179.39999389648</ele>
        <time>2014-07-29T08:13:24.000Z</time>
      </trkpt>
      <trkpt lat="48.71567" lon="1.78324">
        <ele>179.60000610352</ele>
        <time>2014-07-29T08:13:28.000Z</time>
      </trkpt>
      <trkpt lat="48.71571" lon="1.78328">
        <ele>179.60000610352</ele>
        <time>2014-07-29T08:13:32.000Z</time>
      </trkpt>
      <trkpt lat="48.71579" lon="1.78331">
        <ele>179.60000610352</ele>
        <time>2014-07-29T08:13:38.000Z</time>
      </trkpt>
      <trkpt lat="48.71589" lon="1.78337">
        <ele>179.80000305176</ele>
        <time>2014-07-29T08:13:46.000Z</time>
      </trkpt>
      <trkpt lat="48.71597" lon="1.78341">
        <ele>179.80000305176</ele>
        <time>2014-07-29T08:13:53.000Z</time>
      </trkpt>
      <trkpt lat="48.71601" lon="1.78343">
        <ele>179.80000305176</ele>
        <time>2014-07-29T08:13:56.000Z</time>
      </trkpt>
      <trkpt lat="48.7161" lon="1.78343">
        <ele>179.39999389648</ele>
        <time>2014-07-29T08:14:02.000Z</time>
      </trkpt>
      <trkpt lat="48.71614" lon="1.78344">
        <ele>179.39999389648</ele>
        <time>2014-07-29T08:14:06.000Z</time>
      </trkpt>
      <trkpt lat="48.71624" lon="1.78345">
        <ele>178.80000305176</ele>
        <time>2014-07-29T08:14:12.000Z</time>
      </trkpt>
      <trkpt lat="48.71631" lon="1.7835">
        <ele>178.80000305176</ele>
        <time>2014-07-29T08:14:17.000Z</time>
      </trkpt>
      <trkpt lat="48.71638" lon="1.7836">
        <ele>178.80000305176</ele>
        <time>2014-07-29T08:14:24.000Z</time>
      </trkpt>
      <trkpt lat="48.71642" lon="1.78369">
        <ele>178.80000305176</ele>
        <time>2014-07-29T08:14:29.000Z</time>
      </trkpt>
      <trkpt lat="48.71644" lon="1.7838">
        <ele>179.19999694824</ele>
        <time>2014-07-29T08:14:35.000Z</time>
      </trkpt>
      <trkpt lat="48.71648" lon="1.78393">
        <ele>179.39999389648</ele>
        <time>2014-07-29T08:14:42.000Z</time>
      </trkpt>
      <trkpt lat="48.7165" lon="1.78408">
        <ele>180</ele>
        <time>2014-07-29T08:14:49.000Z</time>
      </trkpt>
      <trkpt lat="48.71652" lon="1.78421">
        <ele>180.60000610352</ele>
        <time>2014-07-29T08:14:56.000Z</time>
      </trkpt>
      <trkpt lat="48.71653" lon="1.78423">
        <ele>180.80000305176</ele>
        <time>2014-07-29T08:14:57.000Z</time>
      </trkpt>
      <trkpt lat="48.71655" lon="1.78435">
        <ele>181.39999389648</ele>
        <time>2014-07-29T08:15:03.000Z</time>
      </trkpt>
      <trkpt lat="48.71656" lon="1.78446">
        <ele>182</ele>
        <time>2014-07-29T08:15:09.000Z</time>
      </trkpt>
      <trkpt lat="48.71658" lon="1.78451">
        <ele>182.19999694824</ele>
        <time>2014-07-29T08:15:12.000Z</time>
      </trkpt>
      <trkpt lat="48.71661" lon="1.7846">
        <ele>182.60000610352</ele>
        <time>2014-07-29T08:15:18.000Z</time>
      </trkpt>
      <trkpt lat="48.71662" lon="1.78463">
        <ele>182.60000610352</ele>
        <time>2014-07-29T08:15:20.000Z</time>
      </trkpt>
      <trkpt lat="48.71664" lon="1.7847">
        <ele>183</ele>
        <time>2014-07-29T08:15:24.000Z</time>
      </trkpt>
      <trkpt lat="48.71664" lon="1.78476">
        <ele>183.19999694824</ele>
        <time>2014-07-29T08:15:27.000Z</time>
      </trkpt>
      <trkpt lat="48.71665" lon="1.78483">
        <ele>183.39999389648</ele>
        <time>2014-07-29T08:15:31.000Z</time>
      </trkpt>
      <trkpt lat="48.71671" lon="1.78492">
        <ele>183.39999389648</ele>
        <time>2014-07-29T08:15:37.000Z</time>
      </trkpt>
      <trkpt lat="48.71671" lon="1.78494">
        <ele>183.39999389648</ele>
        <time>2014-07-29T08:15:38.000Z</time>
      </trkpt>
      <trkpt lat="48.71677" lon="1.78503">
        <ele>183.39999389648</ele>
        <time>2014-07-29T08:15:45.000Z</time>
      </trkpt>
      <trkpt lat="48.71684" lon="1.7851">
        <ele>183.39999389648</ele>
        <time>2014-07-29T08:15:52.000Z</time>
      </trkpt>
      <trkpt lat="48.71687" lon="1.78512">
        <ele>183.19999694824</ele>
        <time>2014-07-29T08:15:54.000Z</time>
      </trkpt>
      <trkpt lat="48.71698" lon="1.78522">
        <ele>182.80000305176</ele>
        <time>2014-07-29T08:16:03.000Z</time>
      </trkpt>
      <trkpt lat="48.71706" lon="1.7853">
        <ele>182.39999389648</ele>
        <time>2014-07-29T08:16:11.000Z</time>
      </trkpt>
      <trkpt lat="48.71714" lon="1.7854">
        <ele>182</ele>
        <time>2014-07-29T08:16:19.000Z</time>
      </trkpt>
      <trkpt lat="48.71722" lon="1.78551">
        <ele>181.60000610352</ele>
        <time>2014-07-29T08:16:27.000Z</time>
      </trkpt>
      <trkpt lat="48.71729" lon="1.78562">
        <ele>181.39999389648</ele>
        <time>2014-07-29T08:16:35.000Z</time>
      </trkpt>
      <trkpt lat="48.71733" lon="1.78565">
        <ele>181.19999694824</ele>
        <time>2014-07-29T08:16:38.000Z</time>
      </trkpt>
      <trkpt lat="48.71735" lon="1.78573">
        <ele>181.19999694824</ele>
        <time>2014-07-29T08:16:43.000Z</time>
      </trkpt>
      <trkpt lat="48.71736" lon="1.78583">
        <ele>181.39999389648</ele>
        <time>2014-07-29T08:16:48.000Z</time>
      </trkpt>
      <trkpt lat="48.71738" lon="1.78589">
        <ele>181.60000610352</ele>
        <time>2014-07-29T08:16:52.000Z</time>
      </trkpt>
      <trkpt lat="48.71742" lon="1.78606">
        <ele>182</ele>
        <time>2014-07-29T08:17:01.000Z</time>
      </trkpt>
      <trkpt lat="48.7174" lon="1.78618">
        <ele>182.39999389648</ele>
        <time>2014-07-29T08:17:08.000Z</time>
      </trkpt>
      <trkpt lat="48.71737" lon="1.7863">
        <ele>182.80000305176</ele>
        <time>2014-07-29T08:17:15.000Z</time>
      </trkpt>
      <trkpt lat="48.71734" lon="1.7864">
        <ele>182.60000610352</ele>
        <time>2014-07-29T08:17:23.000Z</time>
      </trkpt>
      <trkpt lat="48.71727" lon="1.78661">
        <ele>182.39999389648</ele>
        <time>2014-07-29T08:17:30.000Z</time>
      </trkpt>
      <trkpt lat="48.71718" lon="1.78683">
        <ele>182</ele>
        <time>2014-07-29T08:17:35.000Z</time>
      </trkpt>
      <trkpt lat="48.71711" lon="1.78704">
        <ele>181.60000610352</ele>
        <time>2014-07-29T08:17:40.000Z</time>
      </trkpt>
      <trkpt lat="48.71705" lon="1.7873">
        <ele>181</ele>
        <time>2014-07-29T08:17:45.000Z</time>
      </trkpt>
      <trkpt lat="48.71701" lon="1.78753">
        <ele>180.60000610352</ele>
        <time>2014-07-29T08:17:50.000Z</time>
      </trkpt>
      <trkpt lat="48.71693" lon="1.78771">
        <ele>180.60000610352</ele>
        <time>2014-07-29T08:17:55.000Z</time>
      </trkpt>
      <trkpt lat="48.71688" lon="1.7879">
        <ele>180.39999389648</ele>
        <time>2014-07-29T08:18:00.000Z</time>
      </trkpt>
      <trkpt lat="48.71683" lon="1.78804">
        <ele>180.19999694824</ele>
        <time>2014-07-29T08:18:04.000Z</time>
      </trkpt>
      <trkpt lat="48.71676" lon="1.78821">
        <ele>180.39999389648</ele>
        <time>2014-07-29T08:18:10.000Z</time>
      </trkpt>
      <trkpt lat="48.71669" lon="1.78842">
        <ele>180.39999389648</ele>
        <time>2014-07-29T08:18:14.000Z</time>
      </trkpt>
      <trkpt lat="48.71663" lon="1.78861">
        <ele>180.39999389648</ele>
        <time>2014-07-29T08:18:18.000Z</time>
      </trkpt>
      <trkpt lat="48.71652" lon="1.78892">
        <ele>180.19999694824</ele>
        <time>2014-07-29T08:18:25.000Z</time>
      </trkpt>
      <trkpt lat="48.71648" lon="1.78914">
        <ele>180</ele>
        <time>2014-07-29T08:18:30.000Z</time>
      </trkpt>
      <trkpt lat="48.71644" lon="1.78932">
        <ele>180</ele>
        <time>2014-07-29T08:18:34.000Z</time>
      </trkpt>
      <trkpt lat="48.71635" lon="1.78952">
        <ele>180.19999694824</ele>
        <time>2014-07-29T08:18:38.000Z</time>
      </trkpt>
      <trkpt lat="48.71628" lon="1.78972">
        <ele>180.39999389648</ele>
        <time>2014-07-29T08:18:41.000Z</time>
      </trkpt>
      <trkpt lat="48.71617" lon="1.79011">
        <ele>180.19999694824</ele>
        <time>2014-07-29T08:18:45.000Z</time>
      </trkpt>
      <trkpt lat="48.71609" lon="1.79035">
        <ele>180.19999694824</ele>
        <time>2014-07-29T08:18:48.000Z</time>
      </trkpt>
      <trkpt lat="48.71606" lon="1.79052">
        <ele>180.19999694824</ele>
        <time>2014-07-29T08:18:50.000Z</time>
      </trkpt>
      <trkpt lat="48.71597" lon="1.79075">
        <ele>180.39999389648</ele>
        <time>2014-07-29T08:18:52.000Z</time>
      </trkpt>
      <trkpt lat="48.71591" lon="1.79093">
        <ele>180.80000305176</ele>
        <time>2014-07-29T08:18:55.000Z</time>
      </trkpt>
      <trkpt lat="48.71579" lon="1.79126">
        <ele>181.80000305176</ele>
        <time>2014-07-29T08:19:00.000Z</time>
      </trkpt>
      <trkpt lat="48.71572" lon="1.79151">
        <ele>182.39999389648</ele>
        <time>2014-07-29T08:19:03.000Z</time>
      </trkpt>
      <trkpt lat="48.7156" lon="1.79189">
        <ele>183</ele>
        <time>2014-07-29T08:19:08.000Z</time>
      </trkpt>
      <trkpt lat="48.71554" lon="1.79207">
        <ele>183.19999694824</ele>
        <time>2014-07-29T08:19:11.000Z</time>
      </trkpt>
      <trkpt lat="48.71545" lon="1.7923">
        <ele>183.19999694824</ele>
        <time>2014-07-29T08:19:15.000Z</time>
      </trkpt>
      <trkpt lat="48.71535" lon="1.79268">
        <ele>182.39999389648</ele>
        <time>2014-07-29T08:19:21.000Z</time>
      </trkpt>
      <trkpt lat="48.71531" lon="1.79285">
        <ele>181.60000610352</ele>
        <time>2014-07-29T08:19:24.000Z</time>
      </trkpt>
      <trkpt lat="48.71533" lon="1.79311">
        <ele>180.39999389648</ele>
        <time>2014-07-29T08:19:29.000Z</time>
      </trkpt>
      <trkpt lat="48.71544" lon="1.79324">
        <ele>179.60000610352</ele>
        <time>2014-07-29T08:19:33.000Z</time>
      </trkpt>
      <trkpt lat="48.71566" lon="1.79341">
        <ele>178.80000305176</ele>
        <time>2014-07-29T08:19:40.000Z</time>
      </trkpt>
      <trkpt lat="48.71586" lon="1.79355">
        <ele>178</ele>
        <time>2014-07-29T08:19:46.000Z</time>
      </trkpt>
      <trkpt lat="48.71604" lon="1.79368">
        <ele>177.39999389648</ele>
        <time>2014-07-29T08:19:52.000Z</time>
      </trkpt>
      <trkpt lat="48.71619" lon="1.79378">
        <ele>176.80000305176</ele>
        <time>2014-07-29T08:19:57.000Z</time>
      </trkpt>
      <trkpt lat="48.71633" lon="1.79385">
        <ele>176.39999389648</ele>
        <time>2014-07-29T08:20:01.000Z</time>
      </trkpt>
      <trkpt lat="48.71648" lon="1.79396">
        <ele>175.80000305176</ele>
        <time>2014-07-29T08:20:06.000Z</time>
      </trkpt>
      <trkpt lat="48.71665" lon="1.79408">
        <ele>175.19999694824</ele>
        <time>2014-07-29T08:20:12.000Z</time>
      </trkpt>
      <trkpt lat="48.71668" lon="1.7941">
        <ele>175.19999694824</ele>
        <time>2014-07-29T08:20:13.000Z</time>
      </trkpt>
      <trkpt lat="48.71672" lon="1.79413">
        <ele>175</ele>
        <time>2014-07-29T08:20:19.000Z</time>
      </trkpt>
      <trkpt lat="48.71682" lon="1.79421">
        <ele>174.60000610352</ele>
        <time>2014-07-29T08:20:23.000Z</time>
      </trkpt>
      <trkpt lat="48.71697" lon="1.79434">
        <ele>174.39999389648</ele>
        <time>2014-07-29T08:20:28.000Z</time>
      </trkpt>
      <trkpt lat="48.7171" lon="1.79442">
        <ele>174.19999694824</ele>
        <time>2014-07-29T08:20:33.000Z</time>
      </trkpt>
      <trkpt lat="48.71724" lon="1.79449">
        <ele>174</ele>
        <time>2014-07-29T08:20:37.000Z</time>
      </trkpt>
      <trkpt lat="48.71748" lon="1.79461">
        <ele>173.80000305176</ele>
        <time>2014-07-29T08:20:43.000Z</time>
      </trkpt>
      <trkpt lat="48.71752" lon="1.79464">
        <ele>173.80000305176</ele>
        <time>2014-07-29T08:20:44.000Z</time>
      </trkpt>
      <trkpt lat="48.7177" lon="1.79469">
        <ele>174</ele>
        <time>2014-07-29T08:20:47.000Z</time>
      </trkpt>
      <trkpt lat="48.71788" lon="1.79487">
        <ele>173.60000610352</ele>
        <time>2014-07-29T08:20:53.000Z</time>
      </trkpt>
      <trkpt lat="48.71794" lon="1.79494">
        <ele>173.60000610352</ele>
        <time>2014-07-29T08:20:58.000Z</time>
      </trkpt>
      <trkpt lat="48.71803" lon="1.795">
        <ele>173.60000610352</ele>
        <time>2014-07-29T08:21:05.000Z</time>
      </trkpt>
      <trkpt lat="48.71807" lon="1.79509">
        <ele>173.39999389648</ele>
        <time>2014-07-29T08:21:11.000Z</time>
      </trkpt>
      <trkpt lat="48.71809" lon="1.79513">
        <ele>173.19999694824</ele>
        <time>2014-07-29T08:21:14.000Z</time>
      </trkpt>
      <trkpt lat="48.71813" lon="1.79522">
        <ele>172.80000305176</ele>
        <time>2014-07-29T08:21:20.000Z</time>
      </trkpt>
      <trkpt lat="48.71817" lon="1.79527">
        <ele>172.80000305176</ele>
        <time>2014-07-29T08:21:24.000Z</time>
      </trkpt>
      <trkpt lat="48.71828" lon="1.79531">
        <ele>173</ele>
        <time>2014-07-29T08:21:31.000Z</time>
      </trkpt>
      <trkpt lat="48.7184" lon="1.79535">
        <ele>173.19999694824</ele>
        <time>2014-07-29T08:21:39.000Z</time>
      </trkpt>
      <trkpt lat="48.71843" lon="1.79537">
        <ele>173.19999694824</ele>
        <time>2014-07-29T08:21:41.000Z</time>
      </trkpt>
      <trkpt lat="48.71852" lon="1.79542">
        <ele>173.39999389648</ele>
        <time>2014-07-29T08:21:48.000Z</time>
      </trkpt>
      <trkpt lat="48.71857" lon="1.79543">
        <ele>173.60000610352</ele>
        <time>2014-07-29T08:21:51.000Z</time>
      </trkpt>
      <trkpt lat="48.71866" lon="1.79547">
        <ele>174.19999694824</ele>
        <time>2014-07-29T08:21:59.000Z</time>
      </trkpt>
      <trkpt lat="48.71867" lon="1.79548">
        <ele>174.19999694824</ele>
        <time>2014-07-29T08:22:00.000Z</time>
      </trkpt>
      <trkpt lat="48.71872" lon="1.79552">
        <ele>174.39999389648</ele>
        <time>2014-07-29T08:22:07.000Z</time>
      </trkpt>
      <trkpt lat="48.71876" lon="1.79556">
        <ele>174.60000610352</ele>
        <time>2014-07-29T08:22:11.000Z</time>
      </trkpt>
      <trkpt lat="48.71883" lon="1.79561">
        <ele>175</ele>
        <time>2014-07-29T08:22:16.000Z</time>
      </trkpt>
      <trkpt lat="48.71884" lon="1.79562">
        <ele>175</ele>
        <time>2014-07-29T08:22:17.000Z</time>
      </trkpt>
      <trkpt lat="48.71889" lon="1.79565">
        <ele>175.19999694824</ele>
        <time>2014-07-29T08:22:21.000Z</time>
      </trkpt>
      <trkpt lat="48.719" lon="1.7957">
        <ele>176</ele>
        <time>2014-07-29T08:22:29.000Z</time>
      </trkpt>
      <trkpt lat="48.71903" lon="1.7957">
        <ele>176.19999694824</ele>
        <time>2014-07-29T08:22:31.000Z</time>
      </trkpt>
      <trkpt lat="48.71912" lon="1.79574">
        <ele>176.80000305176</ele>
        <time>2014-07-29T08:22:38.000Z</time>
      </trkpt>
      <trkpt lat="48.71919" lon="1.79579">
        <ele>177.39999389648</ele>
        <time>2014-07-29T08:22:44.000Z</time>
      </trkpt>
      <trkpt lat="48.71926" lon="1.79583">
        <ele>177.80000305176</ele>
        <time>2014-07-29T08:22:48.000Z</time>
      </trkpt>
      <trkpt lat="48.71932" lon="1.79587">
        <ele>178.39999389648</ele>
        <time>2014-07-29T08:22:55.000Z</time>
      </trkpt>
      <trkpt lat="48.71938" lon="1.79596">
        <ele>178.80000305176</ele>
        <time>2014-07-29T08:23:03.000Z</time>
      </trkpt>
      <trkpt lat="48.71943" lon="1.79603">
        <ele>178.80000305176</ele>
        <time>2014-07-29T08:23:08.000Z</time>
      </trkpt>
      <trkpt lat="48.71948" lon="1.79607">
        <ele>179.19999694824</ele>
        <time>2014-07-29T08:23:12.000Z</time>
      </trkpt>
      <trkpt lat="48.71958" lon="1.79608">
        <ele>179.60000610352</ele>
        <time>2014-07-29T08:23:19.000Z</time>
      </trkpt>
      <trkpt lat="48.71962" lon="1.79611">
        <ele>179.80000305176</ele>
        <time>2014-07-29T08:23:23.000Z</time>
      </trkpt>
      <trkpt lat="48.71966" lon="1.79614">
        <ele>179.80000305176</ele>
        <time>2014-07-29T08:23:27.000Z</time>
      </trkpt>
      <trkpt lat="48.71969" lon="1.79617">
        <ele>180</ele>
        <time>2014-07-29T08:23:31.000Z</time>
      </trkpt>
      <trkpt lat="48.71973" lon="1.79621">
        <ele>180.19999694824</ele>
        <time>2014-07-29T08:23:34.000Z</time>
      </trkpt>
      <trkpt lat="48.71977" lon="1.79623">
        <ele>180.39999389648</ele>
        <time>2014-07-29T08:23:38.000Z</time>
      </trkpt>
      <trkpt lat="48.71986" lon="1.79631">
        <ele>180.60000610352</ele>
        <time>2014-07-29T08:23:45.000Z</time>
      </trkpt>
      <trkpt lat="48.71993" lon="1.79634">
        <ele>181</ele>
        <time>2014-07-29T08:23:50.000Z</time>
      </trkpt>
      <trkpt lat="48.71999" lon="1.79637">
        <ele>181.19999694824</ele>
        <time>2014-07-29T08:23:55.000Z</time>
      </trkpt>
      <trkpt lat="48.72" lon="1.79639">
        <ele>181.19999694824</ele>
        <time>2014-07-29T08:23:57.000Z</time>
      </trkpt>
      <trkpt lat="48.72006" lon="1.79641">
        <ele>181.39999389648</ele>
        <time>2014-07-29T08:24:01.000Z</time>
      </trkpt>
      <trkpt lat="48.72016" lon="1.79647">
        <ele>182</ele>
        <time>2014-07-29T08:24:09.000Z</time>
      </trkpt>
      <trkpt lat="48.7202" lon="1.7965">
        <ele>182</ele>
        <time>2014-07-29T08:24:13.000Z</time>
      </trkpt>
      <trkpt lat="48.72025" lon="1.79656">
        <ele>182.19999694824</ele>
        <time>2014-07-29T08:24:20.000Z</time>
      </trkpt>
      <trkpt lat="48.72029" lon="1.79661">
        <ele>182</ele>
        <time>2014-07-29T08:24:25.000Z</time>
      </trkpt>
      <trkpt lat="48.72036" lon="1.79665">
        <ele>182</ele>
        <time>2014-07-29T08:24:31.000Z</time>
      </trkpt>
      <trkpt lat="48.72045" lon="1.79671">
        <ele>182</ele>
        <time>2014-07-29T08:24:38.000Z</time>
      </trkpt>
      <trkpt lat="48.72054" lon="1.79677">
        <ele>182</ele>
        <time>2014-07-29T08:24:45.000Z</time>
      </trkpt>
      <trkpt lat="48.72059" lon="1.79681">
        <ele>182</ele>
        <time>2014-07-29T08:24:50.000Z</time>
      </trkpt>
      <trkpt lat="48.72062" lon="1.79683">
        <ele>182</ele>
        <time>2014-07-29T08:24:52.000Z</time>
      </trkpt>
      <trkpt lat="48.72069" lon="1.79691">
        <ele>181.80000305176</ele>
        <time>2014-07-29T08:24:59.000Z</time>
      </trkpt>
      <trkpt lat="48.72076" lon="1.79696">
        <ele>181.80000305176</ele>
        <time>2014-07-29T08:25:04.000Z</time>
      </trkpt>
      <trkpt lat="48.72081" lon="1.79699">
        <ele>181.80000305176</ele>
        <time>2014-07-29T08:25:08.000Z</time>
      </trkpt>
      <trkpt lat="48.72101" lon="1.79703">
        <ele>182.39999389648</ele>
        <time>2014-07-29T08:25:18.000Z</time>
      </trkpt>
      <trkpt lat="48.72107" lon="1.7971">
        <ele>182.19999694824</ele>
        <time>2014-07-29T08:25:25.000Z</time>
      </trkpt>
      <trkpt lat="48.72111" lon="1.79714">
        <ele>181.80000305176</ele>
        <time>2014-07-29T08:25:30.000Z</time>
      </trkpt>
      <trkpt lat="48.72117" lon="1.79718">
        <ele>181.80000305176</ele>
        <time>2014-07-29T08:25:35.000Z</time>
      </trkpt>
      <trkpt lat="48.72124" lon="1.79721">
        <ele>181.80000305176</ele>
        <time>2014-07-29T08:25:40.000Z</time>
      </trkpt>
      <trkpt lat="48.7213" lon="1.79726">
        <ele>181.60000610352</ele>
        <time>2014-07-29T08:25:47.000Z</time>
      </trkpt>
      <trkpt lat="48.72136" lon="1.79735">
        <ele>181</ele>
        <time>2014-07-29T08:25:55.000Z</time>
      </trkpt>
      <trkpt lat="48.72138" lon="1.79736">
        <ele>181</ele>
        <time>2014-07-29T08:25:57.000Z</time>
      </trkpt>
      <trkpt lat="48.72145" lon="1.79748">
        <ele>180.60000610352</ele>
        <time>2014-07-29T08:26:06.000Z</time>
      </trkpt>
      <trkpt lat="48.72148" lon="1.7975">
        <ele>180.60000610352</ele>
        <time>2014-07-29T08:26:09.000Z</time>
      </trkpt>
      <trkpt lat="48.72154" lon="1.79755">
        <ele>180.60000610352</ele>
        <time>2014-07-29T08:26:14.000Z</time>
      </trkpt>
      <trkpt lat="48.72166" lon="1.79758">
        <ele>180.80000305176</ele>
        <time>2014-07-29T08:26:21.000Z</time>
      </trkpt>
      <trkpt lat="48.72175" lon="1.79758">
        <ele>181</ele>
        <time>2014-07-29T08:26:27.000Z</time>
      </trkpt>
      <trkpt lat="48.72179" lon="1.79759">
        <ele>181</ele>
        <time>2014-07-29T08:26:30.000Z</time>
      </trkpt>
      <trkpt lat="48.72184" lon="1.79765">
        <ele>181</ele>
        <time>2014-07-29T08:26:35.000Z</time>
      </trkpt>
      <trkpt lat="48.7219" lon="1.79768">
        <ele>181</ele>
        <time>2014-07-29T08:26:41.000Z</time>
      </trkpt>
      <trkpt lat="48.72195" lon="1.79773">
        <ele>181</ele>
        <time>2014-07-29T08:26:47.000Z</time>
      </trkpt>
      <trkpt lat="48.722" lon="1.79778">
        <ele>181</ele>
        <time>2014-07-29T08:26:52.000Z</time>
      </trkpt>
      <trkpt lat="48.72202" lon="1.79781">
        <ele>181</ele>
        <time>2014-07-29T08:26:55.000Z</time>
      </trkpt>
      <trkpt lat="48.72207" lon="1.79786">
        <ele>181</ele>
        <time>2014-07-29T08:27:00.000Z</time>
      </trkpt>
      <trkpt lat="48.72212" lon="1.7979">
        <ele>181</ele>
        <time>2014-07-29T08:27:05.000Z</time>
      </trkpt>
      <trkpt lat="48.72219" lon="1.79795">
        <ele>181.19999694824</ele>
        <time>2014-07-29T08:27:10.000Z</time>
      </trkpt>
      <trkpt lat="48.72229" lon="1.79801">
        <ele>181.19999694824</ele>
        <time>2014-07-29T08:27:17.000Z</time>
      </trkpt>
      <trkpt lat="48.72231" lon="1.79802">
        <ele>181.19999694824</ele>
        <time>2014-07-29T08:27:18.000Z</time>
      </trkpt>
      <trkpt lat="48.72245" lon="1.7981">
        <ele>181.60000610352</ele>
        <time>2014-07-29T08:27:27.000Z</time>
      </trkpt>
      <trkpt lat="48.72256" lon="1.79816">
        <ele>181.60000610352</ele>
        <time>2014-07-29T08:27:34.000Z</time>
      </trkpt>
      <trkpt lat="48.72263" lon="1.79822">
        <ele>181.80000305176</ele>
        <time>2014-07-29T08:27:40.000Z</time>
      </trkpt>
      <trkpt lat="48.72276" lon="1.79831">
        <ele>181.80000305176</ele>
        <time>2014-07-29T08:27:50.000Z</time>
      </trkpt>
      <trkpt lat="48.72281" lon="1.79839">
        <ele>181.60000610352</ele>
        <time>2014-07-29T08:27:57.000Z</time>
      </trkpt>
      <trkpt lat="48.72284" lon="1.79841">
        <ele>181.60000610352</ele>
        <time>2014-07-29T08:27:59.000Z</time>
      </trkpt>
      <trkpt lat="48.72289" lon="1.79845">
        <ele>181.60000610352</ele>
        <time>2014-07-29T08:28:03.000Z</time>
      </trkpt>
      <trkpt lat="48.72298" lon="1.79849">
        <ele>181.60000610352</ele>
        <time>2014-07-29T08:28:10.000Z</time>
      </trkpt>
      <trkpt lat="48.72301" lon="1.7985">
        <ele>181.80000305176</ele>
        <time>2014-07-29T08:28:12.000Z</time>
      </trkpt>
      <trkpt lat="48.72306" lon="1.79857">
        <ele>181.60000610352</ele>
        <time>2014-07-29T08:28:18.000Z</time>
      </trkpt>
      <trkpt lat="48.72319" lon="1.7986">
        <ele>182</ele>
        <time>2014-07-29T08:28:26.000Z</time>
      </trkpt>
      <trkpt lat="48.72323" lon="1.79861">
        <ele>182</ele>
        <time>2014-07-29T08:28:29.000Z</time>
      </trkpt>
      <trkpt lat="48.72327" lon="1.79863">
        <ele>182</ele>
        <time>2014-07-29T08:28:33.000Z</time>
      </trkpt>
      <trkpt lat="48.72334" lon="1.7987">
        <ele>182</ele>
        <time>2014-07-29T08:28:40.000Z</time>
      </trkpt>
      <trkpt lat="48.7234" lon="1.79874">
        <ele>182</ele>
        <time>2014-07-29T08:28:46.000Z</time>
      </trkpt>
      <trkpt lat="48.72348" lon="1.79881">
        <ele>182</ele>
        <time>2014-07-29T08:28:53.000Z</time>
      </trkpt>
      <trkpt lat="48.72349" lon="1.79882">
        <ele>182</ele>
        <time>2014-07-29T08:28:54.000Z</time>
      </trkpt>
      <trkpt lat="48.72356" lon="1.79889">
        <ele>181.80000305176</ele>
        <time>2014-07-29T08:29:00.000Z</time>
      </trkpt>
      <trkpt lat="48.72362" lon="1.79894">
        <ele>182</ele>
        <time>2014-07-29T08:29:05.000Z</time>
      </trkpt>
      <trkpt lat="48.72368" lon="1.79898">
        <ele>182</ele>
        <time>2014-07-29T08:29:09.000Z</time>
      </trkpt>
      <trkpt lat="48.72371" lon="1.79898">
        <ele>182.19999694824</ele>
        <time>2014-07-29T08:29:11.000Z</time>
      </trkpt>
      <trkpt lat="48.72378" lon="1.799">
        <ele>182.39999389648</ele>
        <time>2014-07-29T08:29:17.000Z</time>
      </trkpt>
      <trkpt lat="48.72384" lon="1.79906">
        <ele>182.39999389648</ele>
        <time>2014-07-29T08:29:22.000Z</time>
      </trkpt>
      <trkpt lat="48.72385" lon="1.79907">
        <ele>182.39999389648</ele>
        <time>2014-07-29T08:29:23.000Z</time>
      </trkpt>
      <trkpt lat="48.72393" lon="1.79913">
        <ele>182.60000610352</ele>
        <time>2014-07-29T08:29:30.000Z</time>
      </trkpt>
      <trkpt lat="48.72399" lon="1.79915">
        <ele>182.60000610352</ele>
        <time>2014-07-29T08:29:35.000Z</time>
      </trkpt>
      <trkpt lat="48.72405" lon="1.7992">
        <ele>182.80000305176</ele>
        <time>2014-07-29T08:29:40.000Z</time>
      </trkpt>
      <trkpt lat="48.72412" lon="1.79927">
        <ele>182.80000305176</ele>
        <time>2014-07-29T08:29:46.000Z</time>
      </trkpt>
      <trkpt lat="48.72415" lon="1.79929">
        <ele>182.80000305176</ele>
        <time>2014-07-29T08:29:48.000Z</time>
      </trkpt>
      <trkpt lat="48.72421" lon="1.79934">
        <ele>182.80000305176</ele>
        <time>2014-07-29T08:29:53.000Z</time>
      </trkpt>
      <trkpt lat="48.72427" lon="1.79941">
        <ele>182.80000305176</ele>
        <time>2014-07-29T08:29:59.000Z</time>
      </trkpt>
      <trkpt lat="48.7243" lon="1.79943">
        <ele>182.80000305176</ele>
        <time>2014-07-29T08:30:02.000Z</time>
      </trkpt>
      <trkpt lat="48.72433" lon="1.79945">
        <ele>182.80000305176</ele>
        <time>2014-07-29T08:30:05.000Z</time>
      </trkpt>
      <trkpt lat="48.72437" lon="1.79949">
        <ele>182.80000305176</ele>
        <time>2014-07-29T08:30:12.000Z</time>
      </trkpt>
      <trkpt lat="48.72444" lon="1.79954">
        <ele>183</ele>
        <time>2014-07-29T08:30:17.000Z</time>
      </trkpt>
      <trkpt lat="48.72451" lon="1.79959">
        <ele>182.80000305176</ele>
        <time>2014-07-29T08:30:22.000Z</time>
      </trkpt>
      <trkpt lat="48.72461" lon="1.79962">
        <ele>183.19999694824</ele>
        <time>2014-07-29T08:30:29.000Z</time>
      </trkpt>
      <trkpt lat="48.72466" lon="1.79963">
        <ele>183.19999694824</ele>
        <time>2014-07-29T08:30:33.000Z</time>
      </trkpt>
      <trkpt lat="48.7247" lon="1.79965">
        <ele>183.19999694824</ele>
        <time>2014-07-29T08:30:37.000Z</time>
      </trkpt>
      <trkpt lat="48.72479" lon="1.79971">
        <ele>183.39999389648</ele>
        <time>2014-07-29T08:30:44.000Z</time>
      </trkpt>
      <trkpt lat="48.7248" lon="1.79971">
        <ele>183.39999389648</ele>
        <time>2014-07-29T08:30:45.000Z</time>
      </trkpt>
      <trkpt lat="48.72492" lon="1.79984">
        <ele>183.19999694824</ele>
        <time>2014-07-29T08:30:52.000Z</time>
      </trkpt>
      <trkpt lat="48.72499" lon="1.79993">
        <ele>183</ele>
        <time>2014-07-29T08:30:59.000Z</time>
      </trkpt>
      <trkpt lat="48.72507" lon="1.80001">
        <ele>182.60000610352</ele>
        <time>2014-07-29T08:31:05.000Z</time>
      </trkpt>
      <trkpt lat="48.72515" lon="1.80003">
        <ele>182.80000305176</ele>
        <time>2014-07-29T08:31:10.000Z</time>
      </trkpt>
      <trkpt lat="48.72526" lon="1.80009">
        <ele>182.60000610352</ele>
        <time>2014-07-29T08:31:18.000Z</time>
      </trkpt>
      <trkpt lat="48.72528" lon="1.80009">
        <ele>182.60000610352</ele>
        <time>2014-07-29T08:31:19.000Z</time>
      </trkpt>
      <trkpt lat="48.72535" lon="1.80012">
        <ele>182.39999389648</ele>
        <time>2014-07-29T08:31:24.000Z</time>
      </trkpt>
      <trkpt lat="48.7254" lon="1.80013">
        <ele>182.19999694824</ele>
        <time>2014-07-29T08:31:29.000Z</time>
      </trkpt>
      <trkpt lat="48.72545" lon="1.80016">
        <ele>182</ele>
        <time>2014-07-29T08:31:35.000Z</time>
      </trkpt>
      <trkpt lat="48.72551" lon="1.80022">
        <ele>181.60000610352</ele>
        <time>2014-07-29T08:31:40.000Z</time>
      </trkpt>
      <trkpt lat="48.72557" lon="1.80026">
        <ele>181.19999694824</ele>
        <time>2014-07-29T08:31:44.000Z</time>
      </trkpt>
      <trkpt lat="48.72558" lon="1.80029">
        <ele>181</ele>
        <time>2014-07-29T08:31:46.000Z</time>
      </trkpt>
      <trkpt lat="48.7257" lon="1.80035">
        <ele>180.60000610352</ele>
        <time>2014-07-29T08:31:53.000Z</time>
      </trkpt>
      <trkpt lat="48.72576" lon="1.80039">
        <ele>180.19999694824</ele>
        <time>2014-07-29T08:31:56.000Z</time>
      </trkpt>
      <trkpt lat="48.72579" lon="1.80044">
        <ele>180</ele>
        <time>2014-07-29T08:32:01.000Z</time>
      </trkpt>
      <trkpt lat="48.72585" lon="1.80049">
        <ele>179.60000610352</ele>
        <time>2014-07-29T08:32:06.000Z</time>
      </trkpt>
      <trkpt lat="48.72596" lon="1.80053">
        <ele>179.19999694824</ele>
        <time>2014-07-29T08:32:15.000Z</time>
      </trkpt>
      <trkpt lat="48.72597" lon="1.80053">
        <ele>179.19999694824</ele>
        <time>2014-07-29T08:32:16.000Z</time>
      </trkpt>
      <trkpt lat="48.72609" lon="1.80058">
        <ele>178.80000305176</ele>
        <time>2014-07-29T08:32:22.000Z</time>
      </trkpt>
      <trkpt lat="48.72611" lon="1.80059">
        <ele>178.80000305176</ele>
        <time>2014-07-29T08:32:23.000Z</time>
      </trkpt>
      <trkpt lat="48.72621" lon="1.80068">
        <ele>178.39999389648</ele>
        <time>2014-07-29T08:32:31.000Z</time>
      </trkpt>
      <trkpt lat="48.72633" lon="1.80072">
        <ele>178.39999389648</ele>
        <time>2014-07-29T08:32:38.000Z</time>
      </trkpt>
      <trkpt lat="48.72634" lon="1.80073">
        <ele>178.39999389648</ele>
        <time>2014-07-29T08:32:39.000Z</time>
      </trkpt>
      <trkpt lat="48.72636" lon="1.80076">
        <ele>178.19999694824</ele>
        <time>2014-07-29T08:32:41.000Z</time>
      </trkpt>
      <trkpt lat="48.72643" lon="1.80083">
        <ele>178</ele>
        <time>2014-07-29T08:32:48.000Z</time>
      </trkpt>
      <trkpt lat="48.72649" lon="1.80088">
        <ele>178</ele>
        <time>2014-07-29T08:32:53.000Z</time>
      </trkpt>
      <trkpt lat="48.72654" lon="1.80092">
        <ele>177.80000305176</ele>
        <time>2014-07-29T08:32:58.000Z</time>
      </trkpt>
      <trkpt lat="48.72659" lon="1.80095">
        <ele>177.80000305176</ele>
        <time>2014-07-29T08:33:03.000Z</time>
      </trkpt>
      <trkpt lat="48.7266" lon="1.80097">
        <ele>177.80000305176</ele>
        <time>2014-07-29T08:33:05.000Z</time>
      </trkpt>
      <trkpt lat="48.72668" lon="1.80104">
        <ele>177.60000610352</ele>
        <time>2014-07-29T08:33:12.000Z</time>
      </trkpt>
      <trkpt lat="48.72674" lon="1.80107">
        <ele>177.60000610352</ele>
        <time>2014-07-29T08:33:18.000Z</time>
      </trkpt>
      <trkpt lat="48.72678" lon="1.8011">
        <ele>177.60000610352</ele>
        <time>2014-07-29T08:33:20.000Z</time>
      </trkpt>
      <trkpt lat="48.72687" lon="1.80117">
        <ele>177.39999389648</ele>
        <time>2014-07-29T08:33:27.000Z</time>
      </trkpt>
      <trkpt lat="48.72694" lon="1.80124">
        <ele>176.80000305176</ele>
        <time>2014-07-29T08:33:33.000Z</time>
      </trkpt>
      <trkpt lat="48.727" lon="1.80129">
        <ele>176.19999694824</ele>
        <time>2014-07-29T08:33:38.000Z</time>
      </trkpt>
      <trkpt lat="48.7271" lon="1.80137">
        <ele>175.60000610352</ele>
        <time>2014-07-29T08:33:46.000Z</time>
      </trkpt>
      <trkpt lat="48.72711" lon="1.80139">
        <ele>175.39999389648</ele>
        <time>2014-07-29T08:33:47.000Z</time>
      </trkpt>
      <trkpt lat="48.72721" lon="1.80145">
        <ele>174.80000305176</ele>
        <time>2014-07-29T08:33:54.000Z</time>
      </trkpt>
      <trkpt lat="48.72734" lon="1.80152">
        <ele>173.80000305176</ele>
        <time>2014-07-29T08:34:03.000Z</time>
      </trkpt>
      <trkpt lat="48.72741" lon="1.80156">
        <ele>173.39999389648</ele>
        <time>2014-07-29T08:34:09.000Z</time>
      </trkpt>
      <trkpt lat="48.72742" lon="1.80158">
        <ele>173.39999389648</ele>
        <time>2014-07-29T08:34:10.000Z</time>
      </trkpt>
      <trkpt lat="48.72755" lon="1.80164">
        <ele>172.80000305176</ele>
        <time>2014-07-29T08:34:20.000Z</time>
      </trkpt>
      <trkpt lat="48.72765" lon="1.80173">
        <ele>172.19999694824</ele>
        <time>2014-07-29T08:34:29.000Z</time>
      </trkpt>
      <trkpt lat="48.72773" lon="1.80181">
        <ele>172</ele>
        <time>2014-07-29T08:34:37.000Z</time>
      </trkpt>
      <trkpt lat="48.72776" lon="1.80185">
        <ele>172</ele>
        <time>2014-07-29T08:34:40.000Z</time>
      </trkpt>
      <trkpt lat="48.72789" lon="1.80191">
        <ele>172</ele>
        <time>2014-07-29T08:34:49.000Z</time>
      </trkpt>
      <trkpt lat="48.72795" lon="1.80194">
        <ele>172</ele>
        <time>2014-07-29T08:34:53.000Z</time>
      </trkpt>
      <trkpt lat="48.72803" lon="1.80199">
        <ele>172</ele>
        <time>2014-07-29T08:34:59.000Z</time>
      </trkpt>
      <trkpt lat="48.72813" lon="1.80208">
        <ele>172</ele>
        <time>2014-07-29T08:35:08.000Z</time>
      </trkpt>
      <trkpt lat="48.72821" lon="1.80214">
        <ele>172</ele>
        <time>2014-07-29T08:35:15.000Z</time>
      </trkpt>
      <trkpt lat="48.72828" lon="1.80218">
        <ele>172</ele>
        <time>2014-07-29T08:35:21.000Z</time>
      </trkpt>
      <trkpt lat="48.72837" lon="1.80225">
        <ele>172</ele>
        <time>2014-07-29T08:35:28.000Z</time>
      </trkpt>
      <trkpt lat="48.72845" lon="1.8023">
        <ele>172</ele>
        <time>2014-07-29T08:35:34.000Z</time>
      </trkpt>
      <trkpt lat="48.72852" lon="1.80234">
        <ele>172</ele>
        <time>2014-07-29T08:35:39.000Z</time>
      </trkpt>
      <trkpt lat="48.7286" lon="1.80239">
        <ele>172.39999389648</ele>
        <time>2014-07-29T08:35:45.000Z</time>
      </trkpt>
      <trkpt lat="48.72868" lon="1.80245">
        <ele>173</ele>
        <time>2014-07-29T08:35:52.000Z</time>
      </trkpt>
      <trkpt lat="48.72877" lon="1.80251">
        <ele>173.39999389648</ele>
        <time>2014-07-29T08:35:59.000Z</time>
      </trkpt>
      <trkpt lat="48.72878" lon="1.80252">
        <ele>173.60000610352</ele>
        <time>2014-07-29T08:36:00.000Z</time>
      </trkpt>
      <trkpt lat="48.72882" lon="1.80257">
        <ele>173.80000305176</ele>
        <time>2014-07-29T08:36:04.000Z</time>
      </trkpt>
      <trkpt lat="48.7289" lon="1.80261">
        <ele>174.39999389648</ele>
        <time>2014-07-29T08:36:10.000Z</time>
      </trkpt>
      <trkpt lat="48.729" lon="1.80267">
        <ele>175</ele>
        <time>2014-07-29T08:36:18.000Z</time>
      </trkpt>
      <trkpt lat="48.72906" lon="1.80271">
        <ele>175.39999389648</ele>
        <time>2014-07-29T08:36:23.000Z</time>
      </trkpt>
      <trkpt lat="48.72909" lon="1.80273">
        <ele>175.60000610352</ele>
        <time>2014-07-29T08:36:26.000Z</time>
      </trkpt>
      <trkpt lat="48.72915" lon="1.80279">
        <ele>176</ele>
        <time>2014-07-29T08:36:32.000Z</time>
      </trkpt>
      <trkpt lat="48.7292" lon="1.80282">
        <ele>176.19999694824</ele>
        <time>2014-07-29T08:36:36.000Z</time>
      </trkpt>
      <trkpt lat="48.72928" lon="1.80288">
        <ele>176.80000305176</ele>
        <time>2014-07-29T08:36:43.000Z</time>
      </trkpt>
      <trkpt lat="48.72937" lon="1.80293">
        <ele>177.19999694824</ele>
        <time>2014-07-29T08:36:50.000Z</time>
      </trkpt>
      <trkpt lat="48.72941" lon="1.80293">
        <ele>177.39999389648</ele>
        <time>2014-07-29T08:36:54.000Z</time>
      </trkpt>
      <trkpt lat="48.72943" lon="1.80294">
        <ele>177.39999389648</ele>
        <time>2014-07-29T08:36:56.000Z</time>
      </trkpt>
      <trkpt lat="48.72947" lon="1.803">
        <ele>177.39999389648</ele>
        <time>2014-07-29T08:37:01.000Z</time>
      </trkpt>
      <trkpt lat="48.72948" lon="1.80301">
        <ele>177.39999389648</ele>
        <time>2014-07-29T08:37:02.000Z</time>
      </trkpt>
      <trkpt lat="48.72955" lon="1.80303">
        <ele>177.39999389648</ele>
        <time>2014-07-29T08:37:07.000Z</time>
      </trkpt>
      <trkpt lat="48.72959" lon="1.80305">
        <ele>177.39999389648</ele>
        <time>2014-07-29T08:37:10.000Z</time>
      </trkpt>
      <trkpt lat="48.72962" lon="1.80309">
        <ele>177.39999389648</ele>
        <time>2014-07-29T08:37:14.000Z</time>
      </trkpt>
      <trkpt lat="48.72972" lon="1.80314">
        <ele>177.60000610352</ele>
        <time>2014-07-29T08:37:22.000Z</time>
      </trkpt>
      <trkpt lat="48.72978" lon="1.80319">
        <ele>177.60000610352</ele>
        <time>2014-07-29T08:37:27.000Z</time>
      </trkpt>
      <trkpt lat="48.72986" lon="1.80325">
        <ele>177.60000610352</ele>
        <time>2014-07-29T08:37:34.000Z</time>
      </trkpt>
      <trkpt lat="48.72994" lon="1.80333">
        <ele>177.60000610352</ele>
        <time>2014-07-29T08:37:41.000Z</time>
      </trkpt>
      <trkpt lat="48.72999" lon="1.80336">
        <ele>177.80000305176</ele>
        <time>2014-07-29T08:37:46.000Z</time>
      </trkpt>
      <trkpt lat="48.73004" lon="1.80341">
        <ele>177.80000305176</ele>
        <time>2014-07-29T08:37:53.000Z</time>
      </trkpt>
      <trkpt lat="48.73015" lon="1.80351">
        <ele>178</ele>
        <time>2014-07-29T08:38:02.000Z</time>
      </trkpt>
      <trkpt lat="48.73021" lon="1.80354">
        <ele>178</ele>
        <time>2014-07-29T08:38:06.000Z</time>
      </trkpt>
      <trkpt lat="48.73031" lon="1.80359">
        <ele>178.39999389648</ele>
        <time>2014-07-29T08:38:14.000Z</time>
      </trkpt>
      <trkpt lat="48.73038" lon="1.80362">
        <ele>178.60000610352</ele>
        <time>2014-07-29T08:38:20.000Z</time>
      </trkpt>
      <trkpt lat="48.73047" lon="1.80369">
        <ele>179</ele>
        <time>2014-07-29T08:38:27.000Z</time>
      </trkpt>
      <trkpt lat="48.73056" lon="1.80371">
        <ele>179.19999694824</ele>
        <time>2014-07-29T08:38:34.000Z</time>
      </trkpt>
      <trkpt lat="48.73065" lon="1.80377">
        <ele>179.60000610352</ele>
        <time>2014-07-29T08:38:41.000Z</time>
      </trkpt>
      <trkpt lat="48.73072" lon="1.80382">
        <ele>179.80000305176</ele>
        <time>2014-07-29T08:38:47.000Z</time>
      </trkpt>
      <trkpt lat="48.73075" lon="1.80385">
        <ele>180</ele>
        <time>2014-07-29T08:38:52.000Z</time>
      </trkpt>
      <trkpt lat="48.73084" lon="1.80394">
        <ele>180.19999694824</ele>
        <time>2014-07-29T08:39:15.000Z</time>
      </trkpt>
      <trkpt lat="48.73086" lon="1.80397">
        <ele>180.39999389648</ele>
        <time>2014-07-29T08:39:16.000Z</time>
      </trkpt>
      <trkpt lat="48.73088" lon="1.80398">
        <ele>180.39999389648</ele>
        <time>2014-07-29T08:39:18.000Z</time>
      </trkpt>
      <trkpt lat="48.73099" lon="1.80406">
        <ele>180.80000305176</ele>
        <time>2014-07-29T08:39:27.000Z</time>
      </trkpt>
      <trkpt lat="48.73104" lon="1.80411">
        <ele>180.80000305176</ele>
        <time>2014-07-29T08:39:32.000Z</time>
      </trkpt>
      <trkpt lat="48.73113" lon="1.80421">
        <ele>181.19999694824</ele>
        <time>2014-07-29T08:39:42.000Z</time>
      </trkpt>
      <trkpt lat="48.73122" lon="1.80429">
        <ele>181.60000610352</ele>
        <time>2014-07-29T08:39:51.000Z</time>
      </trkpt>
      <trkpt lat="48.73131" lon="1.80437">
        <ele>181.80000305176</ele>
        <time>2014-07-29T08:40:00.000Z</time>
      </trkpt>
      <trkpt lat="48.73138" lon="1.80445">
        <ele>182.19999694824</ele>
        <time>2014-07-29T08:40:07.000Z</time>
      </trkpt>
      <trkpt lat="48.7315" lon="1.80454">
        <ele>182.60000610352</ele>
        <time>2014-07-29T08:40:16.000Z</time>
      </trkpt>
      <trkpt lat="48.73157" lon="1.80461">
        <ele>182.80000305176</ele>
        <time>2014-07-29T08:40:22.000Z</time>
      </trkpt>
      <trkpt lat="48.73159" lon="1.80463">
        <ele>183</ele>
        <time>2014-07-29T08:40:24.000Z</time>
      </trkpt>
      <trkpt lat="48.73168" lon="1.80468">
        <ele>183.19999694824</ele>
        <time>2014-07-29T08:40:31.000Z</time>
      </trkpt>
      <trkpt lat="48.73176" lon="1.80473">
        <ele>183.39999389648</ele>
        <time>2014-07-29T08:40:39.000Z</time>
      </trkpt>
      <trkpt lat="48.73181" lon="1.80477">
        <ele>183.60000610352</ele>
        <time>2014-07-29T08:40:45.000Z</time>
      </trkpt>
      <trkpt lat="48.73188" lon="1.80482">
        <ele>183.80000305176</ele>
        <time>2014-07-29T08:40:50.000Z</time>
      </trkpt>
      <trkpt lat="48.73199" lon="1.80489">
        <ele>185.19999694824</ele>
        <time>2014-07-29T08:40:57.000Z</time>
      </trkpt>
      <trkpt lat="48.73205" lon="1.80499">
        <ele>185.80000305176</ele>
        <time>2014-07-29T08:41:06.000Z</time>
      </trkpt>
      <trkpt lat="48.73214" lon="1.80504">
        <ele>186.80000305176</ele>
        <time>2014-07-29T08:41:13.000Z</time>
      </trkpt>
      <trkpt lat="48.73218" lon="1.80506">
        <ele>187.19999694824</ele>
        <time>2014-07-29T08:41:19.000Z</time>
      </trkpt>
      <trkpt lat="48.73225" lon="1.80513">
        <ele>188</ele>
        <time>2014-07-29T08:41:33.000Z</time>
      </trkpt>
      <trkpt lat="48.73228" lon="1.80516">
        <ele>188.19999694824</ele>
        <time>2014-07-29T08:41:35.000Z</time>
      </trkpt>
      <trkpt lat="48.73238" lon="1.8052">
        <ele>189.19999694824</ele>
        <time>2014-07-29T08:41:44.000Z</time>
      </trkpt>
      <trkpt lat="48.73246" lon="1.80528">
        <ele>190</ele>
        <time>2014-07-29T08:41:51.000Z</time>
      </trkpt>
      <trkpt lat="48.73252" lon="1.80537">
        <ele>190.80000305176</ele>
        <time>2014-07-29T08:41:58.000Z</time>
      </trkpt>
      <trkpt lat="48.73256" lon="1.80542">
        <ele>191.19999694824</ele>
        <time>2014-07-29T08:42:02.000Z</time>
      </trkpt>
      <trkpt lat="48.73264" lon="1.80549">
        <ele>192.19999694824</ele>
        <time>2014-07-29T08:42:09.000Z</time>
      </trkpt>
      <trkpt lat="48.73265" lon="1.8055">
        <ele>192.19999694824</ele>
        <time>2014-07-29T08:42:10.000Z</time>
      </trkpt>
      <trkpt lat="48.7327" lon="1.80555">
        <ele>192.80000305176</ele>
        <time>2014-07-29T08:42:14.000Z</time>
      </trkpt>
      <trkpt lat="48.73277" lon="1.80563">
        <ele>193</ele>
        <time>2014-07-29T08:42:21.000Z</time>
      </trkpt>
      <trkpt lat="48.73286" lon="1.80571">
        <ele>193.39999389648</ele>
        <time>2014-07-29T08:42:29.000Z</time>
      </trkpt>
      <trkpt lat="48.73293" lon="1.80581">
        <ele>193.60000610352</ele>
        <time>2014-07-29T08:42:37.000Z</time>
      </trkpt>
      <trkpt lat="48.733" lon="1.80583">
        <ele>193.80000305176</ele>
        <time>2014-07-29T08:42:41.000Z</time>
      </trkpt>
      <trkpt lat="48.73306" lon="1.80587">
        <ele>194</ele>
        <time>2014-07-29T08:42:45.000Z</time>
      </trkpt>
      <trkpt lat="48.73313" lon="1.80599">
        <ele>194.39999389648</ele>
        <time>2014-07-29T08:42:53.000Z</time>
      </trkpt>
      <trkpt lat="48.73322" lon="1.80605">
        <ele>194.60000610352</ele>
        <time>2014-07-29T08:43:00.000Z</time>
      </trkpt>
      <trkpt lat="48.73326" lon="1.80607">
        <ele>194.80000305176</ele>
        <time>2014-07-29T08:43:03.000Z</time>
      </trkpt>
      <trkpt lat="48.73335" lon="1.80616">
        <ele>195</ele>
        <time>2014-07-29T08:43:11.000Z</time>
      </trkpt>
      <trkpt lat="48.73343" lon="1.8062">
        <ele>195.39999389648</ele>
        <time>2014-07-29T08:43:16.000Z</time>
      </trkpt>
      <trkpt lat="48.73349" lon="1.80627">
        <ele>195.60000610352</ele>
        <time>2014-07-29T08:43:21.000Z</time>
      </trkpt>
      <trkpt lat="48.73356" lon="1.80637">
        <ele>195.60000610352</ele>
        <time>2014-07-29T08:43:30.000Z</time>
      </trkpt>
      <trkpt lat="48.73369" lon="1.80646">
        <ele>195.39999389648</ele>
        <time>2014-07-29T08:43:39.000Z</time>
      </trkpt>
      <trkpt lat="48.73377" lon="1.80656">
        <ele>195.19999694824</ele>
        <time>2014-07-29T08:43:47.000Z</time>
      </trkpt>
      <trkpt lat="48.73387" lon="1.80667">
        <ele>195</ele>
        <time>2014-07-29T08:43:56.000Z</time>
      </trkpt>
      <trkpt lat="48.73388" lon="1.80668">
        <ele>195</ele>
        <time>2014-07-29T08:43:57.000Z</time>
      </trkpt>
      <trkpt lat="48.7339" lon="1.8067">
        <ele>195</ele>
        <time>2014-07-29T08:43:59.000Z</time>
      </trkpt>
      <trkpt lat="48.73396" lon="1.80675">
        <ele>195</ele>
        <time>2014-07-29T08:44:03.000Z</time>
      </trkpt>
      <trkpt lat="48.734" lon="1.80681">
        <ele>195</ele>
        <time>2014-07-29T08:44:09.000Z</time>
      </trkpt>
      <trkpt lat="48.73406" lon="1.80686">
        <ele>194.80000305176</ele>
        <time>2014-07-29T08:44:14.000Z</time>
      </trkpt>
      <trkpt lat="48.73415" lon="1.80692">
        <ele>194.80000305176</ele>
        <time>2014-07-29T08:44:20.000Z</time>
      </trkpt>
      <trkpt lat="48.73419" lon="1.80697">
        <ele>194.60000610352</ele>
        <time>2014-07-29T08:44:24.000Z</time>
      </trkpt>
      <trkpt lat="48.73423" lon="1.80702">
        <ele>194.60000610352</ele>
        <time>2014-07-29T08:44:28.000Z</time>
      </trkpt>
      <trkpt lat="48.73425" lon="1.80706">
        <ele>194.60000610352</ele>
        <time>2014-07-29T08:44:31.000Z</time>
      </trkpt>
      <trkpt lat="48.73432" lon="1.80711">
        <ele>194.60000610352</ele>
        <time>2014-07-29T08:44:36.000Z</time>
      </trkpt>
      <trkpt lat="48.73436" lon="1.80715">
        <ele>194.39999389648</ele>
        <time>2014-07-29T08:44:40.000Z</time>
      </trkpt>
      <trkpt lat="48.73439" lon="1.80717">
        <ele>194.39999389648</ele>
        <time>2014-07-29T08:44:44.000Z</time>
      </trkpt>
      <trkpt lat="48.73446" lon="1.80718">
        <ele>194.39999389648</ele>
        <time>2014-07-29T08:44:49.000Z</time>
      </trkpt>
      <trkpt lat="48.73453" lon="1.80726">
        <ele>194.39999389648</ele>
        <time>2014-07-29T08:44:56.000Z</time>
      </trkpt>
      <trkpt lat="48.73461" lon="1.80734">
        <ele>194.39999389648</ele>
        <time>2014-07-29T08:45:03.000Z</time>
      </trkpt>
      <trkpt lat="48.73464" lon="1.80737">
        <ele>194.39999389648</ele>
        <time>2014-07-29T08:45:05.000Z</time>
      </trkpt>
      <trkpt lat="48.73472" lon="1.80743">
        <ele>194.19999694824</ele>
        <time>2014-07-29T08:45:11.000Z</time>
      </trkpt>
      <trkpt lat="48.73478" lon="1.8075">
        <ele>194.39999389648</ele>
        <time>2014-07-29T08:45:17.000Z</time>
      </trkpt>
      <trkpt lat="48.7348" lon="1.80752">
        <ele>194.39999389648</ele>
        <time>2014-07-29T08:45:20.000Z</time>
      </trkpt>
      <trkpt lat="48.73485" lon="1.80759">
        <ele>194.39999389648</ele>
        <time>2014-07-29T08:45:25.000Z</time>
      </trkpt>
      <trkpt lat="48.73493" lon="1.80771">
        <ele>194.39999389648</ele>
        <time>2014-07-29T08:45:32.000Z</time>
      </trkpt>
      <trkpt lat="48.73501" lon="1.80779">
        <ele>194.39999389648</ele>
        <time>2014-07-29T08:45:39.000Z</time>
      </trkpt>
      <trkpt lat="48.73509" lon="1.80786">
        <ele>194.39999389648</ele>
        <time>2014-07-29T08:45:45.000Z</time>
      </trkpt>
      <trkpt lat="48.73515" lon="1.80793">
        <ele>194.39999389648</ele>
        <time>2014-07-29T08:45:52.000Z</time>
      </trkpt>
      <trkpt lat="48.73519" lon="1.80797">
        <ele>194.39999389648</ele>
        <time>2014-07-29T08:45:57.000Z</time>
      </trkpt>
      <trkpt lat="48.73527" lon="1.80806">
        <ele>194.39999389648</ele>
        <time>2014-07-29T08:46:04.000Z</time>
      </trkpt>
      <trkpt lat="48.73537" lon="1.80814">
        <ele>194.19999694824</ele>
        <time>2014-07-29T08:46:12.000Z</time>
      </trkpt>
      <trkpt lat="48.73544" lon="1.80818">
        <ele>194</ele>
        <time>2014-07-29T08:46:17.000Z</time>
      </trkpt>
      <trkpt lat="48.73552" lon="1.80824">
        <ele>193.80000305176</ele>
        <time>2014-07-29T08:46:23.000Z</time>
      </trkpt>
      <trkpt lat="48.73557" lon="1.80832">
        <ele>193.60000610352</ele>
        <time>2014-07-29T08:46:29.000Z</time>
      </trkpt>
      <trkpt lat="48.73563" lon="1.80827">
        <ele>193.39999389648</ele>
        <time>2014-07-29T08:46:35.000Z</time>
      </trkpt>
      <trkpt lat="48.73567" lon="1.80824">
        <ele>193.39999389648</ele>
        <time>2014-07-29T08:46:39.000Z</time>
      </trkpt>
      <trkpt lat="48.73574" lon="1.80822">
        <ele>193</ele>
        <time>2014-07-29T08:46:44.000Z</time>
      </trkpt>
      <trkpt lat="48.73576" lon="1.80808">
        <ele>192.60000610352</ele>
        <time>2014-07-29T08:46:51.000Z</time>
      </trkpt>
      <trkpt lat="48.73573" lon="1.808">
        <ele>192.60000610352</ele>
        <time>2014-07-29T08:46:55.000Z</time>
      </trkpt>
      <trkpt lat="48.73569" lon="1.80787">
        <ele>192.39999389648</ele>
        <time>2014-07-29T08:47:02.000Z</time>
      </trkpt>
      <trkpt lat="48.73571" lon="1.80777">
        <ele>192.80000305176</ele>
        <time>2014-07-29T08:47:05.000Z</time>
      </trkpt>
      <trkpt lat="48.73569" lon="1.80756">
        <ele>193.60000610352</ele>
        <time>2014-07-29T08:47:12.000Z</time>
      </trkpt>
      <trkpt lat="48.73567" lon="1.80747">
        <ele>193.80000305176</ele>
        <time>2014-07-29T08:47:16.000Z</time>
      </trkpt>
      <trkpt lat="48.73567" lon="1.80732">
        <ele>194.19999694824</ele>
        <time>2014-07-29T08:47:22.000Z</time>
      </trkpt>
      <trkpt lat="48.7357" lon="1.80715">
        <ele>194.39999389648</ele>
        <time>2014-07-29T08:47:29.000Z</time>
      </trkpt>
      <trkpt lat="48.73568" lon="1.80702">
        <ele>194.60000610352</ele>
        <time>2014-07-29T08:47:35.000Z</time>
      </trkpt>
      <trkpt lat="48.73568" lon="1.80691">
        <ele>194.80000305176</ele>
        <time>2014-07-29T08:47:41.000Z</time>
      </trkpt>
      <trkpt lat="48.73564" lon="1.80676">
        <ele>194.80000305176</ele>
        <time>2014-07-29T08:47:47.000Z</time>
      </trkpt>
      <trkpt lat="48.73567" lon="1.80658">
        <ele>195</ele>
        <time>2014-07-29T08:47:55.000Z</time>
      </trkpt>
      <trkpt lat="48.73567" lon="1.80649">
        <ele>195.19999694824</ele>
        <time>2014-07-29T08:48:00.000Z</time>
      </trkpt>
      <trkpt lat="48.73567" lon="1.80639">
        <ele>195.19999694824</ele>
        <time>2014-07-29T08:48:06.000Z</time>
      </trkpt>
      <trkpt lat="48.73569" lon="1.8063">
        <ele>195.39999389648</ele>
        <time>2014-07-29T08:48:10.000Z</time>
      </trkpt>
      <trkpt lat="48.73569" lon="1.80619">
        <ele>195.60000610352</ele>
        <time>2014-07-29T08:48:14.000Z</time>
      </trkpt>
      <trkpt lat="48.73568" lon="1.80601">
        <ele>195.80000305176</ele>
        <time>2014-07-29T08:48:21.000Z</time>
      </trkpt>
      <trkpt lat="48.73571" lon="1.80588">
        <ele>196</ele>
        <time>2014-07-29T08:48:27.000Z</time>
      </trkpt>
      <trkpt lat="48.73568" lon="1.80577">
        <ele>196</ele>
        <time>2014-07-29T08:48:32.000Z</time>
      </trkpt>
      <trkpt lat="48.73567" lon="1.80571">
        <ele>196.19999694824</ele>
        <time>2014-07-29T08:48:34.000Z</time>
      </trkpt>
      <trkpt lat="48.73566" lon="1.80559">
        <ele>196.19999694824</ele>
        <time>2014-07-29T08:48:39.000Z</time>
      </trkpt>
      <trkpt lat="48.73564" lon="1.80542">
        <ele>196.39999389648</ele>
        <time>2014-07-29T08:48:48.000Z</time>
      </trkpt>
      <trkpt lat="48.73565" lon="1.80526">
        <ele>196.39999389648</ele>
        <time>2014-07-29T08:48:55.000Z</time>
      </trkpt>
      <trkpt lat="48.73564" lon="1.80524">
        <ele>196.39999389648</ele>
        <time>2014-07-29T08:48:56.000Z</time>
      </trkpt>
      <trkpt lat="48.73563" lon="1.80507">
        <ele>196.19999694824</ele>
        <time>2014-07-29T08:49:03.000Z</time>
      </trkpt>
      <trkpt lat="48.7356" lon="1.80492">
        <ele>196</ele>
        <time>2014-07-29T08:49:09.000Z</time>
      </trkpt>
      <trkpt lat="48.73561" lon="1.80481">
        <ele>195.80000305176</ele>
        <time>2014-07-29T08:49:15.000Z</time>
      </trkpt>
      <trkpt lat="48.73561" lon="1.80469">
        <ele>195.19999694824</ele>
        <time>2014-07-29T08:49:21.000Z</time>
      </trkpt>
      <trkpt lat="48.73559" lon="1.80456">
        <ele>194.80000305176</ele>
        <time>2014-07-29T08:49:26.000Z</time>
      </trkpt>
      <trkpt lat="48.73558" lon="1.80453">
        <ele>194.80000305176</ele>
        <time>2014-07-29T08:49:27.000Z</time>
      </trkpt>
      <trkpt lat="48.73557" lon="1.80449">
        <ele>194.60000610352</ele>
        <time>2014-07-29T08:49:29.000Z</time>
      </trkpt>
      <trkpt lat="48.73558" lon="1.80435">
        <ele>194.19999694824</ele>
        <time>2014-07-29T08:49:35.000Z</time>
      </trkpt>
      <trkpt lat="48.7356" lon="1.80432">
        <ele>194.19999694824</ele>
        <time>2014-07-29T08:49:37.000Z</time>
      </trkpt>
      <trkpt lat="48.7356" lon="1.80415">
        <ele>194</ele>
        <time>2014-07-29T08:49:44.000Z</time>
      </trkpt>
      <trkpt lat="48.73559" lon="1.80403">
        <ele>194</ele>
        <time>2014-07-29T08:49:49.000Z</time>
      </trkpt>
      <trkpt lat="48.73555" lon="1.80393">
        <ele>194</ele>
        <time>2014-07-29T08:49:54.000Z</time>
      </trkpt>
      <trkpt lat="48.7356" lon="1.80381">
        <ele>194.19999694824</ele>
        <time>2014-07-29T08:50:00.000Z</time>
      </trkpt>
      <trkpt lat="48.73558" lon="1.80362">
        <ele>194.39999389648</ele>
        <time>2014-07-29T08:50:08.000Z</time>
      </trkpt>
      <trkpt lat="48.73554" lon="1.80345">
        <ele>194.60000610352</ele>
        <time>2014-07-29T08:50:16.000Z</time>
      </trkpt>
      <trkpt lat="48.73554" lon="1.80343">
        <ele>194.60000610352</ele>
        <time>2014-07-29T08:50:17.000Z</time>
      </trkpt>
      <trkpt lat="48.73554" lon="1.80333">
        <ele>194.60000610352</ele>
        <time>2014-07-29T08:50:21.000Z</time>
      </trkpt>
      <trkpt lat="48.73552" lon="1.80324">
        <ele>194.80000305176</ele>
        <time>2014-07-29T08:50:25.000Z</time>
      </trkpt>
      <trkpt lat="48.73555" lon="1.80307">
        <ele>194.80000305176</ele>
        <time>2014-07-29T08:50:32.000Z</time>
      </trkpt>
      <trkpt lat="48.73555" lon="1.803">
        <ele>194.80000305176</ele>
        <time>2014-07-29T08:50:35.000Z</time>
      </trkpt>
      <trkpt lat="48.73554" lon="1.80284">
        <ele>194.80000305176</ele>
        <time>2014-07-29T08:50:42.000Z</time>
      </trkpt>
      <trkpt lat="48.73552" lon="1.80269">
        <ele>194.80000305176</ele>
        <time>2014-07-29T08:50:48.000Z</time>
      </trkpt>
      <trkpt lat="48.7355" lon="1.80259">
        <ele>194.39999389648</ele>
        <time>2014-07-29T08:50:53.000Z</time>
      </trkpt>
      <trkpt lat="48.73551" lon="1.80251">
        <ele>194.19999694824</ele>
        <time>2014-07-29T08:50:57.000Z</time>
      </trkpt>
      <trkpt lat="48.73551" lon="1.8024">
        <ele>194</ele>
        <time>2014-07-29T08:51:02.000Z</time>
      </trkpt>
      <trkpt lat="48.73549" lon="1.80235">
        <ele>194</ele>
        <time>2014-07-29T08:51:04.000Z</time>
      </trkpt>
      <trkpt lat="48.73548" lon="1.80222">
        <ele>193.80000305176</ele>
        <time>2014-07-29T08:51:10.000Z</time>
      </trkpt>
      <trkpt lat="48.73549" lon="1.80207">
        <ele>193.60000610352</ele>
        <time>2014-07-29T08:51:17.000Z</time>
      </trkpt>
      <trkpt lat="48.73548" lon="1.80197">
        <ele>193.60000610352</ele>
        <time>2014-07-29T08:51:21.000Z</time>
      </trkpt>
      <trkpt lat="48.73546" lon="1.80186">
        <ele>193.39999389648</ele>
        <time>2014-07-29T08:51:26.000Z</time>
      </trkpt>
      <trkpt lat="48.73546" lon="1.80176">
        <ele>193.39999389648</ele>
        <time>2014-07-29T08:51:31.000Z</time>
      </trkpt>
      <trkpt lat="48.73546" lon="1.80164">
        <ele>193.39999389648</ele>
        <time>2014-07-29T08:51:37.000Z</time>
      </trkpt>
      <trkpt lat="48.73546" lon="1.8015">
        <ele>193.19999694824</ele>
        <time>2014-07-29T08:51:43.000Z</time>
      </trkpt>
      <trkpt lat="48.73543" lon="1.80139">
        <ele>193</ele>
        <time>2014-07-29T08:51:48.000Z</time>
      </trkpt>
      <trkpt lat="48.73543" lon="1.80137">
        <ele>193</ele>
        <time>2014-07-29T08:51:49.000Z</time>
      </trkpt>
      <trkpt lat="48.7354" lon="1.80126">
        <ele>192.80000305176</ele>
        <time>2014-07-29T08:51:55.000Z</time>
      </trkpt>
      <trkpt lat="48.73541" lon="1.80123">
        <ele>192.80000305176</ele>
        <time>2014-07-29T08:51:56.000Z</time>
      </trkpt>
      <trkpt lat="48.7354" lon="1.80107">
        <ele>192.60000610352</ele>
        <time>2014-07-29T08:52:03.000Z</time>
      </trkpt>
      <trkpt lat="48.7354" lon="1.80103">
        <ele>192.60000610352</ele>
        <time>2014-07-29T08:52:04.000Z</time>
      </trkpt>
      <trkpt lat="48.73538" lon="1.80086">
        <ele>192.39999389648</ele>
        <time>2014-07-29T08:52:11.000Z</time>
      </trkpt>
      <trkpt lat="48.73539" lon="1.80084">
        <ele>192.19999694824</ele>
        <time>2014-07-29T08:52:12.000Z</time>
      </trkpt>
      <trkpt lat="48.73539" lon="1.80075">
        <ele>192</ele>
        <time>2014-07-29T08:52:18.000Z</time>
      </trkpt>
      <trkpt lat="48.73541" lon="1.80059">
        <ele>191.80000305176</ele>
        <time>2014-07-29T08:52:25.000Z</time>
      </trkpt>
      <trkpt lat="48.73543" lon="1.80056">
        <ele>191.80000305176</ele>
        <time>2014-07-29T08:52:27.000Z</time>
      </trkpt>
      <trkpt lat="48.73542" lon="1.80045">
        <ele>191.80000305176</ele>
        <time>2014-07-29T08:52:32.000Z</time>
      </trkpt>
      <trkpt lat="48.73543" lon="1.80029">
        <ele>191.80000305176</ele>
        <time>2014-07-29T08:52:39.000Z</time>
      </trkpt>
      <trkpt lat="48.73541" lon="1.80012">
        <ele>191.80000305176</ele>
        <time>2014-07-29T08:52:46.000Z</time>
      </trkpt>
      <trkpt lat="48.73541" lon="1.80005">
        <ele>191.60000610352</ele>
        <time>2014-07-29T08:52:49.000Z</time>
      </trkpt>
      <trkpt lat="48.73543" lon="1.79994">
        <ele>191.39999389648</ele>
        <time>2014-07-29T08:52:55.000Z</time>
      </trkpt>
      <trkpt lat="48.7354" lon="1.79986">
        <ele>191.39999389648</ele>
        <time>2014-07-29T08:52:59.000Z</time>
      </trkpt>
      <trkpt lat="48.7354" lon="1.79972">
        <ele>191.60000610352</ele>
        <time>2014-07-29T08:53:05.000Z</time>
      </trkpt>
      <trkpt lat="48.73539" lon="1.79965">
        <ele>191.60000610352</ele>
        <time>2014-07-29T08:53:07.000Z</time>
      </trkpt>
      <trkpt lat="48.73534" lon="1.7995">
        <ele>192</ele>
        <time>2014-07-29T08:53:13.000Z</time>
      </trkpt>
      <trkpt lat="48.73534" lon="1.79947">
        <ele>192</ele>
        <time>2014-07-29T08:53:14.000Z</time>
      </trkpt>
      <trkpt lat="48.73535" lon="1.79926">
        <ele>192.19999694824</ele>
        <time>2014-07-29T08:53:23.000Z</time>
      </trkpt>
      <trkpt lat="48.73535" lon="1.79907">
        <ele>192.19999694824</ele>
        <time>2014-07-29T08:53:31.000Z</time>
      </trkpt>
      <trkpt lat="48.73535" lon="1.79895">
        <ele>192.39999389648</ele>
        <time>2014-07-29T08:53:37.000Z</time>
      </trkpt>
      <trkpt lat="48.73534" lon="1.79882">
        <ele>192.80000305176</ele>
        <time>2014-07-29T08:53:43.000Z</time>
      </trkpt>
      <trkpt lat="48.73532" lon="1.79871">
        <ele>193.19999694824</ele>
        <time>2014-07-29T08:53:47.000Z</time>
      </trkpt>
      <trkpt lat="48.73532" lon="1.79867">
        <ele>193.19999694824</ele>
        <time>2014-07-29T08:53:49.000Z</time>
      </trkpt>
      <trkpt lat="48.7353" lon="1.79853">
        <ele>193.80000305176</ele>
        <time>2014-07-29T08:53:55.000Z</time>
      </trkpt>
      <trkpt lat="48.73529" lon="1.79837">
        <ele>194.19999694824</ele>
        <time>2014-07-29T08:54:02.000Z</time>
      </trkpt>
      <trkpt lat="48.73526" lon="1.79828">
        <ele>194.60000610352</ele>
        <time>2014-07-29T08:54:06.000Z</time>
      </trkpt>
      <trkpt lat="48.73526" lon="1.79812">
        <ele>194.39999389648</ele>
        <time>2014-07-29T08:54:13.000Z</time>
      </trkpt>
      <trkpt lat="48.73526" lon="1.79795">
        <ele>194</ele>
        <time>2014-07-29T08:54:20.000Z</time>
      </trkpt>
      <trkpt lat="48.73528" lon="1.79782">
        <ele>193.60000610352</ele>
        <time>2014-07-29T08:54:26.000Z</time>
      </trkpt>
      <trkpt lat="48.73525" lon="1.79773">
        <ele>193.39999389648</ele>
        <time>2014-07-29T08:54:30.000Z</time>
      </trkpt>
      <trkpt lat="48.73524" lon="1.79768">
        <ele>193.39999389648</ele>
        <time>2014-07-29T08:54:32.000Z</time>
      </trkpt>
      <trkpt lat="48.73525" lon="1.7976">
        <ele>193.19999694824</ele>
        <time>2014-07-29T08:54:36.000Z</time>
      </trkpt>
      <trkpt lat="48.73519" lon="1.79739">
        <ele>193</ele>
        <time>2014-07-29T08:54:44.000Z</time>
      </trkpt>
      <trkpt lat="48.73519" lon="1.79726">
        <ele>193</ele>
        <time>2014-07-29T08:54:50.000Z</time>
      </trkpt>
      <trkpt lat="48.73522" lon="1.79718">
        <ele>192.80000305176</ele>
        <time>2014-07-29T08:54:55.000Z</time>
      </trkpt>
      <trkpt lat="48.73522" lon="1.79708">
        <ele>193</ele>
        <time>2014-07-29T08:55:00.000Z</time>
      </trkpt>
      <trkpt lat="48.73522" lon="1.79706">
        <ele>192.80000305176</ele>
        <time>2014-07-29T08:55:01.000Z</time>
      </trkpt>
      <trkpt lat="48.73522" lon="1.79697">
        <ele>193</ele>
        <time>2014-07-29T08:55:06.000Z</time>
      </trkpt>
      <trkpt lat="48.73524" lon="1.79685">
        <ele>192.80000305176</ele>
        <time>2014-07-29T08:55:13.000Z</time>
      </trkpt>
      <trkpt lat="48.73524" lon="1.79678">
        <ele>192.80000305176</ele>
        <time>2014-07-29T08:55:17.000Z</time>
      </trkpt>
      <trkpt lat="48.73523" lon="1.79664">
        <ele>192.80000305176</ele>
        <time>2014-07-29T08:55:23.000Z</time>
      </trkpt>
      <trkpt lat="48.73523" lon="1.79651">
        <ele>192.80000305176</ele>
        <time>2014-07-29T08:55:28.000Z</time>
      </trkpt>
      <trkpt lat="48.73522" lon="1.79637">
        <ele>192.80000305176</ele>
        <time>2014-07-29T08:55:34.000Z</time>
      </trkpt>
      <trkpt lat="48.73522" lon="1.79635">
        <ele>192.60000610352</ele>
        <time>2014-07-29T08:55:35.000Z</time>
      </trkpt>
      <trkpt lat="48.73523" lon="1.7963">
        <ele>192.60000610352</ele>
        <time>2014-07-29T08:55:38.000Z</time>
      </trkpt>
      <trkpt lat="48.73522" lon="1.79623">
        <ele>192.60000610352</ele>
        <time>2014-07-29T08:55:42.000Z</time>
      </trkpt>
      <trkpt lat="48.73518" lon="1.79603">
        <ele>192.39999389648</ele>
        <time>2014-07-29T08:55:49.000Z</time>
      </trkpt>
      <trkpt lat="48.73517" lon="1.79587">
        <ele>192.19999694824</ele>
        <time>2014-07-29T08:55:56.000Z</time>
      </trkpt>
      <trkpt lat="48.73518" lon="1.79576">
        <ele>192</ele>
        <time>2014-07-29T08:56:00.000Z</time>
      </trkpt>
      <trkpt lat="48.73515" lon="1.79569">
        <ele>192</ele>
        <time>2014-07-29T08:56:04.000Z</time>
      </trkpt>
      <trkpt lat="48.73514" lon="1.79552">
        <ele>192.19999694824</ele>
        <time>2014-07-29T08:56:12.000Z</time>
      </trkpt>
      <trkpt lat="48.73514" lon="1.79536">
        <ele>192.39999389648</ele>
        <time>2014-07-29T08:56:20.000Z</time>
      </trkpt>
      <trkpt lat="48.73515" lon="1.79531">
        <ele>192.39999389648</ele>
        <time>2014-07-29T08:56:23.000Z</time>
      </trkpt>
      <trkpt lat="48.73517" lon="1.79528">
        <ele>192.60000610352</ele>
        <time>2014-07-29T08:56:25.000Z</time>
      </trkpt>
      <trkpt lat="48.73515" lon="1.79519">
        <ele>192.60000610352</ele>
        <time>2014-07-29T08:56:29.000Z</time>
      </trkpt>
      <trkpt lat="48.7351" lon="1.79503">
        <ele>192.80000305176</ele>
        <time>2014-07-29T08:56:35.000Z</time>
      </trkpt>
      <trkpt lat="48.7351" lon="1.79493">
        <ele>193</ele>
        <time>2014-07-29T08:56:40.000Z</time>
      </trkpt>
      <trkpt lat="48.73511" lon="1.79477">
        <ele>192.80000305176</ele>
        <time>2014-07-29T08:56:49.000Z</time>
      </trkpt>
      <trkpt lat="48.73509" lon="1.79467">
        <ele>192.80000305176</ele>
        <time>2014-07-29T08:56:54.000Z</time>
      </trkpt>
      <trkpt lat="48.73507" lon="1.79464">
        <ele>192.80000305176</ele>
        <time>2014-07-29T08:56:56.000Z</time>
      </trkpt>
      <trkpt lat="48.73506" lon="1.79448">
        <ele>192.80000305176</ele>
        <time>2014-07-29T08:57:03.000Z</time>
      </trkpt>
      <trkpt lat="48.73508" lon="1.79441">
        <ele>192.80000305176</ele>
        <time>2014-07-29T08:57:06.000Z</time>
      </trkpt>
      <trkpt lat="48.73513" lon="1.79417">
        <ele>193</ele>
        <time>2014-07-29T08:57:16.000Z</time>
      </trkpt>
      <trkpt lat="48.73513" lon="1.79397">
        <ele>192.60000610352</ele>
        <time>2014-07-29T08:57:25.000Z</time>
      </trkpt>
      <trkpt lat="48.73514" lon="1.79384">
        <ele>192</ele>
        <time>2014-07-29T08:57:32.000Z</time>
      </trkpt>
      <trkpt lat="48.73519" lon="1.79375">
        <ele>191.60000610352</ele>
        <time>2014-07-29T08:57:38.000Z</time>
      </trkpt>
      <trkpt lat="48.73522" lon="1.79372">
        <ele>191.39999389648</ele>
        <time>2014-07-29T08:57:41.000Z</time>
      </trkpt>
      <trkpt lat="48.73524" lon="1.79358">
        <ele>190.80000305176</ele>
        <time>2014-07-29T08:57:48.000Z</time>
      </trkpt>
      <trkpt lat="48.73526" lon="1.7935">
        <ele>190.39999389648</ele>
        <time>2014-07-29T08:57:51.000Z</time>
      </trkpt>
      <trkpt lat="48.73531" lon="1.79336">
        <ele>189.60000610352</ele>
        <time>2014-07-29T08:57:57.000Z</time>
      </trkpt>
      <trkpt lat="48.73535" lon="1.79322">
        <ele>189.39999389648</ele>
        <time>2014-07-29T08:58:04.000Z</time>
      </trkpt>
      <trkpt lat="48.73536" lon="1.79315">
        <ele>189.19999694824</ele>
        <time>2014-07-29T08:58:08.000Z</time>
      </trkpt>
      <trkpt lat="48.7354" lon="1.79301">
        <ele>188.80000305176</ele>
        <time>2014-07-29T08:58:16.000Z</time>
      </trkpt>
      <trkpt lat="48.73542" lon="1.79284">
        <ele>188.19999694824</ele>
        <time>2014-07-29T08:58:25.000Z</time>
      </trkpt>
      <trkpt lat="48.73546" lon="1.79273">
        <ele>187.80000305176</ele>
        <time>2014-07-29T08:58:31.000Z</time>
      </trkpt>
      <trkpt lat="48.73546" lon="1.79271">
        <ele>187.80000305176</ele>
        <time>2014-07-29T08:58:32.000Z</time>
      </trkpt>
      <trkpt lat="48.73548" lon="1.7926">
        <ele>187.39999389648</ele>
        <time>2014-07-29T08:58:37.000Z</time>
      </trkpt>
      <trkpt lat="48.73552" lon="1.7925">
        <ele>187</ele>
        <time>2014-07-29T08:58:42.000Z</time>
      </trkpt>
      <trkpt lat="48.73554" lon="1.79241">
        <ele>186.60000610352</ele>
        <time>2014-07-29T08:58:47.000Z</time>
      </trkpt>
      <trkpt lat="48.7356" lon="1.79227">
        <ele>186.19999694824</ele>
        <time>2014-07-29T08:58:55.000Z</time>
      </trkpt>
      <trkpt lat="48.7356" lon="1.79225">
        <ele>186.19999694824</ele>
        <time>2014-07-29T08:58:56.000Z</time>
      </trkpt>
      <trkpt lat="48.73563" lon="1.79209">
        <ele>185.80000305176</ele>
        <time>2014-07-29T08:59:04.000Z</time>
      </trkpt>
      <trkpt lat="48.73566" lon="1.79193">
        <ele>185.39999389648</ele>
        <time>2014-07-29T08:59:11.000Z</time>
      </trkpt>
      <trkpt lat="48.73569" lon="1.7918">
        <ele>185.19999694824</ele>
        <time>2014-07-29T08:59:18.000Z</time>
      </trkpt>
      <trkpt lat="48.73571" lon="1.79172">
        <ele>185</ele>
        <time>2014-07-29T08:59:22.000Z</time>
      </trkpt>
      <trkpt lat="48.73573" lon="1.79164">
        <ele>184.80000305176</ele>
        <time>2014-07-29T08:59:26.000Z</time>
      </trkpt>
      <trkpt lat="48.73576" lon="1.79148">
        <ele>184.60000610352</ele>
        <time>2014-07-29T08:59:34.000Z</time>
      </trkpt>
      <trkpt lat="48.73577" lon="1.79146">
        <ele>184.39999389648</ele>
        <time>2014-07-29T08:59:35.000Z</time>
      </trkpt>
      <trkpt lat="48.7358" lon="1.79136">
        <ele>184.19999694824</ele>
        <time>2014-07-29T08:59:40.000Z</time>
      </trkpt>
      <trkpt lat="48.73584" lon="1.79119">
        <ele>184.19999694824</ele>
        <time>2014-07-29T08:59:48.000Z</time>
      </trkpt>
      <trkpt lat="48.73588" lon="1.79107">
        <ele>184.39999389648</ele>
        <time>2014-07-29T08:59:53.000Z</time>
      </trkpt>
      <trkpt lat="48.73589" lon="1.79104">
        <ele>184.39999389648</ele>
        <time>2014-07-29T08:59:54.000Z</time>
      </trkpt>
      <trkpt lat="48.73591" lon="1.79093">
        <ele>184.60000610352</ele>
        <time>2014-07-29T08:59:59.000Z</time>
      </trkpt>
      <trkpt lat="48.73594" lon="1.79078">
        <ele>184.60000610352</ele>
        <time>2014-07-29T09:00:06.000Z</time>
      </trkpt>
      <trkpt lat="48.73597" lon="1.79066">
        <ele>184.80000305176</ele>
        <time>2014-07-29T09:00:12.000Z</time>
      </trkpt>
      <trkpt lat="48.73599" lon="1.79054">
        <ele>184.80000305176</ele>
        <time>2014-07-29T09:00:17.000Z</time>
      </trkpt>
      <trkpt lat="48.73599" lon="1.79042">
        <ele>184.80000305176</ele>
        <time>2014-07-29T09:00:22.000Z</time>
      </trkpt>
      <trkpt lat="48.736" lon="1.79038">
        <ele>185</ele>
        <time>2014-07-29T09:00:24.000Z</time>
      </trkpt>
      <trkpt lat="48.736" lon="1.79032">
        <ele>185</ele>
        <time>2014-07-29T09:00:27.000Z</time>
      </trkpt>
      <trkpt lat="48.73601" lon="1.79022">
        <ele>185</ele>
        <time>2014-07-29T09:00:31.000Z</time>
      </trkpt>
      <trkpt lat="48.73599" lon="1.79006">
        <ele>184.80000305176</ele>
        <time>2014-07-29T09:00:38.000Z</time>
      </trkpt>
      <trkpt lat="48.736" lon="1.79001">
        <ele>184.80000305176</ele>
        <time>2014-07-29T09:00:40.000Z</time>
      </trkpt>
      <trkpt lat="48.736" lon="1.7899">
        <ele>185</ele>
        <time>2014-07-29T09:00:46.000Z</time>
      </trkpt>
      <trkpt lat="48.73601" lon="1.78981">
        <ele>184.80000305176</ele>
        <time>2014-07-29T09:00:51.000Z</time>
      </trkpt>
      <trkpt lat="48.73599" lon="1.78977">
        <ele>184.60000610352</ele>
        <time>2014-07-29T09:00:53.000Z</time>
      </trkpt>
      <trkpt lat="48.73603" lon="1.7896">
        <ele>184.19999694824</ele>
        <time>2014-07-29T09:01:01.000Z</time>
      </trkpt>
      <trkpt lat="48.73604" lon="1.78958">
        <ele>184.19999694824</ele>
        <time>2014-07-29T09:01:02.000Z</time>
      </trkpt>
      <trkpt lat="48.73608" lon="1.78939">
        <ele>183.80000305176</ele>
        <time>2014-07-29T09:01:10.000Z</time>
      </trkpt>
      <trkpt lat="48.7361" lon="1.78927">
        <ele>183.60000610352</ele>
        <time>2014-07-29T09:01:16.000Z</time>
      </trkpt>
      <trkpt lat="48.73613" lon="1.78916">
        <ele>183.39999389648</ele>
        <time>2014-07-29T09:01:21.000Z</time>
      </trkpt>
      <trkpt lat="48.73616" lon="1.78904">
        <ele>183.39999389648</ele>
        <time>2014-07-29T09:01:27.000Z</time>
      </trkpt>
      <trkpt lat="48.73621" lon="1.78887">
        <ele>183</ele>
        <time>2014-07-29T09:01:36.000Z</time>
      </trkpt>
      <trkpt lat="48.73625" lon="1.78866">
        <ele>182.39999389648</ele>
        <time>2014-07-29T09:01:46.000Z</time>
      </trkpt>
      <trkpt lat="48.73627" lon="1.78852">
        <ele>182</ele>
        <time>2014-07-29T09:01:53.000Z</time>
      </trkpt>
      <trkpt lat="48.73623" lon="1.78848">
        <ele>181.60000610352</ele>
        <time>2014-07-29T09:01:59.000Z</time>
      </trkpt>
      <trkpt lat="48.7361" lon="1.78837">
        <ele>180.80000305176</ele>
        <time>2014-07-29T09:02:08.000Z</time>
      </trkpt>
      <trkpt lat="48.73592" lon="1.78821">
        <ele>179.60000610352</ele>
        <time>2014-07-29T09:02:22.000Z</time>
      </trkpt>
      <trkpt lat="48.73581" lon="1.78809">
        <ele>178.60000610352</ele>
        <time>2014-07-29T09:02:31.000Z</time>
      </trkpt>
      <trkpt lat="48.7358" lon="1.78807">
        <ele>178.39999389648</ele>
        <time>2014-07-29T09:02:32.000Z</time>
      </trkpt>
      <trkpt lat="48.73571" lon="1.78798">
        <ele>177.60000610352</ele>
        <time>2014-07-29T09:02:39.000Z</time>
      </trkpt>
      <trkpt lat="48.73565" lon="1.78791">
        <ele>177.19999694824</ele>
        <time>2014-07-29T09:02:44.000Z</time>
      </trkpt>
      <trkpt lat="48.73554" lon="1.78783">
        <ele>176.39999389648</ele>
        <time>2014-07-29T09:02:51.000Z</time>
      </trkpt>
      <trkpt lat="48.73545" lon="1.78774">
        <ele>175.60000610352</ele>
        <time>2014-07-29T09:02:58.000Z</time>
      </trkpt>
      <trkpt lat="48.73529" lon="1.78758">
        <ele>174.19999694824</ele>
        <time>2014-07-29T09:03:09.000Z</time>
      </trkpt>
      <trkpt lat="48.73519" lon="1.78749">
        <ele>173.39999389648</ele>
        <time>2014-07-29T09:03:17.000Z</time>
      </trkpt>
      <trkpt lat="48.7351" lon="1.78741">
        <ele>172.80000305176</ele>
        <time>2014-07-29T09:03:25.000Z</time>
      </trkpt>
      <trkpt lat="48.73498" lon="1.7873">
        <ele>172</ele>
        <time>2014-07-29T09:03:34.000Z</time>
      </trkpt>
      <trkpt lat="48.7349" lon="1.78722">
        <ele>171.39999389648</ele>
        <time>2014-07-29T09:03:41.000Z</time>
      </trkpt>
      <trkpt lat="48.73483" lon="1.78713">
        <ele>171</ele>
        <time>2014-07-29T09:03:48.000Z</time>
      </trkpt>
      <trkpt lat="48.73474" lon="1.78704">
        <ele>170.19999694824</ele>
        <time>2014-07-29T09:03:55.000Z</time>
      </trkpt>
      <trkpt lat="48.73461" lon="1.78693">
        <ele>169.39999389648</ele>
        <time>2014-07-29T09:04:04.000Z</time>
      </trkpt>
      <trkpt lat="48.73454" lon="1.78687">
        <ele>169</ele>
        <time>2014-07-29T09:04:09.000Z</time>
      </trkpt>
      <trkpt lat="48.73449" lon="1.78682">
        <ele>168.60000610352</ele>
        <time>2014-07-29T09:04:13.000Z</time>
      </trkpt>
      <trkpt lat="48.73437" lon="1.78672">
        <ele>167.80000305176</ele>
        <time>2014-07-29T09:04:22.000Z</time>
      </trkpt>
      <trkpt lat="48.73429" lon="1.78662">
        <ele>167.80000305176</ele>
        <time>2014-07-29T09:04:30.000Z</time>
      </trkpt>
      <trkpt lat="48.73417" lon="1.78653">
        <ele>168</ele>
        <time>2014-07-29T09:04:38.000Z</time>
      </trkpt>
      <trkpt lat="48.73405" lon="1.78647">
        <ele>168.80000305176</ele>
        <time>2014-07-29T09:04:45.000Z</time>
      </trkpt>
      <trkpt lat="48.73394" lon="1.78639">
        <ele>169.60000610352</ele>
        <time>2014-07-29T09:04:52.000Z</time>
      </trkpt>
      <trkpt lat="48.73385" lon="1.78631">
        <ele>170.39999389648</ele>
        <time>2014-07-29T09:04:58.000Z</time>
      </trkpt>
      <trkpt lat="48.73382" lon="1.78629">
        <ele>170.60000610352</ele>
        <time>2014-07-29T09:05:00.000Z</time>
      </trkpt>
      <trkpt lat="48.7338" lon="1.78625">
        <ele>170.80000305176</ele>
        <time>2014-07-29T09:05:03.000Z</time>
      </trkpt>
      <trkpt lat="48.73374" lon="1.78618">
        <ele>171.39999389648</ele>
        <time>2014-07-29T09:05:09.000Z</time>
      </trkpt>
      <trkpt lat="48.7337" lon="1.78611">
        <ele>171.80000305176</ele>
        <time>2014-07-29T09:05:14.000Z</time>
      </trkpt>
      <trkpt lat="48.73366" lon="1.78607">
        <ele>172.19999694824</ele>
        <time>2014-07-29T09:05:17.000Z</time>
      </trkpt>
      <trkpt lat="48.73357" lon="1.78599">
        <ele>172.80000305176</ele>
        <time>2014-07-29T09:05:23.000Z</time>
      </trkpt>
      <trkpt lat="48.7335" lon="1.78592">
        <ele>173.60000610352</ele>
        <time>2014-07-29T09:05:29.000Z</time>
      </trkpt>
      <trkpt lat="48.73339" lon="1.78582">
        <ele>174.80000305176</ele>
        <time>2014-07-29T09:05:38.000Z</time>
      </trkpt>
      <trkpt lat="48.73332" lon="1.78575">
        <ele>175.60000610352</ele>
        <time>2014-07-29T09:05:46.000Z</time>
      </trkpt>
      <trkpt lat="48.73332" lon="1.78575">
        <ele>175.80000305176</ele>
        <time>2014-07-29T09:05:47.000Z</time>
      </trkpt>
      <trkpt lat="48.73326" lon="1.7857">
        <ele>176.39999389648</ele>
        <time>2014-07-29T09:05:54.000Z</time>
      </trkpt>
      <trkpt lat="48.73325" lon="1.78568">
        <ele>176.39999389648</ele>
        <time>2014-07-29T09:05:55.000Z</time>
      </trkpt>
      <trkpt lat="48.73322" lon="1.78565">
        <ele>176.60000610352</ele>
        <time>2014-07-29T09:06:00.000Z</time>
      </trkpt>
      <trkpt lat="48.73321" lon="1.78563">
        <ele>176.80000305176</ele>
        <time>2014-07-29T09:06:02.000Z</time>
      </trkpt>
      <trkpt lat="48.73314" lon="1.78562">
        <ele>177.39999389648</ele>
        <time>2014-07-29T09:06:07.000Z</time>
      </trkpt>
      <trkpt lat="48.73308" lon="1.78556">
        <ele>177.80000305176</ele>
        <time>2014-07-29T09:06:12.000Z</time>
      </trkpt>
      <trkpt lat="48.73301" lon="1.78547">
        <ele>178.39999389648</ele>
        <time>2014-07-29T09:06:19.000Z</time>
      </trkpt>
      <trkpt lat="48.73301" lon="1.78545">
        <ele>178.39999389648</ele>
        <time>2014-07-29T09:06:20.000Z</time>
      </trkpt>
      <trkpt lat="48.73299" lon="1.7854">
        <ele>178.60000610352</ele>
        <time>2014-07-29T09:06:26.000Z</time>
      </trkpt>
      <trkpt lat="48.73296" lon="1.78539">
        <ele>178.80000305176</ele>
        <time>2014-07-29T09:06:28.000Z</time>
      </trkpt>
      <trkpt lat="48.73284" lon="1.78535">
        <ele>179.80000305176</ele>
        <time>2014-07-29T09:06:36.000Z</time>
      </trkpt>
      <trkpt lat="48.73275" lon="1.7853">
        <ele>180.60000610352</ele>
        <time>2014-07-29T09:06:43.000Z</time>
      </trkpt>
      <trkpt lat="48.73272" lon="1.78529">
        <ele>180.80000305176</ele>
        <time>2014-07-29T09:06:45.000Z</time>
      </trkpt>
      <trkpt lat="48.73261" lon="1.78525">
        <ele>181.19999694824</ele>
        <time>2014-07-29T09:06:52.000Z</time>
      </trkpt>
      <trkpt lat="48.73253" lon="1.78514">
        <ele>181.19999694824</ele>
        <time>2014-07-29T09:07:00.000Z</time>
      </trkpt>
      <trkpt lat="48.73248" lon="1.78507">
        <ele>181.19999694824</ele>
        <time>2014-07-29T09:07:06.000Z</time>
      </trkpt>
      <trkpt lat="48.73245" lon="1.78504">
        <ele>181.39999389648</ele>
        <time>2014-07-29T09:07:08.000Z</time>
      </trkpt>
      <trkpt lat="48.73237" lon="1.78497">
        <ele>181.39999389648</ele>
        <time>2014-07-29T09:07:15.000Z</time>
      </trkpt>
      <trkpt lat="48.73228" lon="1.78492">
        <ele>181.60000610352</ele>
        <time>2014-07-29T09:07:22.000Z</time>
      </trkpt>
      <trkpt lat="48.73218" lon="1.78483">
        <ele>181.60000610352</ele>
        <time>2014-07-29T09:07:30.000Z</time>
      </trkpt>
      <trkpt lat="48.73213" lon="1.78478">
        <ele>181.80000305176</ele>
        <time>2014-07-29T09:07:35.000Z</time>
      </trkpt>
      <trkpt lat="48.73203" lon="1.78469">
        <ele>182</ele>
        <time>2014-07-29T09:07:42.000Z</time>
      </trkpt>
      <trkpt lat="48.73201" lon="1.78467">
        <ele>182</ele>
        <time>2014-07-29T09:07:44.000Z</time>
      </trkpt>
      <trkpt lat="48.73197" lon="1.78462">
        <ele>182.19999694824</ele>
        <time>2014-07-29T09:07:48.000Z</time>
      </trkpt>
      <trkpt lat="48.73185" lon="1.78454">
        <ele>182.39999389648</ele>
        <time>2014-07-29T09:07:56.000Z</time>
      </trkpt>
      <trkpt lat="48.73179" lon="1.78449">
        <ele>182.60000610352</ele>
        <time>2014-07-29T09:08:02.000Z</time>
      </trkpt>
      <trkpt lat="48.73175" lon="1.78444">
        <ele>182.60000610352</ele>
        <time>2014-07-29T09:08:06.000Z</time>
      </trkpt>
      <trkpt lat="48.7317" lon="1.78441">
        <ele>182.80000305176</ele>
        <time>2014-07-29T09:08:12.000Z</time>
      </trkpt>
      <trkpt lat="48.73162" lon="1.78436">
        <ele>183</ele>
        <time>2014-07-29T09:08:19.000Z</time>
      </trkpt>
      <trkpt lat="48.73156" lon="1.78432">
        <ele>183</ele>
        <time>2014-07-29T09:08:24.000Z</time>
      </trkpt>
      <trkpt lat="48.7315" lon="1.78429">
        <ele>183.19999694824</ele>
        <time>2014-07-29T09:08:28.000Z</time>
      </trkpt>
      <trkpt lat="48.73145" lon="1.78426">
        <ele>183.19999694824</ele>
        <time>2014-07-29T09:08:33.000Z</time>
      </trkpt>
      <trkpt lat="48.73139" lon="1.78418">
        <ele>183.39999389648</ele>
        <time>2014-07-29T09:08:38.000Z</time>
      </trkpt>
      <trkpt lat="48.73132" lon="1.78411">
        <ele>183.60000610352</ele>
        <time>2014-07-29T09:08:43.000Z</time>
      </trkpt>
      <trkpt lat="48.73121" lon="1.784">
        <ele>183.80000305176</ele>
        <time>2014-07-29T09:08:52.000Z</time>
      </trkpt>
      <trkpt lat="48.73108" lon="1.78389">
        <ele>183.80000305176</ele>
        <time>2014-07-29T09:09:01.000Z</time>
      </trkpt>
      <trkpt lat="48.73099" lon="1.78378">
        <ele>183.39999389648</ele>
        <time>2014-07-29T09:09:09.000Z</time>
      </trkpt>
      <trkpt lat="48.7309" lon="1.78368">
        <ele>183</ele>
        <time>2014-07-29T09:09:17.000Z</time>
      </trkpt>
      <trkpt lat="48.73081" lon="1.78361">
        <ele>182.60000610352</ele>
        <time>2014-07-29T09:09:24.000Z</time>
      </trkpt>
      <trkpt lat="48.73071" lon="1.78352">
        <ele>182.19999694824</ele>
        <time>2014-07-29T09:09:32.000Z</time>
      </trkpt>
      <trkpt lat="48.73061" lon="1.78345">
        <ele>181.80000305176</ele>
        <time>2014-07-29T09:09:39.000Z</time>
      </trkpt>
      <trkpt lat="48.73049" lon="1.78334">
        <ele>181.19999694824</ele>
        <time>2014-07-29T09:09:49.000Z</time>
      </trkpt>
      <trkpt lat="48.73037" lon="1.78324">
        <ele>180.60000610352</ele>
        <time>2014-07-29T09:09:59.000Z</time>
      </trkpt>
      <trkpt lat="48.73025" lon="1.78315">
        <ele>180.19999694824</ele>
        <time>2014-07-29T09:10:09.000Z</time>
      </trkpt>
      <trkpt lat="48.73017" lon="1.78309">
        <ele>180</ele>
        <time>2014-07-29T09:10:16.000Z</time>
      </trkpt>
      <trkpt lat="48.73009" lon="1.78301">
        <ele>180</ele>
        <time>2014-07-29T09:10:24.000Z</time>
      </trkpt>
      <trkpt lat="48.72999" lon="1.78291">
        <ele>180</ele>
        <time>2014-07-29T09:10:34.000Z</time>
      </trkpt>
      <trkpt lat="48.7299" lon="1.78285">
        <ele>180</ele>
        <time>2014-07-29T09:10:42.000Z</time>
      </trkpt>
      <trkpt lat="48.72979" lon="1.78275">
        <ele>180</ele>
        <time>2014-07-29T09:10:51.000Z</time>
      </trkpt>
      <trkpt lat="48.72969" lon="1.78267">
        <ele>180</ele>
        <time>2014-07-29T09:11:00.000Z</time>
      </trkpt>
      <trkpt lat="48.72961" lon="1.78259">
        <ele>180</ele>
        <time>2014-07-29T09:11:07.000Z</time>
      </trkpt>
      <trkpt lat="48.72953" lon="1.78252">
        <ele>180</ele>
        <time>2014-07-29T09:11:14.000Z</time>
      </trkpt>
      <trkpt lat="48.72945" lon="1.78245">
        <ele>180</ele>
        <time>2014-07-29T09:11:21.000Z</time>
      </trkpt>
      <trkpt lat="48.72937" lon="1.7824">
        <ele>180</ele>
        <time>2014-07-29T09:11:28.000Z</time>
      </trkpt>
      <trkpt lat="48.72929" lon="1.78232">
        <ele>180</ele>
        <time>2014-07-29T09:11:35.000Z</time>
      </trkpt>
      <trkpt lat="48.72919" lon="1.78222">
        <ele>180</ele>
        <time>2014-07-29T09:11:43.000Z</time>
      </trkpt>
      <trkpt lat="48.72907" lon="1.78213">
        <ele>180</ele>
        <time>2014-07-29T09:11:52.000Z</time>
      </trkpt>
      <trkpt lat="48.729" lon="1.78204">
        <ele>180</ele>
        <time>2014-07-29T09:11:59.000Z</time>
      </trkpt>
      <trkpt lat="48.72892" lon="1.78194">
        <ele>180</ele>
        <time>2014-07-29T09:12:07.000Z</time>
      </trkpt>
      <trkpt lat="48.72886" lon="1.78189">
        <ele>180</ele>
        <time>2014-07-29T09:12:11.000Z</time>
      </trkpt>
      <trkpt lat="48.72879" lon="1.78182">
        <ele>180</ele>
        <time>2014-07-29T09:12:16.000Z</time>
      </trkpt>
      <trkpt lat="48.72865" lon="1.78168">
        <ele>180</ele>
        <time>2014-07-29T09:12:28.000Z</time>
      </trkpt>
      <trkpt lat="48.72855" lon="1.78159">
        <ele>180</ele>
        <time>2014-07-29T09:12:36.000Z</time>
      </trkpt>
      <trkpt lat="48.72851" lon="1.78155">
        <ele>180</ele>
        <time>2014-07-29T09:12:39.000Z</time>
      </trkpt>
      <trkpt lat="48.72841" lon="1.78147">
        <ele>180</ele>
        <time>2014-07-29T09:12:47.000Z</time>
      </trkpt>
      <trkpt lat="48.72833" lon="1.78141">
        <ele>180</ele>
        <time>2014-07-29T09:12:53.000Z</time>
      </trkpt>
      <trkpt lat="48.72825" lon="1.78136">
        <ele>179.80000305176</ele>
        <time>2014-07-29T09:12:59.000Z</time>
      </trkpt>
      <trkpt lat="48.72821" lon="1.78134">
        <ele>179.80000305176</ele>
        <time>2014-07-29T09:13:02.000Z</time>
      </trkpt>
      <trkpt lat="48.72814" lon="1.78128">
        <ele>179.80000305176</ele>
        <time>2014-07-29T09:13:08.000Z</time>
      </trkpt>
      <trkpt lat="48.72813" lon="1.78128">
        <ele>179.80000305176</ele>
        <time>2014-07-29T09:13:09.000Z</time>
      </trkpt>
      <trkpt lat="48.72804" lon="1.78119">
        <ele>179.80000305176</ele>
        <time>2014-07-29T09:13:17.000Z</time>
      </trkpt>
      <trkpt lat="48.728" lon="1.78115">
        <ele>179.80000305176</ele>
        <time>2014-07-29T09:13:21.000Z</time>
      </trkpt>
      <trkpt lat="48.72796" lon="1.78109">
        <ele>179.80000305176</ele>
        <time>2014-07-29T09:13:26.000Z</time>
      </trkpt>
      <trkpt lat="48.72788" lon="1.78101">
        <ele>179.80000305176</ele>
        <time>2014-07-29T09:13:33.000Z</time>
      </trkpt>
      <trkpt lat="48.72777" lon="1.78092">
        <ele>179.80000305176</ele>
        <time>2014-07-29T09:13:40.000Z</time>
      </trkpt>
      <trkpt lat="48.72767" lon="1.78085">
        <ele>179.80000305176</ele>
        <time>2014-07-29T09:13:47.000Z</time>
      </trkpt>
      <trkpt lat="48.72759" lon="1.78077">
        <ele>180</ele>
        <time>2014-07-29T09:13:53.000Z</time>
      </trkpt>
      <trkpt lat="48.7275" lon="1.7807">
        <ele>180</ele>
        <time>2014-07-29T09:14:00.000Z</time>
      </trkpt>
      <trkpt lat="48.7274" lon="1.78063">
        <ele>180</ele>
        <time>2014-07-29T09:14:07.000Z</time>
      </trkpt>
      <trkpt lat="48.72731" lon="1.78053">
        <ele>180.19999694824</ele>
        <time>2014-07-29T09:14:14.000Z</time>
      </trkpt>
      <trkpt lat="48.72726" lon="1.78047">
        <ele>180.19999694824</ele>
        <time>2014-07-29T09:14:19.000Z</time>
      </trkpt>
      <trkpt lat="48.72721" lon="1.78042">
        <ele>180.39999389648</ele>
        <time>2014-07-29T09:14:23.000Z</time>
      </trkpt>
      <trkpt lat="48.72713" lon="1.78035">
        <ele>180.39999389648</ele>
        <time>2014-07-29T09:14:29.000Z</time>
      </trkpt>
      <trkpt lat="48.72707" lon="1.78027">
        <ele>180.60000610352</ele>
        <time>2014-07-29T09:14:34.000Z</time>
      </trkpt>
      <trkpt lat="48.727" lon="1.78017">
        <ele>180.60000610352</ele>
        <time>2014-07-29T09:14:40.000Z</time>
      </trkpt>
      <trkpt lat="48.72696" lon="1.78006">
        <ele>180.80000305176</ele>
        <time>2014-07-29T09:14:45.000Z</time>
      </trkpt>
      <trkpt lat="48.72693" lon="1.77995">
        <ele>181</ele>
        <time>2014-07-29T09:14:50.000Z</time>
      </trkpt>
      <trkpt lat="48.72688" lon="1.77981">
        <ele>181.39999389648</ele>
        <time>2014-07-29T09:14:58.000Z</time>
      </trkpt>
      <trkpt lat="48.72678" lon="1.77972">
        <ele>181.39999389648</ele>
        <time>2014-07-29T09:15:06.000Z</time>
      </trkpt>
      <trkpt lat="48.72673" lon="1.7797">
        <ele>181.19999694824</ele>
        <time>2014-07-29T09:15:11.000Z</time>
      </trkpt>
      <trkpt lat="48.72665" lon="1.77965">
        <ele>181</ele>
        <time>2014-07-29T09:15:18.000Z</time>
      </trkpt>
      <trkpt lat="48.72663" lon="1.77963">
        <ele>181</ele>
        <time>2014-07-29T09:15:20.000Z</time>
      </trkpt>
      <trkpt lat="48.72652" lon="1.7796">
        <ele>180.60000610352</ele>
        <time>2014-07-29T09:15:28.000Z</time>
      </trkpt>
      <trkpt lat="48.72643" lon="1.77962">
        <ele>179.80000305176</ele>
        <time>2014-07-29T09:15:35.000Z</time>
      </trkpt>
      <trkpt lat="48.72641" lon="1.77962">
        <ele>179.80000305176</ele>
        <time>2014-07-29T09:15:36.000Z</time>
      </trkpt>
      <trkpt lat="48.72632" lon="1.77969">
        <ele>178.80000305176</ele>
        <time>2014-07-29T09:15:42.000Z</time>
      </trkpt>
      <trkpt lat="48.72629" lon="1.77971">
        <ele>178.60000610352</ele>
        <time>2014-07-29T09:15:44.000Z</time>
      </trkpt>
      <trkpt lat="48.7262" lon="1.77975">
        <ele>177.80000305176</ele>
        <time>2014-07-29T09:15:50.000Z</time>
      </trkpt>
      <trkpt lat="48.7261" lon="1.77978">
        <ele>177</ele>
        <time>2014-07-29T09:15:56.000Z</time>
      </trkpt>
      <trkpt lat="48.72603" lon="1.77982">
        <ele>176.19999694824</ele>
        <time>2014-07-29T09:16:02.000Z</time>
      </trkpt>
      <trkpt lat="48.72596" lon="1.77983">
        <ele>176</ele>
        <time>2014-07-29T09:16:07.000Z</time>
      </trkpt>
      <trkpt lat="48.72591" lon="1.77987">
        <ele>176</ele>
        <time>2014-07-29T09:16:12.000Z</time>
      </trkpt>
      <trkpt lat="48.72585" lon="1.77996">
        <ele>175.80000305176</ele>
        <time>2014-07-29T09:16:18.000Z</time>
      </trkpt>
      <trkpt lat="48.72583" lon="1.77999">
        <ele>175.80000305176</ele>
        <time>2014-07-29T09:16:20.000Z</time>
      </trkpt>
      <trkpt lat="48.72577" lon="1.77999">
        <ele>175.80000305176</ele>
        <time>2014-07-29T09:16:25.000Z</time>
      </trkpt>
      <trkpt lat="48.72571" lon="1.77994">
        <ele>175.80000305176</ele>
        <time>2014-07-29T09:16:29.000Z</time>
      </trkpt>
      <trkpt lat="48.7256" lon="1.77991">
        <ele>176</ele>
        <time>2014-07-29T09:16:35.000Z</time>
      </trkpt>
      <trkpt lat="48.72557" lon="1.77992">
        <ele>176</ele>
        <time>2014-07-29T09:16:37.000Z</time>
      </trkpt>
      <trkpt lat="48.72548" lon="1.7799">
        <ele>176</ele>
        <time>2014-07-29T09:16:44.000Z</time>
      </trkpt>
      <trkpt lat="48.72536" lon="1.7798">
        <ele>176</ele>
        <time>2014-07-29T09:16:51.000Z</time>
      </trkpt>
      <trkpt lat="48.72529" lon="1.77975">
        <ele>175.80000305176</ele>
        <time>2014-07-29T09:16:56.000Z</time>
      </trkpt>
      <trkpt lat="48.72526" lon="1.77972">
        <ele>175.80000305176</ele>
        <time>2014-07-29T09:16:58.000Z</time>
      </trkpt>
      <trkpt lat="48.72514" lon="1.77962">
        <ele>175.39999389648</ele>
        <time>2014-07-29T09:17:05.000Z</time>
      </trkpt>
      <trkpt lat="48.72504" lon="1.77951">
        <ele>175</ele>
        <time>2014-07-29T09:17:12.000Z</time>
      </trkpt>
      <trkpt lat="48.72496" lon="1.77946">
        <ele>174.60000610352</ele>
        <time>2014-07-29T09:17:17.000Z</time>
      </trkpt>
      <trkpt lat="48.7249" lon="1.77939">
        <ele>174.39999389648</ele>
        <time>2014-07-29T09:17:22.000Z</time>
      </trkpt>
      <trkpt lat="48.72476" lon="1.7793">
        <ele>173.80000305176</ele>
        <time>2014-07-29T09:17:31.000Z</time>
      </trkpt>
      <trkpt lat="48.72473" lon="1.77929">
        <ele>173.60000610352</ele>
        <time>2014-07-29T09:17:33.000Z</time>
      </trkpt>
      <trkpt lat="48.72468" lon="1.77927">
        <ele>173.39999389648</ele>
        <time>2014-07-29T09:17:36.000Z</time>
      </trkpt>
      <trkpt lat="48.72457" lon="1.77921">
        <ele>173</ele>
        <time>2014-07-29T09:17:43.000Z</time>
      </trkpt>
      <trkpt lat="48.7245" lon="1.77917">
        <ele>172.60000610352</ele>
        <time>2014-07-29T09:17:49.000Z</time>
      </trkpt>
      <trkpt lat="48.72441" lon="1.77912">
        <ele>172.39999389648</ele>
        <time>2014-07-29T09:17:55.000Z</time>
      </trkpt>
      <trkpt lat="48.72434" lon="1.77907">
        <ele>171.80000305176</ele>
        <time>2014-07-29T09:18:00.000Z</time>
      </trkpt>
      <trkpt lat="48.72427" lon="1.77906">
        <ele>171.19999694824</ele>
        <time>2014-07-29T09:18:05.000Z</time>
      </trkpt>
      <trkpt lat="48.72419" lon="1.77904">
        <ele>170.19999694824</ele>
        <time>2014-07-29T09:18:10.000Z</time>
      </trkpt>
      <trkpt lat="48.72409" lon="1.77906">
        <ele>169.39999389648</ele>
        <time>2014-07-29T09:18:17.000Z</time>
      </trkpt>
      <trkpt lat="48.724" lon="1.7791">
        <ele>168.60000610352</ele>
        <time>2014-07-29T09:18:22.000Z</time>
      </trkpt>
      <trkpt lat="48.72388" lon="1.77911">
        <ele>167.39999389648</ele>
        <time>2014-07-29T09:18:29.000Z</time>
      </trkpt>
      <trkpt lat="48.72386" lon="1.77912">
        <ele>167.39999389648</ele>
        <time>2014-07-29T09:18:30.000Z</time>
      </trkpt>
      <trkpt lat="48.72381" lon="1.77913">
        <ele>167</ele>
        <time>2014-07-29T09:18:33.000Z</time>
      </trkpt>
      <trkpt lat="48.72377" lon="1.77913">
        <ele>166.60000610352</ele>
        <time>2014-07-29T09:18:36.000Z</time>
      </trkpt>
      <trkpt lat="48.72371" lon="1.77915">
        <ele>166</ele>
        <time>2014-07-29T09:18:40.000Z</time>
      </trkpt>
      <trkpt lat="48.7236" lon="1.77906">
        <ele>164.60000610352</ele>
        <time>2014-07-29T09:18:48.000Z</time>
      </trkpt>
      <trkpt lat="48.72355" lon="1.77895">
        <ele>164.39999389648</ele>
        <time>2014-07-29T09:18:52.000Z</time>
      </trkpt>
      <trkpt lat="48.7235" lon="1.77889">
        <ele>164.39999389648</ele>
        <time>2014-07-29T09:18:56.000Z</time>
      </trkpt>
      <trkpt lat="48.72345" lon="1.77883">
        <ele>164.60000610352</ele>
        <time>2014-07-29T09:19:01.000Z</time>
      </trkpt>
      <trkpt lat="48.72343" lon="1.77877">
        <ele>164.60000610352</ele>
        <time>2014-07-29T09:19:04.000Z</time>
      </trkpt>
      <trkpt lat="48.7234" lon="1.77869">
        <ele>164.80000305176</ele>
        <time>2014-07-29T09:19:08.000Z</time>
      </trkpt>
      <trkpt lat="48.72328" lon="1.77853">
        <ele>165.19999694824</ele>
        <time>2014-07-29T09:19:16.000Z</time>
      </trkpt>
      <trkpt lat="48.72324" lon="1.77845">
        <ele>165.39999389648</ele>
        <time>2014-07-29T09:19:21.000Z</time>
      </trkpt>
      <trkpt lat="48.72322" lon="1.77842">
        <ele>165.60000610352</ele>
        <time>2014-07-29T09:19:25.000Z</time>
      </trkpt>
      <trkpt lat="48.72319" lon="1.77835">
        <ele>165.60000610352</ele>
        <time>2014-07-29T09:19:30.000Z</time>
      </trkpt>
      <trkpt lat="48.72317" lon="1.77831">
        <ele>165.80000305176</ele>
        <time>2014-07-29T09:19:32.000Z</time>
      </trkpt>
      <trkpt lat="48.72313" lon="1.77824">
        <ele>166</ele>
        <time>2014-07-29T09:19:36.000Z</time>
      </trkpt>
      <trkpt lat="48.72307" lon="1.77817">
        <ele>165.80000305176</ele>
        <time>2014-07-29T09:19:41.000Z</time>
      </trkpt>
      <trkpt lat="48.72296" lon="1.77804">
        <ele>165.39999389648</ele>
        <time>2014-07-29T09:19:51.000Z</time>
      </trkpt>
      <trkpt lat="48.72291" lon="1.778">
        <ele>165.19999694824</ele>
        <time>2014-07-29T09:19:56.000Z</time>
      </trkpt>
      <trkpt lat="48.72287" lon="1.77797">
        <ele>165.19999694824</ele>
        <time>2014-07-29T09:20:00.000Z</time>
      </trkpt>
      <trkpt lat="48.72279" lon="1.77791">
        <ele>165</ele>
        <time>2014-07-29T09:20:06.000Z</time>
      </trkpt>
      <trkpt lat="48.72266" lon="1.77781">
        <ele>164.80000305176</ele>
        <time>2014-07-29T09:20:15.000Z</time>
      </trkpt>
      <trkpt lat="48.72256" lon="1.77771">
        <ele>164.80000305176</ele>
        <time>2014-07-29T09:20:21.000Z</time>
      </trkpt>
      <trkpt lat="48.72244" lon="1.77755">
        <ele>164.60000610352</ele>
        <time>2014-07-29T09:20:29.000Z</time>
      </trkpt>
      <trkpt lat="48.72236" lon="1.77739">
        <ele>164.19999694824</ele>
        <time>2014-07-29T09:20:36.000Z</time>
      </trkpt>
      <trkpt lat="48.72232" lon="1.77728">
        <ele>163.80000305176</ele>
        <time>2014-07-29T09:20:42.000Z</time>
      </trkpt>
      <trkpt lat="48.72231" lon="1.77724">
        <ele>163.80000305176</ele>
        <time>2014-07-29T09:20:46.000Z</time>
      </trkpt>
      <trkpt lat="48.72227" lon="1.77719">
        <ele>163.60000610352</ele>
        <time>2014-07-29T09:20:51.000Z</time>
      </trkpt>
      <trkpt lat="48.72223" lon="1.77713">
        <ele>163.60000610352</ele>
        <time>2014-07-29T09:20:55.000Z</time>
      </trkpt>
      <trkpt lat="48.72221" lon="1.777">
        <ele>163</ele>
        <time>2014-07-29T09:21:01.000Z</time>
      </trkpt>
      <trkpt lat="48.72215" lon="1.77689">
        <ele>162.60000610352</ele>
        <time>2014-07-29T09:21:07.000Z</time>
      </trkpt>
      <trkpt lat="48.72206" lon="1.77678">
        <ele>162.39999389648</ele>
        <time>2014-07-29T09:21:13.000Z</time>
      </trkpt>
      <trkpt lat="48.722" lon="1.7767">
        <ele>162.19999694824</ele>
        <time>2014-07-29T09:21:18.000Z</time>
      </trkpt>
      <trkpt lat="48.72197" lon="1.77662">
        <ele>162.19999694824</ele>
        <time>2014-07-29T09:21:22.000Z</time>
      </trkpt>
      <trkpt lat="48.7219" lon="1.77648">
        <ele>162</ele>
        <time>2014-07-29T09:21:30.000Z</time>
      </trkpt>
      <trkpt lat="48.72186" lon="1.7764">
        <ele>161.60000610352</ele>
        <time>2014-07-29T09:21:36.000Z</time>
      </trkpt>
      <trkpt lat="48.72181" lon="1.77634">
        <ele>161.39999389648</ele>
        <time>2014-07-29T09:21:41.000Z</time>
      </trkpt>
      <trkpt lat="48.72175" lon="1.77622">
        <ele>161</ele>
        <time>2014-07-29T09:21:49.000Z</time>
      </trkpt>
      <trkpt lat="48.72168" lon="1.77613">
        <ele>160.60000610352</ele>
        <time>2014-07-29T09:21:56.000Z</time>
      </trkpt>
      <trkpt lat="48.72167" lon="1.77611">
        <ele>160.39999389648</ele>
        <time>2014-07-29T09:21:57.000Z</time>
      </trkpt>
      <trkpt lat="48.72161" lon="1.77607">
        <ele>160.19999694824</ele>
        <time>2014-07-29T09:22:03.000Z</time>
      </trkpt>
      <trkpt lat="48.72153" lon="1.77599">
        <ele>159.80000305176</ele>
        <time>2014-07-29T09:22:09.000Z</time>
      </trkpt>
      <trkpt lat="48.72145" lon="1.77592">
        <ele>159.39999389648</ele>
        <time>2014-07-29T09:22:15.000Z</time>
      </trkpt>
      <trkpt lat="48.72138" lon="1.77586">
        <ele>159.19999694824</ele>
        <time>2014-07-29T09:22:20.000Z</time>
      </trkpt>
      <trkpt lat="48.72129" lon="1.77578">
        <ele>158.80000305176</ele>
        <time>2014-07-29T09:22:26.000Z</time>
      </trkpt>
      <trkpt lat="48.72121" lon="1.77575">
        <ele>158.39999389648</ele>
        <time>2014-07-29T09:22:32.000Z</time>
      </trkpt>
      <trkpt lat="48.72112" lon="1.77567">
        <ele>158.19999694824</ele>
        <time>2014-07-29T09:22:37.000Z</time>
      </trkpt>
      <trkpt lat="48.72097" lon="1.77559">
        <ele>158</ele>
        <time>2014-07-29T09:22:41.000Z</time>
      </trkpt>
      <trkpt lat="48.72074" lon="1.7755">
        <ele>158.39999389648</ele>
        <time>2014-07-29T09:22:46.000Z</time>
      </trkpt>
      <trkpt lat="48.72066" lon="1.77548">
        <ele>158.80000305176</ele>
        <time>2014-07-29T09:22:48.000Z</time>
      </trkpt>
      <trkpt lat="48.72044" lon="1.7755">
        <ele>161</ele>
        <time>2014-07-29T09:22:53.000Z</time>
      </trkpt>
      <trkpt lat="48.72026" lon="1.77549">
        <ele>162.39999389648</ele>
        <time>2014-07-29T09:22:57.000Z</time>
      </trkpt>
      <trkpt lat="48.72009" lon="1.77534">
        <ele>162.80000305176</ele>
        <time>2014-07-29T09:23:03.000Z</time>
      </trkpt>
      <trkpt lat="48.72007" lon="1.77533">
        <ele>162.80000305176</ele>
        <time>2014-07-29T09:23:04.000Z</time>
      </trkpt>
      <trkpt lat="48.71997" lon="1.77519">
        <ele>162.60000610352</ele>
        <time>2014-07-29T09:23:09.000Z</time>
      </trkpt>
      <trkpt lat="48.71988" lon="1.775">
        <ele>162</ele>
        <time>2014-07-29T09:23:13.000Z</time>
      </trkpt>
      <trkpt lat="48.71975" lon="1.77483">
        <ele>162</ele>
        <time>2014-07-29T09:23:17.000Z</time>
      </trkpt>
      <trkpt lat="48.71967" lon="1.77471">
        <ele>162</ele>
        <time>2014-07-29T09:23:20.000Z</time>
      </trkpt>
      <trkpt lat="48.71952" lon="1.77449">
        <ele>161.80000305176</ele>
        <time>2014-07-29T09:23:26.000Z</time>
      </trkpt>
      <trkpt lat="48.71944" lon="1.77439">
        <ele>162.19999694824</ele>
        <time>2014-07-29T09:23:30.000Z</time>
      </trkpt>
      <trkpt lat="48.71937" lon="1.77434">
        <ele>162.39999389648</ele>
        <time>2014-07-29T09:23:34.000Z</time>
      </trkpt>
      <trkpt lat="48.71927" lon="1.77432">
        <ele>162.60000610352</ele>
        <time>2014-07-29T09:23:41.000Z</time>
      </trkpt>
      <trkpt lat="48.71924" lon="1.77431">
        <ele>162.60000610352</ele>
        <time>2014-07-29T09:23:43.000Z</time>
      </trkpt>
      <trkpt lat="48.71916" lon="1.77421">
        <ele>162.19999694824</ele>
        <time>2014-07-29T09:23:49.000Z</time>
      </trkpt>
      <trkpt lat="48.71914" lon="1.77419">
        <ele>162</ele>
        <time>2014-07-29T09:23:52.000Z</time>
      </trkpt>
      <trkpt lat="48.71903" lon="1.77414">
        <ele>162</ele>
        <time>2014-07-29T09:23:58.000Z</time>
      </trkpt>
      <trkpt lat="48.71888" lon="1.77405">
        <ele>161.80000305176</ele>
        <time>2014-07-29T09:24:03.000Z</time>
      </trkpt>
      <trkpt lat="48.71873" lon="1.77402">
        <ele>162</ele>
        <time>2014-07-29T09:24:08.000Z</time>
      </trkpt>
      <trkpt lat="48.71856" lon="1.77408">
        <ele>163.19999694824</ele>
        <time>2014-07-29T09:24:13.000Z</time>
      </trkpt>
      <trkpt lat="48.71844" lon="1.77418">
        <ele>163.80000305176</ele>
        <time>2014-07-29T09:24:17.000Z</time>
      </trkpt>
      <trkpt lat="48.71823" lon="1.7743">
        <ele>164</ele>
        <time>2014-07-29T09:24:23.000Z</time>
      </trkpt>
      <trkpt lat="48.71804" lon="1.7744">
        <ele>163.80000305176</ele>
        <time>2014-07-29T09:24:28.000Z</time>
      </trkpt>
      <trkpt lat="48.7179" lon="1.77454">
        <ele>162.60000610352</ele>
        <time>2014-07-29T09:24:33.000Z</time>
      </trkpt>
      <trkpt lat="48.71777" lon="1.77473">
        <ele>161.39999389648</ele>
        <time>2014-07-29T09:24:38.000Z</time>
      </trkpt>
      <trkpt lat="48.71764" lon="1.77487">
        <ele>161.39999389648</ele>
        <time>2014-07-29T09:24:42.000Z</time>
      </trkpt>
      <trkpt lat="48.71755" lon="1.77489">
        <ele>162</ele>
        <time>2014-07-29T09:24:44.000Z</time>
      </trkpt>
      <trkpt lat="48.71736" lon="1.77476">
        <ele>162.39999389648</ele>
        <time>2014-07-29T09:24:49.000Z</time>
      </trkpt>
      <trkpt lat="48.71733" lon="1.77475">
        <ele>162.60000610352</ele>
        <time>2014-07-29T09:24:50.000Z</time>
      </trkpt>
      <trkpt lat="48.71716" lon="1.77479">
        <ele>163.80000305176</ele>
        <time>2014-07-29T09:24:56.000Z</time>
      </trkpt>
      <trkpt lat="48.71707" lon="1.77486">
        <ele>164.80000305176</ele>
        <time>2014-07-29T09:25:02.000Z</time>
      </trkpt>
      <trkpt lat="48.7169" lon="1.77486">
        <ele>165.80000305176</ele>
        <time>2014-07-29T09:25:07.000Z</time>
      </trkpt>
      <trkpt lat="48.71678" lon="1.77483">
        <ele>166.19999694824</ele>
        <time>2014-07-29T09:25:11.000Z</time>
      </trkpt>
      <trkpt lat="48.71663" lon="1.77471">
        <ele>166.19999694824</ele>
        <time>2014-07-29T09:25:16.000Z</time>
      </trkpt>
      <trkpt lat="48.71657" lon="1.77468">
        <ele>166.19999694824</ele>
        <time>2014-07-29T09:25:18.000Z</time>
      </trkpt>
      <trkpt lat="48.71641" lon="1.77463">
        <ele>166.80000305176</ele>
        <time>2014-07-29T09:25:24.000Z</time>
      </trkpt>
      <trkpt lat="48.71635" lon="1.77465">
        <ele>167.60000610352</ele>
        <time>2014-07-29T09:25:27.000Z</time>
      </trkpt>
      <trkpt lat="48.7163" lon="1.7746">
        <ele>167.39999389648</ele>
        <time>2014-07-29T09:25:31.000Z</time>
      </trkpt>
      <trkpt lat="48.7163" lon="1.77453">
        <ele>166.80000305176</ele>
        <time>2014-07-29T09:25:34.000Z</time>
      </trkpt>
      <trkpt lat="48.71623" lon="1.77446">
        <ele>166.60000610352</ele>
        <time>2014-07-29T09:25:40.000Z</time>
      </trkpt>
      <trkpt lat="48.7162" lon="1.77443">
        <ele>166.60000610352</ele>
        <time>2014-07-29T09:25:42.000Z</time>
      </trkpt>
      <trkpt lat="48.71612" lon="1.77442">
        <ele>167</ele>
        <time>2014-07-29T09:25:48.000Z</time>
      </trkpt>
      <trkpt lat="48.71602" lon="1.77443">
        <ele>167.80000305176</ele>
        <time>2014-07-29T09:25:53.000Z</time>
      </trkpt>
      <trkpt lat="48.71591" lon="1.77441">
        <ele>168</ele>
        <time>2014-07-29T09:26:00.000Z</time>
      </trkpt>
      <trkpt lat="48.71579" lon="1.77446">
        <ele>168.80000305176</ele>
        <time>2014-07-29T09:26:06.000Z</time>
      </trkpt>
      <trkpt lat="48.71572" lon="1.77449">
        <ele>169.39999389648</ele>
        <time>2014-07-29T09:26:11.000Z</time>
      </trkpt>
      <trkpt lat="48.71563" lon="1.77446">
        <ele>169.39999389648</ele>
        <time>2014-07-29T09:26:17.000Z</time>
      </trkpt>
      <trkpt lat="48.71557" lon="1.77445">
        <ele>169.19999694824</ele>
        <time>2014-07-29T09:26:21.000Z</time>
      </trkpt>
      <trkpt lat="48.71548" lon="1.77441">
        <ele>168.60000610352</ele>
        <time>2014-07-29T09:26:27.000Z</time>
      </trkpt>
      <trkpt lat="48.7154" lon="1.77446">
        <ele>167.80000305176</ele>
        <time>2014-07-29T09:26:33.000Z</time>
      </trkpt>
      <trkpt lat="48.71529" lon="1.77455">
        <ele>167</ele>
        <time>2014-07-29T09:26:40.000Z</time>
      </trkpt>
      <trkpt lat="48.71528" lon="1.77456">
        <ele>167</ele>
        <time>2014-07-29T09:26:41.000Z</time>
      </trkpt>
      <trkpt lat="48.71525" lon="1.77457">
        <ele>166.80000305176</ele>
        <time>2014-07-29T09:26:43.000Z</time>
      </trkpt>
      <trkpt lat="48.71517" lon="1.77459">
        <ele>166.39999389648</ele>
        <time>2014-07-29T09:26:47.000Z</time>
      </trkpt>
      <trkpt lat="48.71503" lon="1.77467">
        <ele>166</ele>
        <time>2014-07-29T09:26:56.000Z</time>
      </trkpt>
      <trkpt lat="48.71495" lon="1.77473">
        <ele>166</ele>
        <time>2014-07-29T09:27:02.000Z</time>
      </trkpt>
      <trkpt lat="48.71486" lon="1.77478">
        <ele>166</ele>
        <time>2014-07-29T09:27:08.000Z</time>
      </trkpt>
      <trkpt lat="48.71475" lon="1.77479">
        <ele>166</ele>
        <time>2014-07-29T09:27:15.000Z</time>
      </trkpt>
      <trkpt lat="48.7147" lon="1.77486">
        <ele>166</ele>
        <time>2014-07-29T09:27:20.000Z</time>
      </trkpt>
      <trkpt lat="48.71464" lon="1.77488">
        <ele>166</ele>
        <time>2014-07-29T09:27:26.000Z</time>
      </trkpt>
      <trkpt lat="48.71461" lon="1.77487">
        <ele>166</ele>
        <time>2014-07-29T09:27:29.000Z</time>
      </trkpt>
      <trkpt lat="48.71456" lon="1.77484">
        <ele>166</ele>
        <time>2014-07-29T09:27:34.000Z</time>
      </trkpt>
      <trkpt lat="48.71455" lon="1.77484">
        <ele>166</ele>
        <time>2014-07-29T09:27:36.000Z</time>
      </trkpt>
      <trkpt lat="48.71454" lon="1.77482">
        <ele>166</ele>
        <time>2014-07-29T09:27:46.000Z</time>
      </trkpt>
      <trkpt lat="48.71446" lon="1.77482">
        <ele>166</ele>
        <time>2014-07-29T09:27:50.000Z</time>
      </trkpt>
      <trkpt lat="48.71437" lon="1.77489">
        <ele>166</ele>
        <time>2014-07-29T09:27:59.000Z</time>
      </trkpt>
      <trkpt lat="48.7143" lon="1.77493">
        <ele>166</ele>
        <time>2014-07-29T09:28:05.000Z</time>
      </trkpt>
      <trkpt lat="48.71427" lon="1.77496">
        <ele>166</ele>
        <time>2014-07-29T09:28:07.000Z</time>
      </trkpt>
      <trkpt lat="48.71423" lon="1.77507">
        <ele>166.19999694824</ele>
        <time>2014-07-29T09:28:13.000Z</time>
      </trkpt>
      <trkpt lat="48.71417" lon="1.77513">
        <ele>166.39999389648</ele>
        <time>2014-07-29T09:28:18.000Z</time>
      </trkpt>
      <trkpt lat="48.71413" lon="1.77516">
        <ele>166.39999389648</ele>
        <time>2014-07-29T09:28:20.000Z</time>
      </trkpt>
      <trkpt lat="48.71403" lon="1.77526">
        <ele>166.39999389648</ele>
        <time>2014-07-29T09:28:27.000Z</time>
      </trkpt>
      <trkpt lat="48.71396" lon="1.77537">
        <ele>166.60000610352</ele>
        <time>2014-07-29T09:28:33.000Z</time>
      </trkpt>
      <trkpt lat="48.7139" lon="1.7755">
        <ele>166.80000305176</ele>
        <time>2014-07-29T09:28:39.000Z</time>
      </trkpt>
      <trkpt lat="48.71383" lon="1.77553">
        <ele>166.80000305176</ele>
        <time>2014-07-29T09:28:43.000Z</time>
      </trkpt>
      <trkpt lat="48.71374" lon="1.77561">
        <ele>166.80000305176</ele>
        <time>2014-07-29T09:28:50.000Z</time>
      </trkpt>
      <trkpt lat="48.71369" lon="1.77573">
        <ele>167</ele>
        <time>2014-07-29T09:28:56.000Z</time>
      </trkpt>
      <trkpt lat="48.71361" lon="1.77582">
        <ele>167.39999389648</ele>
        <time>2014-07-29T09:29:01.000Z</time>
      </trkpt>
      <trkpt lat="48.71359" lon="1.77584">
        <ele>167.60000610352</ele>
        <time>2014-07-29T09:29:03.000Z</time>
      </trkpt>
      <trkpt lat="48.71352" lon="1.77587">
        <ele>167.60000610352</ele>
        <time>2014-07-29T09:29:09.000Z</time>
      </trkpt>
      <trkpt lat="48.71344" lon="1.77592">
        <ele>167.60000610352</ele>
        <time>2014-07-29T09:29:15.000Z</time>
      </trkpt>
      <trkpt lat="48.7134" lon="1.77599">
        <ele>167.80000305176</ele>
        <time>2014-07-29T09:29:20.000Z</time>
      </trkpt>
      <trkpt lat="48.71336" lon="1.77606">
        <ele>168</ele>
        <time>2014-07-29T09:29:26.000Z</time>
      </trkpt>
      <trkpt lat="48.71329" lon="1.77611">
        <ele>168.19999694824</ele>
        <time>2014-07-29T09:29:30.000Z</time>
      </trkpt>
      <trkpt lat="48.71325" lon="1.77613">
        <ele>168.19999694824</ele>
        <time>2014-07-29T09:29:32.000Z</time>
      </trkpt>
      <trkpt lat="48.71316" lon="1.77626">
        <ele>168.60000610352</ele>
        <time>2014-07-29T09:29:39.000Z</time>
      </trkpt>
      <trkpt lat="48.71314" lon="1.77633">
        <ele>168.80000305176</ele>
        <time>2014-07-29T09:29:44.000Z</time>
      </trkpt>
      <trkpt lat="48.71312" lon="1.77635">
        <ele>168.80000305176</ele>
        <time>2014-07-29T09:29:47.000Z</time>
      </trkpt>
      <trkpt lat="48.7131" lon="1.77639">
        <ele>169</ele>
        <time>2014-07-29T09:29:49.000Z</time>
      </trkpt>
      <trkpt lat="48.71304" lon="1.77644">
        <ele>169</ele>
        <time>2014-07-29T09:29:53.000Z</time>
      </trkpt>
      <trkpt lat="48.71286" lon="1.77642">
        <ele>168.80000305176</ele>
        <time>2014-07-29T09:30:02.000Z</time>
      </trkpt>
      <trkpt lat="48.71276" lon="1.77641">
        <ele>168.60000610352</ele>
        <time>2014-07-29T09:30:08.000Z</time>
      </trkpt>
      <trkpt lat="48.71267" lon="1.77641">
        <ele>168.60000610352</ele>
        <time>2014-07-29T09:30:13.000Z</time>
      </trkpt>
      <trkpt lat="48.7126" lon="1.77644">
        <ele>169</ele>
        <time>2014-07-29T09:30:18.000Z</time>
      </trkpt>
      <trkpt lat="48.71253" lon="1.77653">
        <ele>169.19999694824</ele>
        <time>2014-07-29T09:30:24.000Z</time>
      </trkpt>
      <trkpt lat="48.71247" lon="1.77661">
        <ele>169.60000610352</ele>
        <time>2014-07-29T09:30:28.000Z</time>
      </trkpt>
      <trkpt lat="48.71237" lon="1.77672">
        <ele>170</ele>
        <time>2014-07-29T09:30:35.000Z</time>
      </trkpt>
      <trkpt lat="48.71227" lon="1.77676">
        <ele>170.19999694824</ele>
        <time>2014-07-29T09:30:42.000Z</time>
      </trkpt>
      <trkpt lat="48.71225" lon="1.77677">
        <ele>170.39999389648</ele>
        <time>2014-07-29T09:30:44.000Z</time>
      </trkpt>
      <trkpt lat="48.71219" lon="1.77677">
        <ele>170.39999389648</ele>
        <time>2014-07-29T09:30:48.000Z</time>
      </trkpt>
      <trkpt lat="48.71212" lon="1.77678">
        <ele>170.60000610352</ele>
        <time>2014-07-29T09:30:52.000Z</time>
      </trkpt>
      <trkpt lat="48.71206" lon="1.7768">
        <ele>170.39999389648</ele>
        <time>2014-07-29T09:30:56.000Z</time>
      </trkpt>
      <trkpt lat="48.71199" lon="1.7768">
        <ele>170.19999694824</ele>
        <time>2014-07-29T09:31:03.000Z</time>
      </trkpt>
      <trkpt lat="48.71198" lon="1.7768">
        <ele>170.19999694824</ele>
        <time>2014-07-29T09:31:04.000Z</time>
      </trkpt>
      <trkpt lat="48.71184" lon="1.77684">
        <ele>170</ele>
        <time>2014-07-29T09:31:13.000Z</time>
      </trkpt>
      <trkpt lat="48.71173" lon="1.77687">
        <ele>170</ele>
        <time>2014-07-29T09:31:19.000Z</time>
      </trkpt>
      <trkpt lat="48.71166" lon="1.77689">
        <ele>170</ele>
        <time>2014-07-29T09:31:24.000Z</time>
      </trkpt>
      <trkpt lat="48.71162" lon="1.77688">
        <ele>170</ele>
        <time>2014-07-29T09:31:27.000Z</time>
      </trkpt>
      <trkpt lat="48.7115" lon="1.77689">
        <ele>170</ele>
        <time>2014-07-29T09:31:35.000Z</time>
      </trkpt>
      <trkpt lat="48.71147" lon="1.77689">
        <ele>170</ele>
        <time>2014-07-29T09:31:37.000Z</time>
      </trkpt>
      <trkpt lat="48.71135" lon="1.77693">
        <ele>170</ele>
        <time>2014-07-29T09:31:42.000Z</time>
      </trkpt>
      <trkpt lat="48.71123" lon="1.77692">
        <ele>169.80000305176</ele>
        <time>2014-07-29T09:31:49.000Z</time>
      </trkpt>
      <trkpt lat="48.71118" lon="1.77692">
        <ele>169.80000305176</ele>
        <time>2014-07-29T09:31:53.000Z</time>
      </trkpt>
      <trkpt lat="48.71106" lon="1.77695">
        <ele>169.60000610352</ele>
        <time>2014-07-29T09:32:01.000Z</time>
      </trkpt>
      <trkpt lat="48.71094" lon="1.77694">
        <ele>169.80000305176</ele>
        <time>2014-07-29T09:32:09.000Z</time>
      </trkpt>
      <trkpt lat="48.71082" lon="1.77694">
        <ele>170</ele>
        <time>2014-07-29T09:32:16.000Z</time>
      </trkpt>
      <trkpt lat="48.71073" lon="1.77695">
        <ele>170.19999694824</ele>
        <time>2014-07-29T09:32:22.000Z</time>
      </trkpt>
      <trkpt lat="48.71068" lon="1.7769">
        <ele>170.39999389648</ele>
        <time>2014-07-29T09:32:26.000Z</time>
      </trkpt>
      <trkpt lat="48.71061" lon="1.77683">
        <ele>170.60000610352</ele>
        <time>2014-07-29T09:32:32.000Z</time>
      </trkpt>
      <trkpt lat="48.71055" lon="1.7767">
        <ele>171</ele>
        <time>2014-07-29T09:32:38.000Z</time>
      </trkpt>
      <trkpt lat="48.71047" lon="1.77653">
        <ele>171.39999389648</ele>
        <time>2014-07-29T09:32:46.000Z</time>
      </trkpt>
      <trkpt lat="48.71041" lon="1.77636">
        <ele>171.60000610352</ele>
        <time>2014-07-29T09:32:55.000Z</time>
      </trkpt>
      <trkpt lat="48.71032" lon="1.77614">
        <ele>171.80000305176</ele>
        <time>2014-07-29T09:33:05.000Z</time>
      </trkpt>
      <trkpt lat="48.71019" lon="1.77577">
        <ele>172</ele>
        <time>2014-07-29T09:33:12.000Z</time>
      </trkpt>
      <trkpt lat="48.71012" lon="1.77555">
        <ele>172.39999389648</ele>
        <time>2014-07-29T09:33:15.000Z</time>
      </trkpt>
      <trkpt lat="48.70989" lon="1.77503">
        <ele>173.60000610352</ele>
        <time>2014-07-29T09:33:22.000Z</time>
      </trkpt>
      <trkpt lat="48.70965" lon="1.77455">
        <ele>174.39999389648</ele>
        <time>2014-07-29T09:33:28.000Z</time>
      </trkpt>
      <trkpt lat="48.70935" lon="1.77396">
        <ele>175.19999694824</ele>
        <time>2014-07-29T09:33:35.000Z</time>
      </trkpt>
      <trkpt lat="48.7091" lon="1.77347">
        <ele>176.80000305176</ele>
        <time>2014-07-29T09:33:41.000Z</time>
      </trkpt>
      <trkpt lat="48.70895" lon="1.77311">
        <ele>177.39999389648</ele>
        <time>2014-07-29T09:33:46.000Z</time>
      </trkpt>
      <trkpt lat="48.70886" lon="1.77281">
        <ele>177</ele>
        <time>2014-07-29T09:33:51.000Z</time>
      </trkpt>
      <trkpt lat="48.70879" lon="1.77257">
        <ele>176.39999389648</ele>
        <time>2014-07-29T09:33:57.000Z</time>
      </trkpt>
      <trkpt lat="48.70878" lon="1.77254">
        <ele>176.39999389648</ele>
        <time>2014-07-29T09:33:59.000Z</time>
      </trkpt>
      <trkpt lat="48.70872" lon="1.77253">
        <ele>176.39999389648</ele>
        <time>2014-07-29T09:34:03.000Z</time>
      </trkpt>
      <trkpt lat="48.70862" lon="1.77254">
        <ele>176.39999389648</ele>
        <time>2014-07-29T09:34:09.000Z</time>
      </trkpt>
      <trkpt lat="48.70853" lon="1.77256">
        <ele>176.19999694824</ele>
        <time>2014-07-29T09:34:14.000Z</time>
      </trkpt>
      <trkpt lat="48.70841" lon="1.77253">
        <ele>176.19999694824</ele>
        <time>2014-07-29T09:34:21.000Z</time>
      </trkpt>
      <trkpt lat="48.70834" lon="1.77253">
        <ele>176.19999694824</ele>
        <time>2014-07-29T09:34:26.000Z</time>
      </trkpt>
      <trkpt lat="48.70823" lon="1.77252">
        <ele>176.19999694824</ele>
        <time>2014-07-29T09:34:34.000Z</time>
      </trkpt>
      <trkpt lat="48.70817" lon="1.77252">
        <ele>176.19999694824</ele>
        <time>2014-07-29T09:34:38.000Z</time>
      </trkpt>
      <trkpt lat="48.70805" lon="1.77253">
        <ele>176.19999694824</ele>
        <time>2014-07-29T09:34:45.000Z</time>
      </trkpt>
      <trkpt lat="48.70794" lon="1.77251">
        <ele>176.19999694824</ele>
        <time>2014-07-29T09:34:52.000Z</time>
      </trkpt>
      <trkpt lat="48.70785" lon="1.77254">
        <ele>176.19999694824</ele>
        <time>2014-07-29T09:34:59.000Z</time>
      </trkpt>
      <trkpt lat="48.70777" lon="1.77256">
        <ele>176</ele>
        <time>2014-07-29T09:35:04.000Z</time>
      </trkpt>
      <trkpt lat="48.70768" lon="1.77258">
        <ele>176</ele>
        <time>2014-07-29T09:35:10.000Z</time>
      </trkpt>
      <trkpt lat="48.70766" lon="1.77258">
        <ele>176</ele>
        <time>2014-07-29T09:35:11.000Z</time>
      </trkpt>
      <trkpt lat="48.70757" lon="1.7726">
        <ele>176.19999694824</ele>
        <time>2014-07-29T09:35:17.000Z</time>
      </trkpt>
      <trkpt lat="48.70755" lon="1.77261">
        <ele>176.19999694824</ele>
        <time>2014-07-29T09:35:18.000Z</time>
      </trkpt>
      <trkpt lat="48.70745" lon="1.77263">
        <ele>176.19999694824</ele>
        <time>2014-07-29T09:35:24.000Z</time>
      </trkpt>
      <trkpt lat="48.70736" lon="1.77263">
        <ele>176.39999389648</ele>
        <time>2014-07-29T09:35:29.000Z</time>
      </trkpt>
      <trkpt lat="48.70724" lon="1.77262">
        <ele>176.60000610352</ele>
        <time>2014-07-29T09:35:37.000Z</time>
      </trkpt>
      <trkpt lat="48.70714" lon="1.77263">
        <ele>176.60000610352</ele>
        <time>2014-07-29T09:35:45.000Z</time>
      </trkpt>
      <trkpt lat="48.70704" lon="1.77261">
        <ele>177</ele>
        <time>2014-07-29T09:35:52.000Z</time>
      </trkpt>
      <trkpt lat="48.70695" lon="1.77261">
        <ele>177.19999694824</ele>
        <time>2014-07-29T09:35:58.000Z</time>
      </trkpt>
      <trkpt lat="48.70683" lon="1.7726">
        <ele>177.80000305176</ele>
        <time>2014-07-29T09:36:05.000Z</time>
      </trkpt>
      <trkpt lat="48.70674" lon="1.77258">
        <ele>178.19999694824</ele>
        <time>2014-07-29T09:36:11.000Z</time>
      </trkpt>
      <trkpt lat="48.70662" lon="1.77256">
        <ele>178.60000610352</ele>
        <time>2014-07-29T09:36:19.000Z</time>
      </trkpt>
      <trkpt lat="48.70654" lon="1.77256">
        <ele>179</ele>
        <time>2014-07-29T09:36:25.000Z</time>
      </trkpt>
      <trkpt lat="48.70644" lon="1.77255">
        <ele>179.39999389648</ele>
        <time>2014-07-29T09:36:33.000Z</time>
      </trkpt>
      <trkpt lat="48.70634" lon="1.77253">
        <ele>179.80000305176</ele>
        <time>2014-07-29T09:36:40.000Z</time>
      </trkpt>
      <trkpt lat="48.70625" lon="1.77252">
        <ele>180.39999389648</ele>
        <time>2014-07-29T09:36:46.000Z</time>
      </trkpt>
      <trkpt lat="48.70621" lon="1.77253">
        <ele>180.39999389648</ele>
        <time>2014-07-29T09:36:49.000Z</time>
      </trkpt>
      <trkpt lat="48.70609" lon="1.7725">
        <ele>180.80000305176</ele>
        <time>2014-07-29T09:36:58.000Z</time>
      </trkpt>
      <trkpt lat="48.70598" lon="1.77249">
        <ele>181</ele>
        <time>2014-07-29T09:37:05.000Z</time>
      </trkpt>
      <trkpt lat="48.70587" lon="1.77246">
        <ele>181.19999694824</ele>
        <time>2014-07-29T09:37:11.000Z</time>
      </trkpt>
      <trkpt lat="48.70577" lon="1.77245">
        <ele>181.39999389648</ele>
        <time>2014-07-29T09:37:18.000Z</time>
      </trkpt>
      <trkpt lat="48.70574" lon="1.77245">
        <ele>181.39999389648</ele>
        <time>2014-07-29T09:37:20.000Z</time>
      </trkpt>
      <trkpt lat="48.70563" lon="1.77243">
        <ele>181.39999389648</ele>
        <time>2014-07-29T09:37:27.000Z</time>
      </trkpt>
      <trkpt lat="48.70551" lon="1.77241">
        <ele>181.60000610352</ele>
        <time>2014-07-29T09:37:35.000Z</time>
      </trkpt>
      <trkpt lat="48.70543" lon="1.77241">
        <ele>181.80000305176</ele>
        <time>2014-07-29T09:37:41.000Z</time>
      </trkpt>
      <trkpt lat="48.70539" lon="1.77241">
        <ele>181.80000305176</ele>
        <time>2014-07-29T09:37:45.000Z</time>
      </trkpt>
      <trkpt lat="48.70532" lon="1.7724">
        <ele>181.80000305176</ele>
        <time>2014-07-29T09:37:50.000Z</time>
      </trkpt>
      <trkpt lat="48.70531" lon="1.77241">
        <ele>181.80000305176</ele>
        <time>2014-07-29T09:37:51.000Z</time>
      </trkpt>
      <trkpt lat="48.70524" lon="1.77242">
        <ele>182</ele>
        <time>2014-07-29T09:37:55.000Z</time>
      </trkpt>
      <trkpt lat="48.70517" lon="1.77241">
        <ele>182</ele>
        <time>2014-07-29T09:37:59.000Z</time>
      </trkpt>
      <trkpt lat="48.70512" lon="1.7724">
        <ele>182</ele>
        <time>2014-07-29T09:38:03.000Z</time>
      </trkpt>
      <trkpt lat="48.70503" lon="1.77239">
        <ele>181.80000305176</ele>
        <time>2014-07-29T09:38:10.000Z</time>
      </trkpt>
      <trkpt lat="48.70493" lon="1.77239">
        <ele>181.60000610352</ele>
        <time>2014-07-29T09:38:16.000Z</time>
      </trkpt>
      <trkpt lat="48.70483" lon="1.77238">
        <ele>181.60000610352</ele>
        <time>2014-07-29T09:38:22.000Z</time>
      </trkpt>
      <trkpt lat="48.70472" lon="1.77236">
        <ele>181.39999389648</ele>
        <time>2014-07-29T09:38:30.000Z</time>
      </trkpt>
      <trkpt lat="48.70461" lon="1.77235">
        <ele>181.19999694824</ele>
        <time>2014-07-29T09:38:37.000Z</time>
      </trkpt>
      <trkpt lat="48.70451" lon="1.77239">
        <ele>181.19999694824</ele>
        <time>2014-07-29T09:38:43.000Z</time>
      </trkpt>
      <trkpt lat="48.70434" lon="1.77248">
        <ele>181.19999694824</ele>
        <time>2014-07-29T09:38:54.000Z</time>
      </trkpt>
      <trkpt lat="48.70423" lon="1.77255">
        <ele>181.19999694824</ele>
        <time>2014-07-29T09:39:01.000Z</time>
      </trkpt>
      <trkpt lat="48.70415" lon="1.77261">
        <ele>181.19999694824</ele>
        <time>2014-07-29T09:39:07.000Z</time>
      </trkpt>
      <trkpt lat="48.70407" lon="1.77268">
        <ele>181.39999389648</ele>
        <time>2014-07-29T09:39:14.000Z</time>
      </trkpt>
      <trkpt lat="48.70404" lon="1.77271">
        <ele>181.39999389648</ele>
        <time>2014-07-29T09:39:17.000Z</time>
      </trkpt>
      <trkpt lat="48.70393" lon="1.7728">
        <ele>181.39999389648</ele>
        <time>2014-07-29T09:39:25.000Z</time>
      </trkpt>
      <trkpt lat="48.70385" lon="1.77289">
        <ele>181.39999389648</ele>
        <time>2014-07-29T09:39:32.000Z</time>
      </trkpt>
      <trkpt lat="48.7038" lon="1.7729">
        <ele>181.19999694824</ele>
        <time>2014-07-29T09:39:36.000Z</time>
      </trkpt>
      <trkpt lat="48.70375" lon="1.77289">
        <ele>181.19999694824</ele>
        <time>2014-07-29T09:39:40.000Z</time>
      </trkpt>
      <trkpt lat="48.70373" lon="1.77287">
        <ele>181</ele>
        <time>2014-07-29T09:39:44.000Z</time>
      </trkpt>
      <trkpt lat="48.70367" lon="1.77287">
        <ele>181</ele>
        <time>2014-07-29T09:39:51.000Z</time>
      </trkpt>
      <trkpt lat="48.70358" lon="1.77282">
        <ele>180.60000610352</ele>
        <time>2014-07-29T09:39:56.000Z</time>
      </trkpt>
      <trkpt lat="48.70353" lon="1.77277">
        <ele>180.39999389648</ele>
        <time>2014-07-29T09:40:01.000Z</time>
      </trkpt>
      <trkpt lat="48.70347" lon="1.77271">
        <ele>180.19999694824</ele>
        <time>2014-07-29T09:40:07.000Z</time>
      </trkpt>
      <trkpt lat="48.70338" lon="1.77262">
        <ele>179.80000305176</ele>
        <time>2014-07-29T09:40:13.000Z</time>
      </trkpt>
      <trkpt lat="48.70331" lon="1.77255">
        <ele>179.39999389648</ele>
        <time>2014-07-29T09:40:18.000Z</time>
      </trkpt>
      <trkpt lat="48.70325" lon="1.77247">
        <ele>179</ele>
        <time>2014-07-29T09:40:23.000Z</time>
      </trkpt>
      <trkpt lat="48.70317" lon="1.77236">
        <ele>178.80000305176</ele>
        <time>2014-07-29T09:40:29.000Z</time>
      </trkpt>
      <trkpt lat="48.7031" lon="1.7723">
        <ele>179</ele>
        <time>2014-07-29T09:40:35.000Z</time>
      </trkpt>
      <trkpt lat="48.70304" lon="1.77223">
        <ele>179.19999694824</ele>
        <time>2014-07-29T09:40:40.000Z</time>
      </trkpt>
      <trkpt lat="48.70297" lon="1.77215">
        <ele>179.39999389648</ele>
        <time>2014-07-29T09:40:46.000Z</time>
      </trkpt>
      <trkpt lat="48.70288" lon="1.77206">
        <ele>179.60000610352</ele>
        <time>2014-07-29T09:40:52.000Z</time>
      </trkpt>
      <trkpt lat="48.7028" lon="1.77197">
        <ele>179.80000305176</ele>
        <time>2014-07-29T09:40:58.000Z</time>
      </trkpt>
      <trkpt lat="48.7027" lon="1.77188">
        <ele>180</ele>
        <time>2014-07-29T09:41:05.000Z</time>
      </trkpt>
      <trkpt lat="48.70262" lon="1.77179">
        <ele>180.19999694824</ele>
        <time>2014-07-29T09:41:10.000Z</time>
      </trkpt>
      <trkpt lat="48.70255" lon="1.77172">
        <ele>180.39999389648</ele>
        <time>2014-07-29T09:41:15.000Z</time>
      </trkpt>
      <trkpt lat="48.70248" lon="1.77163">
        <ele>180.60000610352</ele>
        <time>2014-07-29T09:41:21.000Z</time>
      </trkpt>
      <trkpt lat="48.70239" lon="1.77154">
        <ele>180.80000305176</ele>
        <time>2014-07-29T09:41:28.000Z</time>
      </trkpt>
      <trkpt lat="48.7023" lon="1.77144">
        <ele>180.39999389648</ele>
        <time>2014-07-29T09:41:36.000Z</time>
      </trkpt>
      <trkpt lat="48.70223" lon="1.77134">
        <ele>180</ele>
        <time>2014-07-29T09:41:42.000Z</time>
      </trkpt>
      <trkpt lat="48.70215" lon="1.77128">
        <ele>179.80000305176</ele>
        <time>2014-07-29T09:41:48.000Z</time>
      </trkpt>
      <trkpt lat="48.70205" lon="1.77117">
        <ele>179.19999694824</ele>
        <time>2014-07-29T09:41:56.000Z</time>
      </trkpt>
      <trkpt lat="48.70195" lon="1.77107">
        <ele>178.80000305176</ele>
        <time>2014-07-29T09:42:03.000Z</time>
      </trkpt>
      <trkpt lat="48.70179" lon="1.7709">
        <ele>178</ele>
        <time>2014-07-29T09:42:15.000Z</time>
      </trkpt>
      <trkpt lat="48.70169" lon="1.77078">
        <ele>177.39999389648</ele>
        <time>2014-07-29T09:42:23.000Z</time>
      </trkpt>
      <trkpt lat="48.70162" lon="1.77071">
        <ele>177.19999694824</ele>
        <time>2014-07-29T09:42:29.000Z</time>
      </trkpt>
      <trkpt lat="48.70158" lon="1.77066">
        <ele>177.19999694824</ele>
        <time>2014-07-29T09:42:32.000Z</time>
      </trkpt>
      <trkpt lat="48.70148" lon="1.77055">
        <ele>177.60000610352</ele>
        <time>2014-07-29T09:42:40.000Z</time>
      </trkpt>
      <trkpt lat="48.70141" lon="1.77049">
        <ele>177.80000305176</ele>
        <time>2014-07-29T09:42:45.000Z</time>
      </trkpt>
      <trkpt lat="48.70131" lon="1.77037">
        <ele>178</ele>
        <time>2014-07-29T09:42:53.000Z</time>
      </trkpt>
      <trkpt lat="48.70121" lon="1.77023">
        <ele>178.39999389648</ele>
        <time>2014-07-29T09:43:02.000Z</time>
      </trkpt>
      <trkpt lat="48.70115" lon="1.77017">
        <ele>178.60000610352</ele>
        <time>2014-07-29T09:43:09.000Z</time>
      </trkpt>
      <trkpt lat="48.70109" lon="1.77011">
        <ele>178.80000305176</ele>
        <time>2014-07-29T09:43:30.000Z</time>
      </trkpt>
      <trkpt lat="48.70105" lon="1.77005">
        <ele>179</ele>
        <time>2014-07-29T09:43:36.000Z</time>
      </trkpt>
      <trkpt lat="48.70101" lon="1.76999">
        <ele>179.39999389648</ele>
        <time>2014-07-29T09:43:43.000Z</time>
      </trkpt>
      <trkpt lat="48.7009" lon="1.76988">
        <ele>180</ele>
        <time>2014-07-29T09:43:51.000Z</time>
      </trkpt>
      <trkpt lat="48.70086" lon="1.76983">
        <ele>180.19999694824</ele>
        <time>2014-07-29T09:43:55.000Z</time>
      </trkpt>
      <trkpt lat="48.70077" lon="1.76974">
        <ele>180.39999389648</ele>
        <time>2014-07-29T09:44:03.000Z</time>
      </trkpt>
      <trkpt lat="48.70073" lon="1.76969">
        <ele>180.39999389648</ele>
        <time>2014-07-29T09:44:07.000Z</time>
      </trkpt>
      <trkpt lat="48.70065" lon="1.76964">
        <ele>180.60000610352</ele>
        <time>2014-07-29T09:44:13.000Z</time>
      </trkpt>
      <trkpt lat="48.70059" lon="1.76956">
        <ele>180.80000305176</ele>
        <time>2014-07-29T09:44:18.000Z</time>
      </trkpt>
      <trkpt lat="48.70051" lon="1.76945">
        <ele>181</ele>
        <time>2014-07-29T09:44:25.000Z</time>
      </trkpt>
      <trkpt lat="48.70046" lon="1.76937">
        <ele>181.19999694824</ele>
        <time>2014-07-29T09:44:31.000Z</time>
      </trkpt>
      <trkpt lat="48.7004" lon="1.76932">
        <ele>181.39999389648</ele>
        <time>2014-07-29T09:44:35.000Z</time>
      </trkpt>
      <trkpt lat="48.70033" lon="1.76927">
        <ele>181.39999389648</ele>
        <time>2014-07-29T09:44:40.000Z</time>
      </trkpt>
      <trkpt lat="48.7003" lon="1.76929">
        <ele>181.39999389648</ele>
        <time>2014-07-29T09:44:46.000Z</time>
      </trkpt>
      <trkpt lat="48.70029" lon="1.76929">
        <ele>181.39999389648</ele>
        <time>2014-07-29T09:44:49.000Z</time>
      </trkpt>
      <trkpt lat="48.70024" lon="1.76932">
        <ele>181.39999389648</ele>
        <time>2014-07-29T09:45:17.000Z</time>
      </trkpt>
      <trkpt lat="48.70022" lon="1.76926">
        <ele>181.39999389648</ele>
        <time>2014-07-29T09:45:23.000Z</time>
      </trkpt>
      <trkpt lat="48.7002" lon="1.76917">
        <ele>181.60000610352</ele>
        <time>2014-07-29T09:45:31.000Z</time>
      </trkpt>
      <trkpt lat="48.70019" lon="1.7691">
        <ele>181.80000305176</ele>
        <time>2014-07-29T09:45:34.000Z</time>
      </trkpt>
      <trkpt lat="48.70013" lon="1.76904">
        <ele>181.60000610352</ele>
        <time>2014-07-29T09:45:40.000Z</time>
      </trkpt>
      <trkpt lat="48.70011" lon="1.76902">
        <ele>181.60000610352</ele>
        <time>2014-07-29T09:45:42.000Z</time>
      </trkpt>
      <trkpt lat="48.70009" lon="1.76897">
        <ele>181.60000610352</ele>
        <time>2014-07-29T09:45:45.000Z</time>
      </trkpt>
      <trkpt lat="48.7" lon="1.76891">
        <ele>181.39999389648</ele>
        <time>2014-07-29T09:45:51.000Z</time>
      </trkpt>
      <trkpt lat="48.69993" lon="1.76881">
        <ele>181.39999389648</ele>
        <time>2014-07-29T09:45:57.000Z</time>
      </trkpt>
      <trkpt lat="48.69988" lon="1.76875">
        <ele>181.39999389648</ele>
        <time>2014-07-29T09:46:01.000Z</time>
      </trkpt>
      <trkpt lat="48.6998" lon="1.76867">
        <ele>181.39999389648</ele>
        <time>2014-07-29T09:46:07.000Z</time>
      </trkpt>
      <trkpt lat="48.69973" lon="1.7686">
        <ele>181.39999389648</ele>
        <time>2014-07-29T09:46:12.000Z</time>
      </trkpt>
      <trkpt lat="48.69962" lon="1.76848">
        <ele>181.19999694824</ele>
        <time>2014-07-29T09:46:20.000Z</time>
      </trkpt>
      <trkpt lat="48.69953" lon="1.7684">
        <ele>181</ele>
        <time>2014-07-29T09:46:27.000Z</time>
      </trkpt>
      <trkpt lat="48.69948" lon="1.76834">
        <ele>181</ele>
        <time>2014-07-29T09:46:31.000Z</time>
      </trkpt>
      <trkpt lat="48.69939" lon="1.76825">
        <ele>181</ele>
        <time>2014-07-29T09:46:38.000Z</time>
      </trkpt>
      <trkpt lat="48.6993" lon="1.76819">
        <ele>181.19999694824</ele>
        <time>2014-07-29T09:46:44.000Z</time>
      </trkpt>
      <trkpt lat="48.69925" lon="1.76814">
        <ele>181.60000610352</ele>
        <time>2014-07-29T09:46:48.000Z</time>
      </trkpt>
      <trkpt lat="48.69919" lon="1.76805">
        <ele>182</ele>
        <time>2014-07-29T09:46:54.000Z</time>
      </trkpt>
      <trkpt lat="48.69914" lon="1.76798">
        <ele>182.39999389648</ele>
        <time>2014-07-29T09:46:58.000Z</time>
      </trkpt>
      <trkpt lat="48.69909" lon="1.7679">
        <ele>182.80000305176</ele>
        <time>2014-07-29T09:47:04.000Z</time>
      </trkpt>
      <trkpt lat="48.69903" lon="1.76786">
        <ele>183</ele>
        <time>2014-07-29T09:47:09.000Z</time>
      </trkpt>
      <trkpt lat="48.69894" lon="1.76779">
        <ele>183.60000610352</ele>
        <time>2014-07-29T09:47:15.000Z</time>
      </trkpt>
      <trkpt lat="48.69888" lon="1.7677">
        <ele>184</ele>
        <time>2014-07-29T09:47:22.000Z</time>
      </trkpt>
      <trkpt lat="48.69881" lon="1.7676">
        <ele>184.60000610352</ele>
        <time>2014-07-29T09:47:29.000Z</time>
      </trkpt>
      <trkpt lat="48.6988" lon="1.76758">
        <ele>184.60000610352</ele>
        <time>2014-07-29T09:47:30.000Z</time>
      </trkpt>
      <trkpt lat="48.69875" lon="1.76752">
        <ele>185</ele>
        <time>2014-07-29T09:47:35.000Z</time>
      </trkpt>
      <trkpt lat="48.69869" lon="1.76745">
        <ele>185.39999389648</ele>
        <time>2014-07-29T09:47:41.000Z</time>
      </trkpt>
      <trkpt lat="48.69867" lon="1.76744">
        <ele>185.39999389648</ele>
        <time>2014-07-29T09:47:43.000Z</time>
      </trkpt>
      <trkpt lat="48.6986" lon="1.76731">
        <ele>185.60000610352</ele>
        <time>2014-07-29T09:47:51.000Z</time>
      </trkpt>
      <trkpt lat="48.69859" lon="1.7673">
        <ele>185.60000610352</ele>
        <time>2014-07-29T09:47:52.000Z</time>
      </trkpt>
      <trkpt lat="48.69849" lon="1.76718">
        <ele>185.60000610352</ele>
        <time>2014-07-29T09:47:59.000Z</time>
      </trkpt>
      <trkpt lat="48.69847" lon="1.76716">
        <ele>185.39999389648</ele>
        <time>2014-07-29T09:48:01.000Z</time>
      </trkpt>
      <trkpt lat="48.6984" lon="1.76707">
        <ele>185.19999694824</ele>
        <time>2014-07-29T09:48:07.000Z</time>
      </trkpt>
      <trkpt lat="48.69839" lon="1.76706">
        <ele>185.19999694824</ele>
        <time>2014-07-29T09:48:08.000Z</time>
      </trkpt>
      <trkpt lat="48.69831" lon="1.76702">
        <ele>185.19999694824</ele>
        <time>2014-07-29T09:48:12.000Z</time>
      </trkpt>
      <trkpt lat="48.69823" lon="1.76691">
        <ele>184.80000305176</ele>
        <time>2014-07-29T09:48:19.000Z</time>
      </trkpt>
      <trkpt lat="48.69818" lon="1.76685">
        <ele>184.80000305176</ele>
        <time>2014-07-29T09:48:23.000Z</time>
      </trkpt>
      <trkpt lat="48.69806" lon="1.76673">
        <ele>184.39999389648</ele>
        <time>2014-07-29T09:48:31.000Z</time>
      </trkpt>
      <trkpt lat="48.69803" lon="1.76671">
        <ele>184.39999389648</ele>
        <time>2014-07-29T09:48:33.000Z</time>
      </trkpt>
      <trkpt lat="48.69792" lon="1.76663">
        <ele>184.19999694824</ele>
        <time>2014-07-29T09:48:39.000Z</time>
      </trkpt>
      <trkpt lat="48.69785" lon="1.76655">
        <ele>184</ele>
        <time>2014-07-29T09:48:45.000Z</time>
      </trkpt>
      <trkpt lat="48.69779" lon="1.76649">
        <ele>184</ele>
        <time>2014-07-29T09:48:50.000Z</time>
      </trkpt>
      <trkpt lat="48.69777" lon="1.76648">
        <ele>184</ele>
        <time>2014-07-29T09:48:51.000Z</time>
      </trkpt>
      <trkpt lat="48.69773" lon="1.76643">
        <ele>184</ele>
        <time>2014-07-29T09:48:54.000Z</time>
      </trkpt>
      <trkpt lat="48.69764" lon="1.76633">
        <ele>183.60000610352</ele>
        <time>2014-07-29T09:49:01.000Z</time>
      </trkpt>
      <trkpt lat="48.69757" lon="1.76626">
        <ele>183.19999694824</ele>
        <time>2014-07-29T09:49:06.000Z</time>
      </trkpt>
      <trkpt lat="48.6975" lon="1.76615">
        <ele>182.80000305176</ele>
        <time>2014-07-29T09:49:13.000Z</time>
      </trkpt>
      <trkpt lat="48.69745" lon="1.76599">
        <ele>182.39999389648</ele>
        <time>2014-07-29T09:49:20.000Z</time>
      </trkpt>
      <trkpt lat="48.69745" lon="1.76589">
        <ele>182.39999389648</ele>
        <time>2014-07-29T09:49:25.000Z</time>
      </trkpt>
      <trkpt lat="48.69746" lon="1.76587">
        <ele>182.60000610352</ele>
        <time>2014-07-29T09:49:26.000Z</time>
      </trkpt>
      <trkpt lat="48.6975" lon="1.7658">
        <ele>182.80000305176</ele>
        <time>2014-07-29T09:49:31.000Z</time>
      </trkpt>
      <trkpt lat="48.69751" lon="1.76577">
        <ele>182.80000305176</ele>
        <time>2014-07-29T09:49:32.000Z</time>
      </trkpt>
      <trkpt lat="48.69759" lon="1.7657">
        <ele>183.39999389648</ele>
        <time>2014-07-29T09:49:37.000Z</time>
      </trkpt>
      <trkpt lat="48.69771" lon="1.7656">
        <ele>184.19999694824</ele>
        <time>2014-07-29T09:49:44.000Z</time>
      </trkpt>
      <trkpt lat="48.69777" lon="1.76552">
        <ele>184.19999694824</ele>
        <time>2014-07-29T09:49:50.000Z</time>
      </trkpt>
      <trkpt lat="48.69782" lon="1.76543">
        <ele>184.39999389648</ele>
        <time>2014-07-29T09:49:55.000Z</time>
      </trkpt>
      <trkpt lat="48.69787" lon="1.76533">
        <ele>184.39999389648</ele>
        <time>2014-07-29T09:50:00.000Z</time>
      </trkpt>
      <trkpt lat="48.6979" lon="1.76527">
        <ele>184.60000610352</ele>
        <time>2014-07-29T09:50:03.000Z</time>
      </trkpt>
      <trkpt lat="48.69795" lon="1.76518">
        <ele>184.60000610352</ele>
        <time>2014-07-29T09:50:08.000Z</time>
      </trkpt>
      <trkpt lat="48.69803" lon="1.76507">
        <ele>184.60000610352</ele>
        <time>2014-07-29T09:50:14.000Z</time>
      </trkpt>
      <trkpt lat="48.69806" lon="1.76505">
        <ele>184.60000610352</ele>
        <time>2014-07-29T09:50:16.000Z</time>
      </trkpt>
      <trkpt lat="48.69815" lon="1.76493">
        <ele>184.39999389648</ele>
        <time>2014-07-29T09:50:22.000Z</time>
      </trkpt>
      <trkpt lat="48.69822" lon="1.76486">
        <ele>184.39999389648</ele>
        <time>2014-07-29T09:50:27.000Z</time>
      </trkpt>
      <trkpt lat="48.69828" lon="1.76478">
        <ele>184.39999389648</ele>
        <time>2014-07-29T09:50:32.000Z</time>
      </trkpt>
      <trkpt lat="48.69836" lon="1.76467">
        <ele>184.19999694824</ele>
        <time>2014-07-29T09:50:38.000Z</time>
      </trkpt>
      <trkpt lat="48.69841" lon="1.76458">
        <ele>184</ele>
        <time>2014-07-29T09:50:44.000Z</time>
      </trkpt>
      <trkpt lat="48.69847" lon="1.76449">
        <ele>183.60000610352</ele>
        <time>2014-07-29T09:50:49.000Z</time>
      </trkpt>
      <trkpt lat="48.69853" lon="1.76439">
        <ele>183.39999389648</ele>
        <time>2014-07-29T09:50:55.000Z</time>
      </trkpt>
      <trkpt lat="48.69856" lon="1.76436">
        <ele>183.39999389648</ele>
        <time>2014-07-29T09:50:57.000Z</time>
      </trkpt>
      <trkpt lat="48.69864" lon="1.76423">
        <ele>183</ele>
        <time>2014-07-29T09:51:04.000Z</time>
      </trkpt>
      <trkpt lat="48.6987" lon="1.76417">
        <ele>182.80000305176</ele>
        <time>2014-07-29T09:51:09.000Z</time>
      </trkpt>
      <trkpt lat="48.69877" lon="1.76405">
        <ele>182.19999694824</ele>
        <time>2014-07-29T09:51:15.000Z</time>
      </trkpt>
      <trkpt lat="48.69883" lon="1.76394">
        <ele>181.80000305176</ele>
        <time>2014-07-29T09:51:20.000Z</time>
      </trkpt>
      <trkpt lat="48.69887" lon="1.76389">
        <ele>181.60000610352</ele>
        <time>2014-07-29T09:51:24.000Z</time>
      </trkpt>
      <trkpt lat="48.69902" lon="1.76372">
        <ele>180.80000305176</ele>
        <time>2014-07-29T09:51:32.000Z</time>
      </trkpt>
      <trkpt lat="48.69921" lon="1.76354">
        <ele>179.60000610352</ele>
        <time>2014-07-29T09:51:39.000Z</time>
      </trkpt>
      <trkpt lat="48.69929" lon="1.76344">
        <ele>179</ele>
        <time>2014-07-29T09:51:43.000Z</time>
      </trkpt>
      <trkpt lat="48.6994" lon="1.76321">
        <ele>177.60000610352</ele>
        <time>2014-07-29T09:51:48.000Z</time>
      </trkpt>
      <trkpt lat="48.69945" lon="1.76311">
        <ele>176.80000305176</ele>
        <time>2014-07-29T09:51:52.000Z</time>
      </trkpt>
      <trkpt lat="48.69952" lon="1.76298">
        <ele>175.60000610352</ele>
        <time>2014-07-29T09:51:58.000Z</time>
      </trkpt>
      <trkpt lat="48.69957" lon="1.76289">
        <ele>174.60000610352</ele>
        <time>2014-07-29T09:52:02.000Z</time>
      </trkpt>
      <trkpt lat="48.69968" lon="1.76273">
        <ele>173</ele>
        <time>2014-07-29T09:52:07.000Z</time>
      </trkpt>
      <trkpt lat="48.69977" lon="1.76257">
        <ele>171.80000305176</ele>
        <time>2014-07-29T09:52:11.000Z</time>
      </trkpt>
      <trkpt lat="48.69993" lon="1.76238">
        <ele>170.19999694824</ele>
        <time>2014-07-29T09:52:16.000Z</time>
      </trkpt>
      <trkpt lat="48.70005" lon="1.7622">
        <ele>168.39999389648</ele>
        <time>2014-07-29T09:52:20.000Z</time>
      </trkpt>
      <trkpt lat="48.70015" lon="1.76205">
        <ele>167.39999389648</ele>
        <time>2014-07-29T09:52:24.000Z</time>
      </trkpt>
      <trkpt lat="48.7003" lon="1.76211">
        <ele>167.39999389648</ele>
        <time>2014-07-29T09:52:29.000Z</time>
      </trkpt>
      <trkpt lat="48.70038" lon="1.76217">
        <ele>167.39999389648</ele>
        <time>2014-07-29T09:52:34.000Z</time>
      </trkpt>
      <trkpt lat="48.70048" lon="1.76227">
        <ele>167.80000305176</ele>
        <time>2014-07-29T09:52:38.000Z</time>
      </trkpt>
      <trkpt lat="48.70059" lon="1.76235">
        <ele>168</ele>
        <time>2014-07-29T09:52:42.000Z</time>
      </trkpt>
      <trkpt lat="48.70075" lon="1.76249">
        <ele>168.19999694824</ele>
        <time>2014-07-29T09:52:47.000Z</time>
      </trkpt>
      <trkpt lat="48.70092" lon="1.76276">
        <ele>168.39999389648</ele>
        <time>2014-07-29T09:52:53.000Z</time>
      </trkpt>
      <trkpt lat="48.70098" lon="1.76293">
        <ele>168.60000610352</ele>
        <time>2014-07-29T09:52:56.000Z</time>
      </trkpt>
      <trkpt lat="48.70109" lon="1.76314">
        <ele>169</ele>
        <time>2014-07-29T09:53:00.000Z</time>
      </trkpt>
      <trkpt lat="48.70117" lon="1.76325">
        <ele>169.39999389648</ele>
        <time>2014-07-29T09:53:03.000Z</time>
      </trkpt>
      <trkpt lat="48.70134" lon="1.76331">
        <ele>169.80000305176</ele>
        <time>2014-07-29T09:53:07.000Z</time>
      </trkpt>
      <trkpt lat="48.70173" lon="1.76335">
        <ele>170.39999389648</ele>
        <time>2014-07-29T09:53:13.000Z</time>
      </trkpt>
      <trkpt lat="48.70175" lon="1.76337">
        <ele>170.39999389648</ele>
        <time>2014-07-29T09:53:14.000Z</time>
      </trkpt>
      <trkpt lat="48.7019" lon="1.76348">
        <ele>171</ele>
        <time>2014-07-29T09:53:19.000Z</time>
      </trkpt>
      <trkpt lat="48.70213" lon="1.76359">
        <ele>171.39999389648</ele>
        <time>2014-07-29T09:53:25.000Z</time>
      </trkpt>
      <trkpt lat="48.70222" lon="1.76364">
        <ele>171.60000610352</ele>
        <time>2014-07-29T09:53:27.000Z</time>
      </trkpt>
      <trkpt lat="48.70228" lon="1.7637">
        <ele>171.80000305176</ele>
        <time>2014-07-29T09:53:29.000Z</time>
      </trkpt>
      <trkpt lat="48.70237" lon="1.76381">
        <ele>172.19999694824</ele>
        <time>2014-07-29T09:53:35.000Z</time>
      </trkpt>
      <trkpt lat="48.70237" lon="1.76384">
        <ele>172.19999694824</ele>
        <time>2014-07-29T09:53:37.000Z</time>
      </trkpt>
      <trkpt lat="48.70244" lon="1.76395">
        <ele>172.60000610352</ele>
        <time>2014-07-29T09:53:44.000Z</time>
      </trkpt>
      <trkpt lat="48.70249" lon="1.76409">
        <ele>173.19999694824</ele>
        <time>2014-07-29T09:53:50.000Z</time>
      </trkpt>
      <trkpt lat="48.70252" lon="1.76411">
        <ele>173.19999694824</ele>
        <time>2014-07-29T09:53:55.000Z</time>
      </trkpt>
      <trkpt lat="48.70254" lon="1.7641">
        <ele>173.19999694824</ele>
        <time>2014-07-29T09:53:56.000Z</time>
      </trkpt>
      <trkpt lat="48.7026" lon="1.76416">
        <ele>173.39999389648</ele>
        <time>2014-07-29T09:54:01.000Z</time>
      </trkpt>
      <trkpt lat="48.70263" lon="1.76419">
        <ele>173.60000610352</ele>
        <time>2014-07-29T09:54:03.000Z</time>
      </trkpt>
      <trkpt lat="48.70271" lon="1.76424">
        <ele>173.80000305176</ele>
        <time>2014-07-29T09:54:09.000Z</time>
      </trkpt>
      <trkpt lat="48.70277" lon="1.76426">
        <ele>174</ele>
        <time>2014-07-29T09:54:13.000Z</time>
      </trkpt>
      <trkpt lat="48.70284" lon="1.76427">
        <ele>174.19999694824</ele>
        <time>2014-07-29T09:54:18.000Z</time>
      </trkpt>
      <trkpt lat="48.70292" lon="1.76428">
        <ele>174.39999389648</ele>
        <time>2014-07-29T09:54:24.000Z</time>
      </trkpt>
      <trkpt lat="48.70301" lon="1.76427">
        <ele>174.60000610352</ele>
        <time>2014-07-29T09:54:30.000Z</time>
      </trkpt>
      <trkpt lat="48.70305" lon="1.76428">
        <ele>174.60000610352</ele>
        <time>2014-07-29T09:54:32.000Z</time>
      </trkpt>
      <trkpt lat="48.70311" lon="1.76433">
        <ele>175</ele>
        <time>2014-07-29T09:54:39.000Z</time>
      </trkpt>
      <trkpt lat="48.70313" lon="1.76433">
        <ele>175</ele>
        <time>2014-07-29T09:54:44.000Z</time>
      </trkpt>
      <trkpt lat="48.70319" lon="1.76426">
        <ele>175</ele>
        <time>2014-07-29T09:55:29.000Z</time>
      </trkpt>
      <trkpt lat="48.70324" lon="1.76422">
        <ele>175</ele>
        <time>2014-07-29T09:55:34.000Z</time>
      </trkpt>
      <trkpt lat="48.70332" lon="1.76412">
        <ele>174.80000305176</ele>
        <time>2014-07-29T09:55:41.000Z</time>
      </trkpt>
      <trkpt lat="48.70338" lon="1.76408">
        <ele>174.80000305176</ele>
        <time>2014-07-29T09:55:46.000Z</time>
      </trkpt>
      <trkpt lat="48.70344" lon="1.76404">
        <ele>174.80000305176</ele>
        <time>2014-07-29T09:55:51.000Z</time>
      </trkpt>
      <trkpt lat="48.70354" lon="1.76404">
        <ele>175</ele>
        <time>2014-07-29T09:55:58.000Z</time>
      </trkpt>
      <trkpt lat="48.70357" lon="1.76404">
        <ele>175.19999694824</ele>
        <time>2014-07-29T09:56:02.000Z</time>
      </trkpt>
      <trkpt lat="48.70365" lon="1.76406">
        <ele>175.60000610352</ele>
        <time>2014-07-29T09:56:06.000Z</time>
      </trkpt>
      <trkpt lat="48.70376" lon="1.76406">
        <ele>175.80000305176</ele>
        <time>2014-07-29T09:56:11.000Z</time>
      </trkpt>
      <trkpt lat="48.7038" lon="1.76407">
        <ele>176</ele>
        <time>2014-07-29T09:56:13.000Z</time>
      </trkpt>
      <trkpt lat="48.7039" lon="1.76398">
        <ele>176</ele>
        <time>2014-07-29T09:56:20.000Z</time>
      </trkpt>
      <trkpt lat="48.70396" lon="1.76394">
        <ele>176</ele>
        <time>2014-07-29T09:56:25.000Z</time>
      </trkpt>
      <trkpt lat="48.704" lon="1.76391">
        <ele>176</ele>
        <time>2014-07-29T09:56:28.000Z</time>
      </trkpt>
      <trkpt lat="48.70407" lon="1.76386">
        <ele>176</ele>
        <time>2014-07-29T09:56:35.000Z</time>
      </trkpt>
      <trkpt lat="48.70409" lon="1.76385">
        <ele>176</ele>
        <time>2014-07-29T09:56:36.000Z</time>
      </trkpt>
      <trkpt lat="48.7041" lon="1.76383">
        <ele>176</ele>
        <time>2014-07-29T09:56:40.000Z</time>
      </trkpt>
      <trkpt lat="48.70415" lon="1.76379">
        <ele>176</ele>
        <time>2014-07-29T09:56:48.000Z</time>
      </trkpt>
      <trkpt lat="48.70416" lon="1.76379">
        <ele>176</ele>
        <time>2014-07-29T09:56:49.000Z</time>
      </trkpt>
      <trkpt lat="48.70426" lon="1.76376">
        <ele>176.19999694824</ele>
        <time>2014-07-29T09:56:53.000Z</time>
      </trkpt>
      <trkpt lat="48.70436" lon="1.76372">
        <ele>176.39999389648</ele>
        <time>2014-07-29T09:56:58.000Z</time>
      </trkpt>
      <trkpt lat="48.70438" lon="1.7637">
        <ele>176.39999389648</ele>
        <time>2014-07-29T09:57:00.000Z</time>
      </trkpt>
      <trkpt lat="48.70441" lon="1.76355">
        <ele>175.39999389648</ele>
        <time>2014-07-29T09:57:08.000Z</time>
      </trkpt>
      <trkpt lat="48.70442" lon="1.7635">
        <ele>175.19999694824</ele>
        <time>2014-07-29T09:57:10.000Z</time>
      </trkpt>
      <trkpt lat="48.70442" lon="1.76339">
        <ele>174.60000610352</ele>
        <time>2014-07-29T09:57:16.000Z</time>
      </trkpt>
      <trkpt lat="48.70442" lon="1.76332">
        <ele>174.39999389648</ele>
        <time>2014-07-29T09:57:19.000Z</time>
      </trkpt>
      <trkpt lat="48.70445" lon="1.76316">
        <ele>173.80000305176</ele>
        <time>2014-07-29T09:57:26.000Z</time>
      </trkpt>
      <trkpt lat="48.70445" lon="1.76301">
        <ele>173.80000305176</ele>
        <time>2014-07-29T09:57:32.000Z</time>
      </trkpt>
      <trkpt lat="48.70446" lon="1.76285">
        <ele>173.60000610352</ele>
        <time>2014-07-29T09:57:38.000Z</time>
      </trkpt>
      <trkpt lat="48.70446" lon="1.76282">
        <ele>173.60000610352</ele>
        <time>2014-07-29T09:57:39.000Z</time>
      </trkpt>
      <trkpt lat="48.70451" lon="1.76269">
        <ele>173.39999389648</ele>
        <time>2014-07-29T09:57:45.000Z</time>
      </trkpt>
      <trkpt lat="48.70455" lon="1.76255">
        <ele>173.39999389648</ele>
        <time>2014-07-29T09:57:51.000Z</time>
      </trkpt>
      <trkpt lat="48.70456" lon="1.7625">
        <ele>173.19999694824</ele>
        <time>2014-07-29T09:57:54.000Z</time>
      </trkpt>
      <trkpt lat="48.70458" lon="1.76233">
        <ele>172.80000305176</ele>
        <time>2014-07-29T09:58:00.000Z</time>
      </trkpt>
      <trkpt lat="48.7046" lon="1.76225">
        <ele>173</ele>
        <time>2014-07-29T09:58:04.000Z</time>
      </trkpt>
      <trkpt lat="48.70461" lon="1.7622">
        <ele>173</ele>
        <time>2014-07-29T09:58:07.000Z</time>
      </trkpt>
      <trkpt lat="48.7046" lon="1.76205">
        <ele>173.39999389648</ele>
        <time>2014-07-29T09:58:11.000Z</time>
      </trkpt>
      <trkpt lat="48.70452" lon="1.76178">
        <ele>174.60000610352</ele>
        <time>2014-07-29T09:58:17.000Z</time>
      </trkpt>
      <trkpt lat="48.70452" lon="1.76163">
        <ele>175</ele>
        <time>2014-07-29T09:58:22.000Z</time>
      </trkpt>
      <trkpt lat="48.70452" lon="1.76159">
        <ele>175.19999694824</ele>
        <time>2014-07-29T09:58:24.000Z</time>
      </trkpt>
      <trkpt lat="48.70453" lon="1.76142">
        <ele>175.39999389648</ele>
        <time>2014-07-29T09:58:30.000Z</time>
      </trkpt>
      <trkpt lat="48.70455" lon="1.7613">
        <ele>175.39999389648</ele>
        <time>2014-07-29T09:58:35.000Z</time>
      </trkpt>
      <trkpt lat="48.70455" lon="1.76124">
        <ele>175.39999389648</ele>
        <time>2014-07-29T09:58:38.000Z</time>
      </trkpt>
      <trkpt lat="48.70453" lon="1.76114">
        <ele>175.80000305176</ele>
        <time>2014-07-29T09:58:42.000Z</time>
      </trkpt>
      <trkpt lat="48.70454" lon="1.76102">
        <ele>175.80000305176</ele>
        <time>2014-07-29T09:58:48.000Z</time>
      </trkpt>
      <trkpt lat="48.70454" lon="1.76086">
        <ele>176</ele>
        <time>2014-07-29T09:58:54.000Z</time>
      </trkpt>
      <trkpt lat="48.70455" lon="1.76084">
        <ele>176</ele>
        <time>2014-07-29T09:58:55.000Z</time>
      </trkpt>
      <trkpt lat="48.70458" lon="1.76071">
        <ele>176</ele>
        <time>2014-07-29T09:59:01.000Z</time>
      </trkpt>
      <trkpt lat="48.70465" lon="1.76059">
        <ele>176.19999694824</ele>
        <time>2014-07-29T09:59:07.000Z</time>
      </trkpt>
      <trkpt lat="48.70467" lon="1.76054">
        <ele>176.39999389648</ele>
        <time>2014-07-29T09:59:10.000Z</time>
      </trkpt>
      <trkpt lat="48.70469" lon="1.76048">
        <ele>176.60000610352</ele>
        <time>2014-07-29T09:59:13.000Z</time>
      </trkpt>
      <trkpt lat="48.7047" lon="1.76033">
        <ele>177.19999694824</ele>
        <time>2014-07-29T09:59:19.000Z</time>
      </trkpt>
      <trkpt lat="48.70473" lon="1.76017">
        <ele>178</ele>
        <time>2014-07-29T09:59:25.000Z</time>
      </trkpt>
      <trkpt lat="48.70477" lon="1.76">
        <ele>178.80000305176</ele>
        <time>2014-07-29T09:59:32.000Z</time>
      </trkpt>
      <trkpt lat="48.70482" lon="1.7599">
        <ele>179.19999694824</ele>
        <time>2014-07-29T09:59:37.000Z</time>
      </trkpt>
      <trkpt lat="48.70489" lon="1.75982">
        <ele>179.19999694824</ele>
        <time>2014-07-29T09:59:43.000Z</time>
      </trkpt>
      <trkpt lat="48.70497" lon="1.75971">
        <ele>179</ele>
        <time>2014-07-29T09:59:50.000Z</time>
      </trkpt>
      <trkpt lat="48.70502" lon="1.7596">
        <ele>179.39999389648</ele>
        <time>2014-07-29T09:59:57.000Z</time>
      </trkpt>
      <trkpt lat="48.70503" lon="1.75958">
        <ele>179.39999389648</ele>
        <time>2014-07-29T09:59:58.000Z</time>
      </trkpt>
      <trkpt lat="48.70505" lon="1.75955">
        <ele>179.60000610352</ele>
        <time>2014-07-29T10:00:00.000Z</time>
      </trkpt>
      <trkpt lat="48.70511" lon="1.75947">
        <ele>180</ele>
        <time>2014-07-29T10:00:06.000Z</time>
      </trkpt>
      <trkpt lat="48.70516" lon="1.7594">
        <ele>180.39999389648</ele>
        <time>2014-07-29T10:00:12.000Z</time>
      </trkpt>
      <trkpt lat="48.7052" lon="1.75936">
        <ele>180.39999389648</ele>
        <time>2014-07-29T10:00:15.000Z</time>
      </trkpt>
      <trkpt lat="48.70529" lon="1.75921">
        <ele>180.60000610352</ele>
        <time>2014-07-29T10:00:23.000Z</time>
      </trkpt>
      <trkpt lat="48.70532" lon="1.75916">
        <ele>180.80000305176</ele>
        <time>2014-07-29T10:00:25.000Z</time>
      </trkpt>
      <trkpt lat="48.70537" lon="1.75901">
        <ele>180.80000305176</ele>
        <time>2014-07-29T10:00:32.000Z</time>
      </trkpt>
      <trkpt lat="48.70537" lon="1.75889">
        <ele>181.19999694824</ele>
        <time>2014-07-29T10:00:38.000Z</time>
      </trkpt>
      <trkpt lat="48.7054" lon="1.75879">
        <ele>181.19999694824</ele>
        <time>2014-07-29T10:00:41.000Z</time>
      </trkpt>
      <trkpt lat="48.70541" lon="1.75873">
        <ele>181.19999694824</ele>
        <time>2014-07-29T10:00:44.000Z</time>
      </trkpt>
      <trkpt lat="48.70544" lon="1.75862">
        <ele>181.39999389648</ele>
        <time>2014-07-29T10:00:51.000Z</time>
      </trkpt>
      <trkpt lat="48.70545" lon="1.75856">
        <ele>181.39999389648</ele>
        <time>2014-07-29T10:00:54.000Z</time>
      </trkpt>
      <trkpt lat="48.70547" lon="1.75851">
        <ele>181.39999389648</ele>
        <time>2014-07-29T10:00:57.000Z</time>
      </trkpt>
      <trkpt lat="48.70549" lon="1.75849">
        <ele>181.19999694824</ele>
        <time>2014-07-29T10:00:59.000Z</time>
      </trkpt>
      <trkpt lat="48.70559" lon="1.75834">
        <ele>180</ele>
        <time>2014-07-29T10:01:07.000Z</time>
      </trkpt>
      <trkpt lat="48.70569" lon="1.75824">
        <ele>178.80000305176</ele>
        <time>2014-07-29T10:01:14.000Z</time>
      </trkpt>
      <trkpt lat="48.70572" lon="1.75817">
        <ele>178.39999389648</ele>
        <time>2014-07-29T10:01:18.000Z</time>
      </trkpt>
      <trkpt lat="48.70578" lon="1.75802">
        <ele>178</ele>
        <time>2014-07-29T10:01:24.000Z</time>
      </trkpt>
      <trkpt lat="48.70584" lon="1.75794">
        <ele>177.80000305176</ele>
        <time>2014-07-29T10:01:29.000Z</time>
      </trkpt>
      <trkpt lat="48.70586" lon="1.75789">
        <ele>177.80000305176</ele>
        <time>2014-07-29T10:01:32.000Z</time>
      </trkpt>
      <trkpt lat="48.70592" lon="1.75778">
        <ele>178</ele>
        <time>2014-07-29T10:01:39.000Z</time>
      </trkpt>
      <trkpt lat="48.70596" lon="1.7577">
        <ele>178</ele>
        <time>2014-07-29T10:01:44.000Z</time>
      </trkpt>
      <trkpt lat="48.70603" lon="1.75761">
        <ele>178</ele>
        <time>2014-07-29T10:01:50.000Z</time>
      </trkpt>
      <trkpt lat="48.7061" lon="1.75752">
        <ele>178</ele>
        <time>2014-07-29T10:01:56.000Z</time>
      </trkpt>
      <trkpt lat="48.70611" lon="1.75751">
        <ele>178</ele>
        <time>2014-07-29T10:01:57.000Z</time>
      </trkpt>
      <trkpt lat="48.70614" lon="1.75743">
        <ele>178.19999694824</ele>
        <time>2014-07-29T10:02:02.000Z</time>
      </trkpt>
      <trkpt lat="48.70619" lon="1.75733">
        <ele>178.39999389648</ele>
        <time>2014-07-29T10:02:08.000Z</time>
      </trkpt>
      <trkpt lat="48.70625" lon="1.75721">
        <ele>179</ele>
        <time>2014-07-29T10:02:15.000Z</time>
      </trkpt>
      <trkpt lat="48.70627" lon="1.75714">
        <ele>179.39999389648</ele>
        <time>2014-07-29T10:02:20.000Z</time>
      </trkpt>
      <trkpt lat="48.70629" lon="1.75711">
        <ele>179.39999389648</ele>
        <time>2014-07-29T10:02:25.000Z</time>
      </trkpt>
      <trkpt lat="48.70638" lon="1.75699">
        <ele>179.60000610352</ele>
        <time>2014-07-29T10:03:36.000Z</time>
      </trkpt>
      <trkpt lat="48.70641" lon="1.75686">
        <ele>180.19999694824</ele>
        <time>2014-07-29T10:03:42.000Z</time>
      </trkpt>
      <trkpt lat="48.70641" lon="1.75682">
        <ele>180.19999694824</ele>
        <time>2014-07-29T10:03:44.000Z</time>
      </trkpt>
      <trkpt lat="48.70641" lon="1.75663">
        <ele>180.39999389648</ele>
        <time>2014-07-29T10:03:53.000Z</time>
      </trkpt>
      <trkpt lat="48.7064" lon="1.75655">
        <ele>180.60000610352</ele>
        <time>2014-07-29T10:03:57.000Z</time>
      </trkpt>
      <trkpt lat="48.70638" lon="1.75645">
        <ele>180.60000610352</ele>
        <time>2014-07-29T10:04:02.000Z</time>
      </trkpt>
      <trkpt lat="48.70642" lon="1.7563">
        <ele>179.80000305176</ele>
        <time>2014-07-29T10:04:09.000Z</time>
      </trkpt>
      <trkpt lat="48.70641" lon="1.75627">
        <ele>179.80000305176</ele>
        <time>2014-07-29T10:04:11.000Z</time>
      </trkpt>
      <trkpt lat="48.70651" lon="1.75609">
        <ele>178.39999389648</ele>
        <time>2014-07-29T10:04:19.000Z</time>
      </trkpt>
      <trkpt lat="48.70655" lon="1.75599">
        <ele>178</ele>
        <time>2014-07-29T10:04:25.000Z</time>
      </trkpt>
      <trkpt lat="48.70656" lon="1.75597">
        <ele>178</ele>
        <time>2014-07-29T10:04:26.000Z</time>
      </trkpt>
      <trkpt lat="48.70654" lon="1.75596">
        <ele>178.19999694824</ele>
        <time>2014-07-29T10:04:32.000Z</time>
      </trkpt>
      <trkpt lat="48.70653" lon="1.75596">
        <ele>178.19999694824</ele>
        <time>2014-07-29T10:04:34.000Z</time>
      </trkpt>
      <trkpt lat="48.70651" lon="1.75596">
        <ele>178.39999389648</ele>
        <time>2014-07-29T10:04:50.000Z</time>
      </trkpt>
      <trkpt lat="48.70652" lon="1.75595">
        <ele>178.39999389648</ele>
        <time>2014-07-29T10:04:51.000Z</time>
      </trkpt>
      <trkpt lat="48.70656" lon="1.75586">
        <ele>178</ele>
        <time>2014-07-29T10:04:56.000Z</time>
      </trkpt>
      <trkpt lat="48.70657" lon="1.75584">
        <ele>177.80000305176</ele>
        <time>2014-07-29T10:04:57.000Z</time>
      </trkpt>
      <trkpt lat="48.70663" lon="1.75575">
        <ele>177.19999694824</ele>
        <time>2014-07-29T10:05:04.000Z</time>
      </trkpt>
      <trkpt lat="48.70665" lon="1.7557">
        <ele>177</ele>
        <time>2014-07-29T10:05:08.000Z</time>
      </trkpt>
      <trkpt lat="48.70669" lon="1.75565">
        <ele>176</ele>
        <time>2014-07-29T10:05:12.000Z</time>
      </trkpt>
      <trkpt lat="48.70671" lon="1.75562">
        <ele>175.39999389648</ele>
        <time>2014-07-29T10:05:15.000Z</time>
      </trkpt>
      <trkpt lat="48.70672" lon="1.7556">
        <ele>175.19999694824</ele>
        <time>2014-07-29T10:05:18.000Z</time>
      </trkpt>
      <trkpt lat="48.70674" lon="1.75555">
        <ele>174.80000305176</ele>
        <time>2014-07-29T10:05:22.000Z</time>
      </trkpt>
      <trkpt lat="48.70678" lon="1.75548">
        <ele>174.60000610352</ele>
        <time>2014-07-29T10:05:25.000Z</time>
      </trkpt>
      <trkpt lat="48.70681" lon="1.75544">
        <ele>174.39999389648</ele>
        <time>2014-07-29T10:05:30.000Z</time>
      </trkpt>
      <trkpt lat="48.70685" lon="1.75532">
        <ele>174</ele>
        <time>2014-07-29T10:05:36.000Z</time>
      </trkpt>
      <trkpt lat="48.70687" lon="1.75529">
        <ele>174</ele>
        <time>2014-07-29T10:05:38.000Z</time>
      </trkpt>
      <trkpt lat="48.70693" lon="1.75516">
        <ele>173.39999389648</ele>
        <time>2014-07-29T10:05:45.000Z</time>
      </trkpt>
      <trkpt lat="48.70694" lon="1.75516">
        <ele>173.39999389648</ele>
        <time>2014-07-29T10:05:48.000Z</time>
      </trkpt>
      <trkpt lat="48.70697" lon="1.75508">
        <ele>173</ele>
        <time>2014-07-29T10:05:55.000Z</time>
      </trkpt>
      <trkpt lat="48.70699" lon="1.75504">
        <ele>172.80000305176</ele>
        <time>2014-07-29T10:05:56.000Z</time>
      </trkpt>
      <trkpt lat="48.70701" lon="1.75492">
        <ele>172.60000610352</ele>
        <time>2014-07-29T10:06:03.000Z</time>
      </trkpt>
      <trkpt lat="48.70702" lon="1.75488">
        <ele>172.60000610352</ele>
        <time>2014-07-29T10:06:05.000Z</time>
      </trkpt>
      <trkpt lat="48.70701" lon="1.75484">
        <ele>172.60000610352</ele>
        <time>2014-07-29T10:06:08.000Z</time>
      </trkpt>
      <trkpt lat="48.70702" lon="1.75481">
        <ele>172.39999389648</ele>
        <time>2014-07-29T10:06:13.000Z</time>
      </trkpt>
      <trkpt lat="48.70698" lon="1.75475">
        <ele>172.39999389648</ele>
        <time>2014-07-29T10:06:39.000Z</time>
      </trkpt>
      <trkpt lat="48.70699" lon="1.75468">
        <ele>172.19999694824</ele>
        <time>2014-07-29T10:06:41.000Z</time>
      </trkpt>
      <trkpt lat="48.70702" lon="1.75459">
        <ele>172</ele>
        <time>2014-07-29T10:06:46.000Z</time>
      </trkpt>
      <trkpt lat="48.70705" lon="1.75449">
        <ele>171.60000610352</ele>
        <time>2014-07-29T10:06:51.000Z</time>
      </trkpt>
      <trkpt lat="48.70707" lon="1.75448">
        <ele>171.60000610352</ele>
        <time>2014-07-29T10:06:55.000Z</time>
      </trkpt>
      <trkpt lat="48.70707" lon="1.75449">
        <ele>171.60000610352</ele>
        <time>2014-07-29T10:06:57.000Z</time>
      </trkpt>
    </trkseg>
  </trk>
</gpx>